[[{"header":{"parameterUnit":"m.s-1","parameterCategory":1,"la1":31.0,"la2":29.5877,"lo1":-88.7671,"lo2":-86.6584,"dy":0.0162,"dx":0.0185,"nx":115,"ny":88,"refTime":"2023-08-19T06:00:00:Z","depth":0,"parameterNumber":2,"parameterNumberName":"U-component_of_WINDS"},"data":[0.0,0.0,0.0,0.0,0.0,0.0,0.0,0.0,0.0,0.0,0.0,0.0,0.0,0.0,0.0,0.0,0.0,0.0,0.0,0.0,0.0,0.0,0.0,0.0,0.0,0.0,0.0,0.0,0.0,0.0,0.0,0.0,0.0,0.0,0.0,0.0,0.0,0.0,0.0,0.0,0.0,0.0,0.0,0.0,0.0,0.0,0.0,0.0,0.0,0.0,0.0,0.0,0.0,0.0,0.0,0.0,0.0,0.0,0.0,0.0,0.0,0.0,0.0,0.0,0.0,0.0,0.0,0.0,0.0,0.0,0.0,0.0,0.0,0.0,0.0,0.0,0.0,0.0,0.0,0.0,0.0,0.0,0.0,0.0,0.0,0.0,0.0,0.0,0.0,0.0,0.0,0.0,0.0,0.0,0.0,0.0,0.0,0.0,0.0,0.0,0.0,0.0,0.0,0.0,0.0,0.0,0.0,0.0,0.0,0.0,0.0,0.0,0.0,0.0,0.0,0.0,0.0,0.0,0.0,0.0,0.0,0.0,0.0,0.0,0.0,0.0,0.0,0.0,0.0,0.0,0.0,0.0,0.0,0.0,0.0,0.0,0.0,0.0,0.0,0.0,0.0,0.0,0.0,0.0,0.0,0.0,0.0,0.0,0.0,0.0,0.0,0.0,0.0,0.0,0.0,0.0,0.0,0.0,0.0,0.0,0.0,0.0,0.0,0.0,0.0,0.0,0.0,0.0,0.0,0.0,0.0,0.0,0.0,0.0,0.0,0.0,0.0,0.0,0.0,0.0,0.0,0.0,0.0,0.0,0.0,0.0,0.0,0.0,0.0,0.0,0.0,0.0,0.0,0.0,0.0,0.0,0.0,0.0,0.0,0.0,0.0,0.0,0.0,0.0,0.0,0.0,0.0,0.0,0.0,0.0,0.0,0.0,0.0,0.0,0.0,0.0,0.0,0.0,0.0,0.0,0.0,0.0,0.0,0.0,0.0,0.0,0.0,0.0,0.0,0.0,0.0,0.0,0.0,0.0,0.0,0.0,0.0,0.0,0.0,0.0,0.0,0.0,0.0,0.0,0.0,0.0,0.0,0.0,0.0,0.0,0.0,0.0,0.0,0.0,0.0,0.0,0.0,0.0,0.0,0.0,0.0,0.0,0.0,0.0,0.0,0.0,0.0,0.0,0.0,0.0,0.0,0.0,0.0,0.0,0.0,0.0,0.0,0.0,0.0,0.0,0.0,0.0,0.0,0.0,0.0,0.0,0.0,0.0,0.0,0.0,0.0,0.0,0.0,0.0,0.0,0.0,0.0,0.0,0.0,0.0,0.0,0.0,0.0,0.0,0.0,0.0,0.0,0.0,0.0,0.0,0.0,0.0,0.0,0.0,0.0,0.0,0.0,0.0,0.0,0.0,0.0,0.0,0.0,0.0,0.0,0.0,0.0,0.0,0.0,0.0,0.0,0.0,0.0,0.0,0.0,0.0,0.0,0.0,0.0,0.0,0.0,0.0,0.0,0.0,0.0,0.0,0.0,0.0,0.0,0.0,0.0,0.0,0.0,0.0,0.0,0.0,0.0,0.0,0.0,0.0,0.0,0.0,0.0,0.0,0.0,0.0,0.0,0.0,0.0,0.0,0.0,0.0,0.0,0.0,0.0,0.0,0.0,0.0,0.0,0.0,0.0,0.0,0.0,0.0,0.0,0.0,0.0,0.0,0.0,0.0,0.0,0.0,0.0,0.0,0.0,0.0,0.0,0.0,0.0,0.0,0.0,0.0,0.0,0.0,0.0,0.0,0.0,0.0,0.0,0.0,0.0,0.0,0.0,0.0,0.0,0.0,0.0,0.0,0.0,0.0,0.0,0.0,0.0,0.0,0.0,0.0,0.0,0.0,0.0,0.0,0.0,0.0,0.0,0.0,0.0,0.0,0.0,0.0,0.0,0.0,0.0,0.0,0.0,0.0,0.0,0.0,0.0,0.0,0.0,0.0,0.0,0.0,0.0,0.0,0.0,0.0,0.0,0.0,0.0,0.0,0.0,0.0,0.0,0.0,0.0,0.0,0.0,0.0,0.0,0.0,0.0,0.0,0.0,0.0,0.0,0.0,0.0,0.0,0.0,0.0,0.0,0.0,0.0,0.0,0.0,0.0,0.0,0.0,0.0,0.0,0.0,0.0,0.0,0.0,0.0,0.0,0.0,0.0,0.0,0.0,0.0,0.0,0.0,0.0,0.0,0.0,0.0,0.0,0.0,0.0,0.0,0.0,0.0,0.0,0.0,0.0,0.0,0.0,0.0,0.0,0.0,0.0,0.0,0.0,0.0,0.0,0.0,0.0,0.0,0.0,0.0,0.0,0.0,0.0,0.0,0.0,0.0,0.0,0.0,0.0,0.0,0.0,0.0,0.0,0.0,0.0,0.0,0.0,0.0,0.0,0.0,0.0,0.0,0.0,0.0,0.0,0.0,0.0,0.0,0.0,0.0,0.0,0.0,0.0,0.0,0.0,0.0,0.0,0.0,0.0,0.0,0.0,0.0,0.0,0.0,0.0,0.0,0.0,0.0,0.0,0.0,0.0,0.0,0.0,0.0,0.0,0.0,0.0,0.0,0.0,0.0,0.0,0.0,0.0,0.0,0.0,0.0,0.0,0.0,0.0,0.0,0.0,0.0,0.0,0.0,0.0,0.0,0.0,0.0,0.0,0.0,0.0,0.0,0.0,0.0,0.0,0.0,0.0,0.0,0.0,0.0,0.0,0.0,0.0,0.0,0.0,0.0,0.0,0.0,0.0,0.0,0.0,0.0,0.0,0.0,0.0,0.0,0.0,0.0,0.0,0.0,0.0,0.0,0.0,0.0,0.0,0.0,0.0,0.0,0.0,0.0,0.0,0.0,0.0,0.0,0.0,0.0,0.0,0.0,0.0,0.0,0.0,0.0,0.0,0.0,0.0,0.0,0.0,0.0,0.0,0.0,0.0,0.0,0.0,0.0,0.0,0.0,0.0,0.0,0.0,0.0,0.0,0.0,0.0,0.0,0.0,0.0,0.0,0.0,0.0,0.0,0.0,0.0,0.0,0.0,0.0,0.0,0.0,0.0,0.0,0.0,0.0,0.0,0.0,0.0,0.0,0.0,0.0,0.0,0.0,0.0,0.0,0.0,0.0,0.0,0.0,0.0,0.0,0.0,0.0,0.0,0.0,0.0,0.0,0.0,0.0,0.0,0.0,0.0,0.0,0.0,0.0,0.0,0.0,0.0,0.0,0.0,0.0,0.0,0.0,0.0,0.0,0.0,0.0,0.0,0.0,0.0,0.0,0.0,0.0,0.0,0.0,0.0,0.0,0.0,0.0,0.0,0.0,0.0,0.0,0.0,0.0,0.0,0.0,0.0,0.0,0.0,0.0,0.0,0.0,0.0,0.0,0.0,0.0,0.0,0.0,0.0,0.0,0.0,0.0,0.0,0.0,0.0,0.0,0.0,0.0,0.0,0.0,0.0,0.0,0.0,0.0,0.0,0.0,0.0,0.0,0.0,0.0,0.0,0.0,0.0,0.0,0.0,0.0,0.0,0.0,0.0,0.0,0.0,0.0,0.0,0.0,0.0,0.0,0.0,0.0,0.0,0.0,0.0,0.0,0.0,0.0,0.0,0.0,0.0,0.0,0.0,0.0,0.0,0.0,0.0,0.0,0.0,0.0,0.0,0.0,0.0,0.0,0.0,0.0,0.0,0.0,0.0,0.0,0.0,0.0,0.0,0.0,0.0,0.0,0.0,0.0,0.0,0.0,0.0,0.0,0.0,0.0,0.0,0.0,0.0,0.0,0.0,0.0,0.0,0.0,0.0,0.0,0.0,0.0,0.0,0.0,0.0,0.0,0.0,0.0,0.0,0.0,0.0,0.0,0.0,0.0,0.0,0.0,0.0,0.0,0.0,0.0,0.0,0.0,0.0,0.0,0.0,0.0,0.0,0.0,0.0,0.0,0.0,0.0,0.0,0.0,0.0,0.0,0.0,0.0,0.0,0.0,0.0,0.0,0.0,0.0,0.0,0.0,0.0,0.0,0.0,0.0,0.0,0.0,0.0,0.0,0.0,0.0,0.0,0.0,0.0,0.0,0.0,0.0,0.0,0.0,0.0,0.0,0.0,0.0,0.0,0.0,0.0,0.0,0.0,0.0,0.0,0.0,0.0,0.0,0.0,0.0,0.0,0.0,0.0,0.0,0.0,0.0,0.0,0.0,0.0,0.0,0.0,0.0,0.0,0.0,0.0,0.0,0.0,0.0,-5.0509,0.0,0.0,0.0,0.0,0.0,0.0,0.0,0.0,0.0,0.0,0.0,0.0,0.0,0.0,0.0,0.0,0.0,0.0,0.0,0.0,0.0,0.0,0.0,0.0,0.0,0.0,0.0,0.0,0.0,0.0,0.0,0.0,0.0,0.0,0.0,0.0,0.0,0.0,0.0,0.0,0.0,0.0,0.0,0.0,0.0,0.0,0.0,0.0,0.0,0.0,0.0,0.0,0.0,0.0,0.0,0.0,0.0,0.0,0.0,0.0,0.0,0.0,0.0,0.0,0.0,0.0,0.0,0.0,0.0,0.0,0.0,0.0,0.0,0.0,0.0,0.0,0.0,0.0,0.0,0.0,0.0,0.0,0.0,0.0,0.0,0.0,0.0,0.0,0.0,0.0,0.0,0.0,0.0,0.0,0.0,0.0,0.0,0.0,0.0,0.0,0.0,0.0,0.0,0.0,0.0,0.0,0.0,0.0,0.0,0.0,-5.083,-5.083,-5.114,-5.1305,-5.1304,0.0,0.0,0.0,0.0,0.0,0.0,0.0,0.0,0.0,0.0,0.0,0.0,0.0,0.0,0.0,0.0,0.0,0.0,0.0,0.0,0.0,0.0,0.0,0.0,0.0,0.0,0.0,0.0,0.0,0.0,0.0,0.0,0.0,0.0,0.0,0.0,0.0,0.0,0.0,0.0,0.0,0.0,0.0,0.0,0.0,0.0,0.0,0.0,0.0,0.0,0.0,0.0,0.0,0.0,0.0,0.0,0.0,0.0,0.0,0.0,0.0,0.0,0.0,0.0,0.0,0.0,0.0,0.0,0.0,0.0,0.0,0.0,0.0,0.0,0.0,0.0,0.0,0.0,0.0,0.0,0.0,0.0,0.0,0.0,0.0,0.0,0.0,0.0,0.0,0.0,0.0,0.0,0.0,0.0,0.0,0.0,0.0,0.0,0.0,0.0,0.0,0.0,0.0,0.0,0.0,0.0,0.0,0.0,0.0,0.0,0.0,0.0,-5.1747,-5.1951,-5.2,0.0,0.0,0.0,0.0,0.0,0.0,0.0,0.0,0.0,0.0,0.0,0.0,0.0,0.0,0.0,0.0,0.0,0.0,0.0,0.0,0.0,0.0,0.0,0.0,0.0,0.0,0.0,0.0,0.0,0.0,0.0,0.0,0.0,0.0,0.0,0.0,0.0,0.0,0.0,0.0,0.0,0.0,0.0,0.0,0.0,0.0,0.0,0.0,0.0,0.0,0.0,0.0,0.0,0.0,0.0,0.0,0.0,0.0,0.0,0.0,0.0,0.0,0.0,0.0,0.0,0.0,0.0,0.0,0.0,0.0,0.0,0.0,0.0,0.0,0.0,0.0,0.0,0.0,0.0,0.0,0.0,0.0,0.0,0.0,0.0,0.0,0.0,0.0,0.0,0.0,0.0,0.0,0.0,0.0,0.0,0.0,0.0,0.0,0.0,0.0,0.0,0.0,0.0,0.0,0.0,0.0,0.0,0.0,0.0,0.0,-5.2011,-5.2036,-5.2333,0.0,-5.2662,0.0,0.0,0.0,0.0,0.0,0.0,0.0,0.0,0.0,0.0,0.0,0.0,0.0,0.0,0.0,0.0,0.0,0.0,0.0,0.0,0.0,0.0,0.0,0.0,0.0,0.0,0.0,0.0,0.0,0.0,0.0,0.0,0.0,0.0,0.0,0.0,0.0,0.0,0.0,0.0,0.0,0.0,0.0,0.0,0.0,0.0,0.0,0.0,0.0,0.0,0.0,0.0,0.0,0.0,0.0,0.0,0.0,0.0,0.0,0.0,0.0,0.0,0.0,0.0,0.0,0.0,0.0,0.0,0.0,0.0,0.0,0.0,0.0,0.0,0.0,0.0,0.0,0.0,0.0,0.0,0.0,0.0,0.0,0.0,0.0,0.0,0.0,0.0,0.0,0.0,0.0,0.0,0.0,0.0,0.0,0.0,0.0,0.0,0.0,0.0,0.0,0.0,0.0,0.0,0.0,0.0,0.0,0.0,0.0,0.0,-5.2513,-5.2531,-5.2919,-5.3175,0.0,0.0,0.0,0.0,0.0,0.0,0.0,0.0,0.0,0.0,0.0,0.0,0.0,0.0,0.0,0.0,0.0,0.0,0.0,0.0,0.0,0.0,0.0,0.0,0.0,0.0,0.0,0.0,0.0,0.0,0.0,0.0,0.0,0.0,0.0,0.0,0.0,0.0,0.0,0.0,0.0,0.0,0.0,0.0,0.0,0.0,0.0,0.0,0.0,0.0,0.0,0.0,0.0,0.0,0.0,0.0,0.0,0.0,0.0,0.0,0.0,0.0,0.0,0.0,0.0,0.0,0.0,0.0,0.0,0.0,0.0,0.0,0.0,0.0,0.0,0.0,0.0,0.0,0.0,0.0,0.0,0.0,0.0,0.0,0.0,0.0,0.0,0.0,0.0,0.0,0.0,0.0,0.0,0.0,0.0,0.0,0.0,0.0,0.0,0.0,0.0,0.0,0.0,0.0,0.0,0.0,0.0,0.0,0.0,0.0,-5.2761,-5.3045,-5.3157,-5.3482,-5.3699,-5.3814,0.0,0.0,0.0,0.0,0.0,0.0,0.0,0.0,0.0,0.0,0.0,0.0,0.0,0.0,0.0,0.0,0.0,0.0,0.0,0.0,0.0,0.0,0.0,0.0,0.0,0.0,0.0,0.0,0.0,0.0,0.0,0.0,0.0,0.0,0.0,0.0,0.0,0.0,0.0,0.0,0.0,0.0,0.0,0.0,0.0,0.0,0.0,0.0,0.0,0.0,0.0,0.0,0.0,0.0,0.0,0.0,0.0,0.0,0.0,0.0,0.0,0.0,0.0,0.0,0.0,0.0,0.0,0.0,0.0,0.0,0.0,0.0,0.0,0.0,0.0,0.0,0.0,0.0,0.0,0.0,0.0,0.0,0.0,0.0,0.0,0.0,0.0,0.0,0.0,0.0,0.0,0.0,0.0,0.0,0.0,0.0,0.0,0.0,0.0,0.0,0.0,0.0,0.0,0.0,0.0,0.0,0.0,0.0,-5.2783,-5.3235,-5.3659,-5.4,-5.4054,-5.4181,0.0,0.0,0.0,0.0,0.0,0.0,0.0,0.0,0.0,0.0,0.0,0.0,0.0,0.0,0.0,0.0,0.0,0.0,0.0,0.0,0.0,0.0,0.0,0.0,0.0,0.0,0.0,0.0,0.0,0.0,0.0,0.0,0.0,0.0,0.0,0.0,0.0,0.0,0.0,0.0,0.0,0.0,0.0,0.0,0.0,0.0,0.0,0.0,0.0,0.0,0.0,0.0,0.0,0.0,0.0,0.0,0.0,0.0,0.0,0.0,0.0,0.0,0.0,0.0,0.0,0.0,0.0,0.0,0.0,0.0,0.0,0.0,0.0,0.0,0.0,0.0,0.0,0.0,0.0,0.0,0.0,0.0,0.0,0.0,0.0,0.0,0.0,0.0,0.0,0.0,0.0,0.0,0.0,0.0,0.0,0.0,0.0,0.0,0.0,0.0,0.0,0.0,0.0,0.0,0.0,0.0,0.0,0.0,0.0,-5.3238,-5.366,-5.4054,-5.4401,-5.4418,-5.4519,0.0,0.0,0.0,0.0,0.0,0.0,0.0,0.0,0.0,0.0,0.0,0.0,0.0,0.0,0.0,0.0,0.0,0.0,0.0,0.0,0.0,0.0,0.0,0.0,0.0,0.0,0.0,0.0,0.0,0.0,0.0,0.0,0.0,0.0,0.0,0.0,0.0,0.0,0.0,0.0,0.0,0.0,0.0,0.0,0.0,0.0,0.0,0.0,0.0,0.0,0.0,0.0,0.0,0.0,0.0,0.0,0.0,0.0,0.0,0.0,0.0,0.0,0.0,0.0,0.0,0.0,0.0,0.0,0.0,0.0,0.0,0.0,0.0,0.0,0.0,0.0,0.0,0.0,0.0,0.0,0.0,0.0,0.0,0.0,0.0,0.0,0.0,0.0,0.0,0.0,0.0,0.0,0.0,0.0,0.0,0.0,0.0,0.0,0.0,0.0,0.0,0.0,0.0,0.0,0.0,0.0,0.0,0.0,0.0,-5.3813,0.0,-5.4418,-5.4754,-5.475,-5.4844,0.0,0.0,0.0,0.0,0.0,0.0,0.0,0.0,0.0,0.0,0.0,0.0,0.0,0.0,0.0,0.0,0.0,0.0,0.0,0.0,0.0,0.0,0.0,0.0,0.0,0.0,0.0,0.0,0.0,0.0,0.0,0.0,0.0,0.0,0.0,0.0,0.0,0.0,0.0,0.0,0.0,0.0,0.0,0.0,0.0,0.0,0.0,0.0,0.0,0.0,0.0,0.0,0.0,0.0,0.0,0.0,0.0,0.0,0.0,0.0,0.0,0.0,0.0,0.0,0.0,0.0,0.0,0.0,0.0,0.0,0.0,0.0,0.0,0.0,0.0,0.0,0.0,0.0,0.0,0.0,0.0,0.0,0.0,0.0,0.0,0.0,0.0,0.0,0.0,0.0,0.0,0.0,0.0,0.0,0.0,0.0,0.0,0.0,0.0,0.0,0.0,0.0,0.0,0.0,0.0,0.0,0.0,0.0,-5.4036,-5.447,-5.4568,-5.475,-5.508,-5.5094,-5.5162,0.0,0.0,0.0,0.0,0.0,0.0,0.0,0.0,0.0,0.0,0.0,0.0,0.0,0.0,0.0,0.0,0.0,0.0,0.0,0.0,0.0,0.0,0.0,0.0,0.0,0.0,0.0,0.0,0.0,0.0,0.0,0.0,0.0,0.0,0.0,0.0,0.0,0.0,0.0,0.0,0.0,0.0,0.0,0.0,0.0,0.0,0.0,0.0,0.0,0.0,0.0,0.0,0.0,0.0,0.0,0.0,0.0,0.0,0.0,0.0,0.0,0.0,0.0,0.0,0.0,0.0,0.0,0.0,0.0,0.0,0.0,0.0,0.0,0.0,0.0,0.0,0.0,0.0,0.0,0.0,0.0,0.0,0.0,0.0,0.0,0.0,0.0,0.0,0.0,0.0,0.0,0.0,0.0,0.0,0.0,0.0,0.0,0.0,0.0,0.0,0.0,0.0,0.0,0.0,0.0,0.0,0.0,0.0,0.0,-5.4761,-5.4893,-5.5052,-5.5229,-5.5333,-5.542,0.0,0.0,0.0,0.0,0.0,0.0,0.0,0.0,0.0,0.0,0.0,0.0,0.0,0.0,0.0,0.0,0.0,0.0,0.0,0.0,0.0,0.0,0.0,0.0,0.0,0.0,0.0,0.0,0.0,0.0,0.0,0.0,0.0,0.0,0.0,0.0,0.0,0.0,0.0,0.0,0.0,0.0,0.0,0.0,0.0,0.0,0.0,0.0,0.0,0.0,0.0,0.0,0.0,0.0,0.0,0.0,0.0,0.0,0.0,0.0,0.0,0.0,0.0,0.0,0.0,0.0,0.0,0.0,0.0,0.0,0.0,0.0,0.0,0.0,0.0,0.0,0.0,0.0,0.0,0.0,0.0,0.0,0.0,0.0,0.0,0.0,0.0,0.0,0.0,0.0,0.0,0.0,0.0,0.0,0.0,0.0,0.0,0.0,0.0,0.0,0.0,0.0,0.0,0.0,0.0,0.0,0.0,0.0,0.0,-5.4642,-5.4983,-5.5268,-5.5444,-5.5527,-5.5607,-5.5703,0.0,0.0,0.0,0.0,0.0,0.0,0.0,0.0,0.0,0.0,0.0,0.0,0.0,0.0,0.0,0.0,0.0,0.0,0.0,0.0,0.0,0.0,0.0,0.0,0.0,0.0,0.0,0.0,0.0,0.0,0.0,0.0,0.0,0.0,0.0,0.0,0.0,0.0,0.0,0.0,0.0,0.0,0.0,0.0,0.0,0.0,0.0,0.0,0.0,0.0,0.0,0.0,0.0,0.0,0.0,0.0,0.0,0.0,0.0,0.0,0.0,0.0,0.0,0.0,0.0,0.0,0.0,0.0,0.0,0.0,0.0,0.0,0.0,0.0,0.0,0.0,0.0,0.0,0.0,0.0,0.0,0.0,0.0,0.0,0.0,0.0,0.0,0.0,0.0,0.0,0.0,0.0,0.0,0.0,0.0,0.0,0.0,0.0,0.0,0.0,0.0,0.0,0.0,0.0,0.0,0.0,0.0,0.0,-5.4149,-5.4823,-5.5329,-5.5684,-5.5724,-5.5776,0.0,0.0,0.0,0.0,0.0,0.0,0.0,0.0,0.0,0.0,0.0,0.0,0.0,0.0,0.0,0.0,0.0,0.0,0.0,0.0,0.0,0.0,0.0,0.0,0.0,0.0,0.0,0.0,0.0,0.0,0.0,0.0,0.0,0.0,0.0,0.0,0.0,0.0,0.0,0.0,0.0,0.0,0.0,0.0,0.0,0.0,0.0,0.0,0.0,0.0,0.0,0.0,0.0,0.0,0.0,0.0,0.0,0.0,0.0,0.0,0.0,0.0,0.0,0.0,0.0,0.0,0.0,0.0,0.0,0.0,0.0,0.0,0.0,0.0,0.0,0.0,0.0,0.0,0.0,0.0,0.0,0.0,0.0,0.0,0.0,0.0,0.0,0.0,0.0,0.0,0.0,0.0,0.0,0.0,0.0,0.0,0.0,0.0,0.0,0.0,0.0,0.0,0.0,0.0,0.0,0.0,0.0,0.0,0.0,-5.3456,-5.365,-5.4385,-5.5708,-5.5876,-5.5931,0.0,0.0,0.0,0.0,0.0,0.0,0.0,0.0,0.0,0.0,0.0,0.0,0.0,0.0,0.0,0.0,0.0,0.0,0.0,0.0,0.0,0.0,0.0,0.0,0.0,0.0,0.0,0.0,0.0,0.0,0.0,0.0,0.0,0.0,0.0,0.0,0.0,0.0,0.0,0.0,0.0,0.0,0.0,0.0,0.0,0.0,0.0,0.0,0.0,0.0,0.0,0.0,0.0,0.0,0.0,0.0,0.0,0.0,0.0,0.0,0.0,0.0,0.0,0.0,0.0,0.0,0.0,0.0,0.0,0.0,0.0,0.0,0.0,0.0,0.0,0.0,0.0,0.0,0.0,0.0,0.0,0.0,0.0,0.0,0.0,0.0,0.0,0.0,0.0,0.0,0.0,0.0,0.0,0.0,0.0,0.0,0.0,0.0,0.0,0.0,0.0,0.0,0.0,0.0,0.0,0.0,0.0,0.0,-5.2551,-5.2694,-5.3109,-5.3801,-5.4813,-5.4914,-5.4965,0.0,0.0,0.0,0.0,0.0,0.0,0.0,0.0,0.0,0.0,0.0,0.0,0.0,0.0,0.0,0.0,0.0,0.0,0.0,0.0,0.0,0.0,0.0,0.0,0.0,0.0,0.0,0.0,0.0,0.0,0.0,0.0,0.0,0.0,0.0,0.0,0.0,0.0,0.0,0.0,0.0,0.0,0.0,0.0,0.0,0.0,0.0,0.0,0.0,0.0,0.0,0.0,0.0,0.0,0.0,0.0,0.0,0.0,0.0,0.0,0.0,0.0,0.0,0.0,0.0,0.0,0.0,0.0,0.0,0.0,0.0,0.0,0.0,0.0,0.0,0.0,0.0,0.0,0.0,0.0,0.0,0.0,0.0,0.0,0.0,0.0,0.0,0.0,0.0,0.0,0.0,0.0,0.0,0.0,0.0,0.0,0.0,0.0,0.0,0.0,0.0,0.0,0.0,0.0,0.0,0.0,0.0,0.0,-5.1809,-5.1895,-5.2773,-5.3251,-5.3271,-5.3433,-5.3546,0.0,0.0,0.0,0.0,0.0,0.0,0.0,0.0,0.0,0.0,0.0,0.0,0.0,0.0,0.0,0.0,0.0,0.0,0.0,0.0,0.0,0.0,0.0,0.0,0.0,0.0,0.0,0.0,0.0,0.0,0.0,0.0,0.0,0.0,0.0,0.0,0.0,0.0,0.0,0.0,0.0,0.0,0.0,0.0,0.0,0.0,0.0,0.0,0.0,0.0,0.0,0.0,0.0,0.0,0.0,0.0,0.0,0.0,0.0,0.0,0.0,0.0,0.0,0.0,0.0,0.0,0.0,0.0,0.0,0.0,0.0,0.0,0.0,0.0,0.0,0.0,0.0,0.0,0.0,0.0,0.0,0.0,0.0,0.0,0.0,0.0,0.0,0.0,0.0,0.0,0.0,0.0,0.0,0.0,0.0,0.0,0.0,0.0,0.0,0.0,0.0,0.0,0.0,0.0,0.0,0.0,0.0,0.0,-5.1008,-5.1148,-5.1386,-5.1569,-5.1612,-5.2944,-5.3668,0.0,0.0,0.0,0.0,0.0,0.0,0.0,0.0,0.0,0.0,0.0,0.0,0.0,0.0,0.0,0.0,0.0,0.0,0.0,0.0,0.0,0.0,0.0,0.0,0.0,0.0,0.0,0.0,0.0,0.0,0.0,0.0,0.0,0.0,0.0,0.0,0.0,0.0,0.0,0.0,0.0,0.0,0.0,0.0,0.0,0.0,0.0,0.0,-5.0805,0.0,0.0,0.0,0.0,0.0,0.0,0.0,0.0,0.0,0.0,0.0,0.0,0.0,0.0,0.0,0.0,0.0,0.0,0.0,0.0,0.0,0.0,0.0,0.0,0.0,0.0,0.0,0.0,0.0,0.0,0.0,0.0,0.0,0.0,0.0,0.0,0.0,0.0,0.0,0.0,0.0,0.0,0.0,0.0,0.0,0.0,0.0,0.0,0.0,0.0,0.0,0.0,0.0,0.0,0.0,0.0,0.0,0.0,0.0,-5.0833,-5.0898,-5.1,-5.1063,-5.1134,-5.202,-5.2537,0.0,0.0,0.0,0.0,0.0,0.0,0.0,0.0,0.0,0.0,0.0,0.0,0.0,0.0,0.0,0.0,0.0,0.0,0.0,0.0,0.0,0.0,0.0,0.0,0.0,0.0,0.0,0.0,0.0,0.0,0.0,0.0,0.0,0.0,0.0,0.0,0.0,0.0,0.0,0.0,0.0,0.0,0.0,0.0,0.0,0.0,0.0,0.0,0.0,0.0,0.0,0.0,0.0,0.0,0.0,0.0,0.0,0.0,0.0,0.0,0.0,0.0,0.0,0.0,0.0,0.0,0.0,0.0,0.0,0.0,0.0,0.0,0.0,0.0,0.0,0.0,0.0,0.0,0.0,0.0,0.0,0.0,0.0,0.0,0.0,0.0,0.0,0.0,0.0,0.0,0.0,0.0,0.0,0.0,0.0,0.0,0.0,0.0,0.0,0.0,0.0,0.0,0.0,0.0,0.0,0.0,0.0,-5.0797,-5.0906,-5.0941,-5.1042,-5.1121,-5.1121,-5.1171,-5.1202,-5.1202,0.0,0.0,0.0,0.0,0.0,0.0,0.0,0.0,0.0,0.0,0.0,0.0,0.0,0.0,0.0,0.0,0.0,0.0,0.0,0.0,0.0,0.0,0.0,0.0,0.0,0.0,0.0,0.0,0.0,0.0,0.0,0.0,0.0,0.0,0.0,0.0,0.0,0.0,-4.9759,-5.0044,0.0,0.0,0.0,0.0,0.0,0.0,0.0,0.0,-5.1027,0.0,0.0,0.0,0.0,0.0,0.0,0.0,0.0,0.0,0.0,0.0,0.0,0.0,0.0,0.0,0.0,0.0,0.0,0.0,0.0,0.0,0.0,0.0,0.0,0.0,0.0,0.0,0.0,0.0,0.0,0.0,0.0,0.0,0.0,0.0,0.0,0.0,0.0,0.0,0.0,0.0,0.0,0.0,0.0,0.0,0.0,0.0,0.0,0.0,0.0,0.0,0.0,0.0,0.0,0.0,0.0,-5.0756,-5.085,-5.0956,-5.108,-5.1089,-5.1127,-5.1171,-5.1196,-5.1202,-5.1202,0.0,0.0,0.0,0.0,0.0,0.0,0.0,0.0,0.0,0.0,0.0,0.0,0.0,0.0,0.0,0.0,0.0,0.0,0.0,0.0,0.0,0.0,0.0,0.0,0.0,0.0,0.0,0.0,0.0,0.0,0.0,0.0,0.0,0.0,0.0,0.0,0.0,0.0,0.0,-5.0236,-5.034,0.0,0.0,0.0,0.0,0.0,0.0,0.0,0.0,-5.1114,0.0,0.0,0.0,0.0,0.0,0.0,0.0,0.0,0.0,0.0,0.0,0.0,0.0,0.0,0.0,0.0,0.0,0.0,0.0,0.0,0.0,0.0,0.0,0.0,0.0,0.0,0.0,0.0,0.0,0.0,0.0,0.0,0.0,0.0,0.0,0.0,0.0,0.0,0.0,0.0,0.0,0.0,0.0,0.0,0.0,0.0,0.0,0.0,0.0,0.0,0.0,0.0,0.0,0.0,0.0,-5.0801,-5.0945,-5.102,-5.1081,-5.1134,-5.1165,-5.1202,-5.1202,-5.1202,0.0,0.0,0.0,0.0,0.0,0.0,0.0,0.0,0.0,0.0,0.0,0.0,0.0,0.0,0.0,0.0,0.0,0.0,0.0,0.0,0.0,0.0,0.0,0.0,0.0,0.0,0.0,0.0,0.0,0.0,0.0,0.0,0.0,0.0,0.0,0.0,0.0,0.0,0.0,0.0,-5.0396,-5.0495,-5.0596,0.0,0.0,0.0,0.0,0.0,0.0,-5.1114,-5.1171,0.0,0.0,0.0,0.0,0.0,0.0,0.0,0.0,0.0,0.0,0.0,0.0,0.0,0.0,0.0,0.0,0.0,0.0,0.0,0.0,0.0,0.0,0.0,0.0,0.0,0.0,0.0,0.0,0.0,0.0,0.0,0.0,0.0,0.0,0.0,0.0,0.0,0.0,0.0,0.0,0.0,0.0,0.0,0.0,0.0,0.0,0.0,0.0,0.0,0.0,0.0,0.0,0.0,0.0,0.0,-5.0819,-5.099,-5.1081,-5.1101,-5.1166,-5.1202,-5.1202,-5.1202,-5.1202,0.0,0.0,0.0,0.0,0.0,0.0,0.0,0.0,0.0,0.0,0.0,0.0,0.0,0.0,0.0,0.0,0.0,0.0,0.0,0.0,0.0,0.0,0.0,0.0,0.0,0.0,0.0,0.0,0.0,0.0,0.0,0.0,0.0,0.0,0.0,0.0,0.0,0.0,0.0,0.0,0.0,-5.0625,-5.0644,-5.0797,0.0,0.0,0.0,0.0,-5.1127,-5.1171,0.0,0.0,0.0,0.0,0.0,0.0,0.0,0.0,0.0,0.0,0.0,0.0,0.0,0.0,0.0,0.0,0.0,0.0,0.0,0.0,0.0,0.0,0.0,0.0,0.0,0.0,0.0,0.0,0.0,0.0,0.0,0.0,0.0,0.0,0.0,0.0,0.0,0.0,0.0,0.0,0.0,0.0,0.0,0.0,0.0,0.0,0.0,0.0,0.0,0.0,0.0,0.0,0.0,0.0,0.0,0.0,-5.0899,-5.1017,-5.1081,-5.1101,-5.1166,-5.1202,-5.1202,-5.1202,-5.1202,0.0,0.0,0.0,0.0,0.0,0.0,0.0,0.0,0.0,0.0,0.0,0.0,0.0,0.0,0.0,0.0,0.0,0.0,0.0,0.0,0.0,0.0,0.0,0.0,0.0,0.0,0.0,0.0,0.0,0.0,0.0,0.0,0.0,0.0,0.0,0.0,0.0,0.0,0.0,0.0,0.0,-5.0673,-5.083,-5.0871,-5.0937,0.0,0.0,-5.1127,-5.1171,-5.1186,0.0,0.0,0.0,0.0,0.0,0.0,0.0,0.0,0.0,0.0,0.0,0.0,0.0,0.0,0.0,0.0,0.0,0.0,0.0,0.0,0.0,0.0,0.0,0.0,0.0,0.0,0.0,0.0,0.0,0.0,0.0,0.0,0.0,0.0,0.0,0.0,0.0,0.0,0.0,0.0,0.0,0.0,0.0,0.0,0.0,0.0,0.0,0.0,0.0,0.0,0.0,0.0,0.0,0.0,0.0,-5.0838,-5.0899,-5.0983,-5.106,-5.1094,-5.1128,-5.1145,-5.1202,-5.1202,-5.1202,0.0,0.0,0.0,0.0,0.0,0.0,0.0,0.0,0.0,0.0,0.0,0.0,0.0,0.0,0.0,0.0,0.0,0.0,0.0,0.0,0.0,0.0,0.0,0.0,0.0,0.0,0.0,0.0,0.0,0.0,0.0,0.0,0.0,0.0,0.0,0.0,0.0,0.0,0.0,0.0,0.0,0.0,-5.089,-5.0963,0.0,0.0,0.0,-5.1177,-5.1206,0.0,0.0,0.0,0.0,0.0,0.0,0.0,0.0,0.0,0.0,0.0,0.0,0.0,0.0,0.0,0.0,0.0,0.0,0.0,0.0,0.0,0.0,0.0,0.0,0.0,0.0,0.0,0.0,0.0,0.0,0.0,0.0,0.0,0.0,0.0,0.0,0.0,0.0,0.0,0.0,0.0,0.0,0.0,0.0,0.0,0.0,0.0,0.0,0.0,0.0,0.0,0.0,0.0,0.0,0.0,0.0,0.0,-5.0899,-5.0968,-5.102,-5.1067,-5.1082,-5.1114,-5.1178,-5.1178,0.0,0.0,0.0,0.0,0.0,0.0,0.0,0.0,0.0,0.0,0.0,0.0,0.0,0.0,0.0,0.0,0.0,0.0,0.0,0.0,0.0,0.0,0.0,0.0,0.0,0.0,0.0,-4.9893,0.0,0.0,0.0,0.0,0.0,0.0,0.0,0.0,0.0,0.0,0.0,0.0,0.0,0.0,-5.0913,-5.0941,-5.1034,-5.1127,0.0,0.0,-5.1214,-5.1208,-5.1219,-5.1215,0.0,0.0,0.0,0.0,0.0,0.0,0.0,0.0,0.0,0.0,0.0,0.0,0.0,0.0,0.0,0.0,0.0,0.0,0.0,0.0,0.0,0.0,0.0,0.0,0.0,0.0,0.0,0.0,0.0,0.0,0.0,0.0,0.0,0.0,0.0,0.0,0.0,0.0,0.0,0.0,0.0,0.0,0.0,0.0,0.0,0.0,0.0,0.0,0.0,0.0,0.0,0.0,0.0,0.0,0.0,-5.0899,-5.0968,-5.0986,-5.1012,-5.1067,-5.1101,-5.1127,-5.1127,-5.1107,0.0,0.0,0.0,0.0,0.0,0.0,0.0,0.0,0.0,0.0,0.0,0.0,0.0,0.0,0.0,0.0,0.0,0.0,0.0,0.0,0.0,0.0,0.0,0.0,0.0,0.0,0.0,0.0,0.0,0.0,0.0,0.0,0.0,0.0,0.0,0.0,0.0,0.0,0.0,0.0,0.0,-5.0941,-5.108,-5.1089,-5.1127,0.0,0.0,-5.1214,-5.1208,-5.121,-5.1215,-5.1287,0.0,0.0,0.0,0.0,0.0,0.0,0.0,0.0,0.0,0.0,0.0,0.0,0.0,0.0,0.0,0.0,0.0,0.0,0.0,0.0,0.0,0.0,0.0,0.0,0.0,0.0,0.0,0.0,0.0,0.0,0.0,0.0,0.0,0.0,0.0,0.0,0.0,0.0,0.0,0.0,0.0,0.0,0.0,0.0,0.0,0.0,0.0,0.0,0.0,0.0,0.0,0.0,0.0,-5.0819,-5.0899,-5.0937,-5.0963,-5.0986,-5.102,-5.1053,-5.1101,-5.1081,-5.1081,0.0,0.0,0.0,0.0,0.0,0.0,0.0,0.0,0.0,0.0,0.0,0.0,0.0,0.0,0.0,0.0,0.0,0.0,0.0,0.0,0.0,0.0,0.0,0.0,0.0,0.0,0.0,0.0,-4.9939,-4.9992,-5.0095,0.0,0.0,0.0,0.0,0.0,0.0,0.0,0.0,0.0,0.0,-5.0998,-5.1087,-5.1095,0.0,0.0,-5.122,-5.1203,-5.121,-5.124,-5.1263,-5.1304,-5.1296,0.0,0.0,0.0,0.0,0.0,0.0,0.0,0.0,0.0,0.0,0.0,0.0,0.0,0.0,0.0,0.0,0.0,0.0,0.0,0.0,0.0,0.0,0.0,0.0,0.0,0.0,0.0,0.0,0.0,0.0,0.0,0.0,0.0,0.0,0.0,0.0,0.0,0.0,0.0,0.0,0.0,0.0,0.0,0.0,0.0,0.0,0.0,0.0,0.0,0.0,0.0,0.0,-5.0793,-5.0838,-5.0877,-5.0937,-5.0968,-5.0963,-5.0998,-5.102,-5.1032,-5.1051,0.0,0.0,0.0,0.0,0.0,0.0,0.0,0.0,0.0,0.0,0.0,0.0,0.0,0.0,0.0,0.0,0.0,0.0,0.0,0.0,0.0,0.0,0.0,0.0,0.0,0.0,0.0,0.0,-4.992,-4.9986,-5.0101,0.0,0.0,0.0,0.0,0.0,0.0,0.0,0.0,0.0,0.0,-5.1053,-5.1094,-5.1121,-5.1159,-5.1196,-5.1211,-5.1219,-5.1206,-5.1273,-5.1295,-5.1296,0.0,0.0,0.0,0.0,0.0,0.0,0.0,0.0,0.0,0.0,0.0,0.0,0.0,0.0,0.0,0.0,0.0,0.0,0.0,0.0,0.0,0.0,0.0,0.0,0.0,0.0,0.0,0.0,0.0,0.0,0.0,0.0,0.0,0.0,0.0,0.0,0.0,0.0,0.0,0.0,0.0,0.0,0.0,0.0,0.0,0.0,0.0,0.0,0.0,0.0,0.0,0.0,0.0,0.0,-5.072,-5.0838,-5.0899,-5.0908,-5.0901,-5.0917,-5.0917,-5.0905,-5.0908,-5.0908,0.0,0.0,0.0,0.0,0.0,0.0,0.0,0.0,0.0,0.0,0.0,0.0,0.0,0.0,0.0,0.0,0.0,0.0,0.0,0.0,0.0,0.0,0.0,0.0,0.0,0.0,-4.9874,-4.9999,-5.012,0.0,0.0,0.0,0.0,0.0,0.0,0.0,0.0,0.0,0.0,-5.0968,-5.1094,-5.1094,-5.116,-5.1196,-5.1202,-5.1211,-5.12,-5.1206,-5.1254,-5.1295,0.0,0.0,0.0,0.0,0.0,0.0,0.0,0.0,0.0,0.0,0.0,0.0,0.0,0.0,0.0,0.0,0.0,0.0,0.0,0.0,0.0,0.0,0.0,0.0,0.0,0.0,0.0,-4.882,-4.882,0.0,0.0,0.0,0.0,0.0,0.0,0.0,0.0,0.0,0.0,0.0,-4.9228,-4.9308,0.0,0.0,0.0,0.0,0.0,0.0,0.0,0.0,0.0,0.0,0.0,0.0,-5.0664,-5.0701,-5.0784,-5.0838,-5.0838,-5.0836,-5.0825,-5.0844,-5.0846,-5.0838,-5.0838,0.0,0.0,0.0,0.0,0.0,0.0,0.0,0.0,0.0,0.0,0.0,0.0,0.0,0.0,0.0,0.0,0.0,0.0,0.0,0.0,0.0,0.0,0.0,0.0,0.0,-4.8458,0.0,0.0,0.0,0.0,0.0,0.0,0.0,0.0,0.0,0.0,0.0,-5.0821,-5.0821,-5.0968,-5.1081,-5.1081,-5.116,-5.1202,0.0,0.0,0.0,0.0,0.0,0.0,0.0,0.0,0.0,0.0,0.0,0.0,0.0,0.0,-5.14,-5.1396,-5.1388,-5.1398,-5.1389,0.0,0.0,0.0,0.0,0.0,0.0,0.0,0.0,0.0,0.0,0.0,0.0,0.0,0.0,0.0,0.0,-4.8624,0.0,0.0,0.0,0.0,0.0,0.0,0.0,0.0,-4.9062,-4.9096,-4.9096,-4.9211,-4.9276,0.0,-4.9464,-4.9604,0.0,0.0,0.0,0.0,0.0,0.0,0.0,0.0,-5.0586,-5.0625,-5.0692,-5.0729,-5.0729,-5.0747,-5.0775,-5.0775,-5.0739,-5.073,-5.0702,-5.0413,-5.0221,0.0,0.0,0.0,0.0,0.0,0.0,0.0,0.0,0.0,0.0,0.0,0.0,0.0,0.0,0.0,0.0,0.0,0.0,0.0,0.0,0.0,0.0,0.0,-4.8073,0.0,0.0,0.0,0.0,0.0,0.0,0.0,0.0,0.0,-5.05,-5.0673,-5.0821,-5.0821,-5.096,-5.1081,-5.1081,0.0,0.0,0.0,0.0,0.0,0.0,0.0,-5.1295,-5.1308,-5.1296,-5.13,-5.13,-5.13,-5.1308,-5.131,0.0,0.0,-5.1396,-5.1388,-5.1398,-5.1391,-5.1396,-5.1402,-5.1387,-5.1386,-5.1399,0.0,0.0,0.0,0.0,0.0,0.0,0.0,0.0,-4.8287,-4.8287,0.0,-4.8438,0.0,0.0,0.0,0.0,0.0,0.0,0.0,0.0,-4.8821,-4.8891,-4.8909,-4.9096,-4.9228,-4.9308,-4.9368,-4.9464,-4.9589,-4.9769,0.0,0.0,0.0,0.0,0.0,0.0,-5.05,-5.0511,-5.0576,-5.0606,-5.0606,-5.0673,-5.0673,-5.0634,-5.0538,-5.0438,-5.0396,-4.959,-4.9149,-4.9139,-4.8429,0.0,0.0,0.0,0.0,0.0,0.0,0.0,0.0,0.0,0.0,0.0,0.0,0.0,0.0,0.0,0.0,0.0,0.0,0.0,0.0,-4.8117,0.0,0.0,0.0,0.0,0.0,0.0,0.0,0.0,0.0,0.0,-5.05,-5.0673,-5.0801,-5.0821,0.0,0.0,0.0,0.0,-5.1202,-5.1202,-5.1206,-5.1208,-5.1208,-5.1254,-5.1306,-5.1306,0.0,0.0,-5.13,-5.13,-5.1308,-5.1307,-5.1343,-5.14,-5.1394,-5.1386,-5.14,-5.1396,-5.1398,-5.1402,-5.1386,-5.1402,-5.1395,-4.8723,0.0,0.0,0.0,0.0,-4.8201,-4.8092,-4.8092,-4.8073,-4.8092,-4.8092,-4.813,0.0,0.0,0.0,0.0,0.0,0.0,-4.8532,-4.8532,-4.8642,-4.8732,-4.884,-4.8926,-4.9047,-4.9166,-4.9295,-4.9368,-4.9464,-4.96,-4.9759,-4.9939,0.0,0.0,0.0,0.0,-5.0393,-5.05,-5.0513,-5.0534,-5.0534,-5.0563,-5.0247,-4.9643,-4.8996,-4.8667,-4.8645,-4.8345,-4.8168,-4.8124,-4.7895,0.0,0.0,0.0,0.0,0.0,0.0,0.0,0.0,0.0,0.0,0.0,0.0,0.0,0.0,0.0,0.0,0.0,0.0,0.0,-4.554,-4.6897,-4.7789,0.0,0.0,0.0,0.0,0.0,0.0,0.0,0.0,0.0,-5.0481,-5.0635,-5.0757,0.0,0.0,-5.0998,-5.1087,-5.1121,-5.1159,-5.1177,0.0,0.0,0.0,-5.1205,-5.124,-5.124,-5.1263,-5.1304,-5.1296,-5.13,-5.13,-5.1308,-5.1307,-5.1343,-5.14,-5.1401,-5.14,-5.1395,-5.1398,-5.1384,-5.1384,-5.1399,-5.1393,-4.7738,-4.8397,-4.7925,-4.7726,-4.7726,-4.7726,-4.7726,-4.7708,-4.7708,-4.7747,-4.7747,-4.7788,-4.7806,-4.7809,-4.7972,0.0,0.0,0.0,-4.8305,-4.8323,-4.842,-4.8366,-4.8144,-4.825,-4.8224,-4.8083,-4.8161,-4.8255,-4.8328,-4.8487,-4.8639,-4.8782,0.0,0.0,-4.9643,-4.9368,-4.9266,-4.9354,-4.9357,-4.9387,-4.9387,-4.9387,-4.9119,-4.8581,-4.807,-4.7769,-4.7747,-4.7377,-4.7178,-4.7101,-4.6777,-4.6342,0.0,0.0,0.0,0.0,0.0,0.0,0.0,0.0,0.0,0.0,0.0,-4.4719,0.0,0.0,0.0,0.0,-4.4667,-4.4706,-4.4764,-4.6315,0.0,0.0,0.0,0.0,0.0,0.0,0.0,-5.0207,-5.029,-5.0371,-5.0457,-5.0575,-5.0692,-5.0784,-5.085,-5.0941,-5.1053,0.0,-5.1121,-5.1139,-5.1171,-5.1208,-5.1206,-5.1203,-5.12,-5.1206,-5.1244,-5.1282,-5.1304,-5.1308,-5.1312,-5.13,-5.13,-5.1317,-5.1346,-5.1391,-5.1396,-5.1395,-5.1398,-5.1384,-5.1402,-5.1398,-5.1391,-4.7205,-4.7276,-4.7298,-4.728,-4.7298,-4.7298,-4.732,-4.7298,-4.732,-4.7298,-4.7302,-4.7428,-4.749,-4.7511,-4.7687,0.0,0.0,-4.7897,-4.7862,-4.7901,-4.8024,-4.7718,-4.7022,-4.7186,-4.6995,-4.6479,-4.6477,-4.6557,-4.6713,-4.6904,-4.6974,-4.7007,-4.7956,-4.8488,-4.8547,-4.7915,-4.7577,-4.7577,-4.7674,-4.7678,-4.769,-4.7632,-4.754,-4.7493,-4.7405,-4.7331,-4.7263,-4.6555,-4.6126,-4.6057,-4.5287,-4.4833,-4.477,0.0,0.0,0.0,0.0,0.0,0.0,0.0,0.0,0.0,0.0,0.0,0.0,0.0,0.0,0.0,-4.4659,0.0,-4.4793,-4.6293,0.0,0.0,0.0,-4.9925,-4.9992,-4.9986,-5.0057,-5.0163,0.0,0.0,-5.039,0.0,-5.0634,-5.0766,-5.0841,-5.0925,-5.0998,-5.1062,-5.1089,-5.1114,-5.1153,-5.1171,-5.1196,-5.1206,-5.1214,-5.122,-5.1206,-5.1215,-5.1258,-5.1287,-5.1295,-5.1292,-5.1292,-5.131,-5.131,-5.1358,-5.1386,-5.1393,-5.1397,-5.1384,-5.1384,-5.1399,-5.1391,-4.6957,-4.707,-4.707,-4.7143,-4.7298,-4.7298,-4.7298,-4.7298,-4.7298,-4.7298,-4.7302,-4.7341,-4.7341,-4.7363,-4.7389,-4.7432,-4.7457,-4.6946,-4.6757,-4.6821,-4.6382,-4.6136,-4.6122,-4.6232,-4.6248,-4.6205,-4.6305,-4.6405,-4.6557,-4.665,-4.671,-4.6768,-4.6475,-4.6774,-4.7602,-4.7452,-4.739,-4.7454,-4.7466,-4.7479,-4.7479,-4.6878,-4.6543,-4.6518,-4.5824,-4.5445,-4.5433,-4.516,-4.5,-4.4974,-4.4732,-4.4578,-4.4584,-4.4565,0.0,0.0,0.0,0.0,0.0,0.0,0.0,0.0,0.0,-4.4592,-4.4524,0.0,-4.4528,0.0,-4.4578,-4.4877,-4.548,-4.6547,0.0,0.0,-4.9215,-4.9843,-4.9906,-4.9959,-5.0018,-5.0038,-5.0158,-5.0255,-5.0314,-5.0401,-5.0492,-5.0625,-5.0736,-5.0852,-5.0925,-5.0966,-5.1041,-5.1088,-5.1101,-5.1115,-5.1127,-5.1177,-5.1206,-5.1214,-5.12,-5.121,-5.1215,-5.122,-5.1249,-5.1291,-5.13,-5.1296,-5.1307,-5.132,-5.1341,-5.1375,-5.1391,-5.1402,-5.1387,-5.1384,-5.1394,-4.6772,-4.6819,-4.6819,-4.6893,-4.7007,-4.712,-4.7165,-4.7165,-4.7165,-4.7165,-4.7183,-4.7147,-4.7205,-4.7249,-4.7249,-4.7114,-4.678,-4.6431,-4.6098,-4.5818,-4.5508,-4.5247,-4.5037,-4.5149,-4.5077,-4.4872,-4.4993,-4.5095,-4.5197,-4.5329,-4.5409,-4.5438,-4.5114,-4.523,-4.5853,-4.6016,-4.611,-4.6163,-4.6189,-4.617,-4.6144,-4.5715,-4.5462,-4.5436,-4.4963,-4.4659,-4.4613,-4.4551,-4.4496,-4.4468,-4.4364,-4.4321,-4.4321,-4.4292,-4.4248,0.0,0.0,0.0,0.0,0.0,0.0,0.0,0.0,0.0,0.0,0.0,-4.443,0.0,-4.4482,-4.4843,-4.5679,-4.661,-4.7495,-4.8391,-4.9245,-4.9778,-4.9862,-4.9903,-4.9939,-4.9992,-5.005,-5.0139,-5.0224,-5.0333,-5.0393,-5.0485,-5.0616,-5.0747,-5.0852,-5.0917,-5.0983,-5.1005,-5.1073,-5.1088,-5.1089,-5.1147,-5.1172,-5.1144,-5.115,-5.1167,-5.1205,-5.121,-5.1201,-5.1244,-5.1254,-5.1263,-5.13,-5.1296,-5.1314,-5.1344,-5.1375,-5.1396,-5.1386,-5.1386,-5.1401,-4.6572,-4.6613,-4.6613,-4.6613,-4.6631,-4.6865,-4.6934,-4.6957,-4.6934,-4.6934,-4.6934,-4.6952,-4.702,-4.7111,-4.7026,-4.6681,-4.6123,-4.5929,-4.5479,-4.4836,-4.4834,-4.452,-4.3912,-4.4046,-4.3815,-4.3268,-4.3392,-4.3496,-4.358,-4.3749,-4.3832,-4.3865,-4.3971,-4.4048,-4.4064,-4.4364,-4.4524,-4.4551,-4.46,-4.46,-4.4584,-4.4551,-4.451,-4.444,-4.444,-4.4411,-4.4354,-4.434,-4.4314,-4.4237,-4.4128,-4.4064,-4.4064,-4.4005,-4.3974,0.0,-4.3974,0.0,0.0,0.0,0.0,0.0,0.0,0.0,0.0,-4.4318,-4.431,-4.4383,-4.4476,-4.4884,-4.5729,-4.668,-4.755,-4.8355,-4.9167,-4.9692,-4.9778,-4.9792,-4.983,-4.9946,-4.9978,-5.0044,-5.0151,-5.0243,-5.0302,-5.0382,-5.0464,-5.0596,-5.0729,-5.0844,-5.0882,-5.089,-5.099,-5.1046,-5.106,-5.1087,-5.1107,-5.1082,-5.1095,-5.1114,-5.1181,-5.1197,-5.1189,-5.1171,-5.1201,-5.1215,-5.1278,-5.128,-5.13,-5.1307,-5.1344,-5.1377,-5.1402,-5.1386,-5.1386,-4.6518,-4.659,-4.6613,-4.6613,-4.6613,-4.6661,-4.6661,-4.6661,-4.6684,-4.6684,-4.6684,-4.6684,-4.6684,-4.6672,-4.6143,-4.5833,-4.5641,-4.4521,-4.3963,-4.385,-4.3279,-4.2983,-4.2902,-4.3019,-4.3044,-4.2994,-4.3105,-4.3233,-4.3355,-4.339,-4.3512,-4.3647,-4.3697,-4.3749,-4.3851,0.0,0.0,0.0,-4.4373,-4.4373,-4.4358,-4.4248,-4.4199,-4.417,-4.4109,0.0,-4.4067,-4.402,-4.3992,-4.3961,-4.3899,0.0,0.0,0.0,0.0,0.0,0.0,0.0,0.0,0.0,0.0,0.0,-4.3902,-4.4011,-4.427,-4.4318,-4.43,-4.4333,-4.4913,-4.5623,-4.6442,-4.7302,-4.8203,-4.9077,-4.9352,-4.954,-4.9673,-4.9707,-4.975,-4.9835,-4.9885,-4.9933,-5.0025,-5.0095,-5.0182,-5.0271,-5.0329,-5.0396,-5.0534,-5.0711,-5.0799,-5.0827,-5.0888,-5.0929,-5.0941,-5.099,-5.1039,-5.1081,-5.1088,-5.1095,-5.1115,-5.1121,-5.1126,-5.1136,-5.1159,-5.1205,-5.123,-5.122,-5.1239,-5.1296,-5.1316,-5.1343,-5.1398,-5.1402,-5.1387,-4.6196,0.0,-4.6301,-4.6326,0.0,-4.6416,-4.6398,-4.6416,-4.6542,-4.6613,-4.6613,-4.6613,-4.6419,-4.6041,-4.5703,-4.5106,-4.4325,-4.3628,-4.312,-4.2792,-4.2463,-4.2366,-4.245,-4.2606,-4.2704,-4.2747,-4.288,-4.2975,-4.305,-4.3142,-4.325,-4.3375,-4.3426,-4.3478,-4.3566,-4.3667,-4.3865,-4.4147,-4.4162,-4.4131,-4.4104,-4.402,-4.3955,-4.3857,0.0,0.0,0.0,0.0,0.0,0.0,0.0,0.0,0.0,0.0,0.0,-4.3516,-4.3497,-4.3515,-4.3548,-4.3566,-4.3565,-4.3634,-4.3634,-4.3769,-4.4026,-4.4042,-4.424,-4.4662,-4.5071,-4.5829,-4.7101,-4.7641,-4.8266,-4.918,-4.9308,-4.9337,-4.948,-4.9525,-4.9585,-4.9692,-4.9745,-4.983,-4.9939,-4.9978,-5.0057,-5.0182,-5.0231,-5.0278,-5.0359,-5.0554,-5.0721,-5.0729,-5.0775,-5.0791,-5.0852,-5.0877,-5.0929,-5.0987,-5.101,-5.1032,-5.1046,-5.1081,-5.1095,-5.1089,-5.1146,-5.1157,-5.1159,-5.1169,-5.1185,-5.1234,-5.1284,-5.1308,-5.1352,-5.1377,-5.1401,-4.5889,-4.5972,-4.5947,-4.6023,-4.6122,-4.614,-4.6122,-4.6147,0.0,0.0,0.0,-4.6401,-4.5994,-4.5428,-4.5145,-4.4319,-4.3098,-4.2957,-4.2589,-4.2005,-4.2055,-4.2142,-4.2264,-4.2382,-4.2463,-4.253,-4.2609,-4.2706,-4.2745,-4.2899,-4.2993,-4.3049,-4.316,-4.3214,-4.3232,-4.3321,-4.3512,-4.3795,-4.3876,-4.3897,-4.3832,-4.3798,-4.3716,-4.3545,-4.3529,-4.3478,-4.341,-4.3392,-4.3392,-4.3392,-4.3303,-4.3232,-4.325,-4.3178,-4.3142,-4.316,-4.316,-4.3178,-4.3232,-4.3232,-4.3286,-4.3392,-4.341,-4.3497,-4.3719,-4.3884,-4.4249,-4.4979,-4.531,-4.6118,-4.7568,-4.7863,-4.8267,-4.9057,-4.9131,-4.9162,-4.9241,-4.9305,-4.9368,-4.951,-4.9604,-4.9688,-4.983,-4.9857,-4.9912,-5.0018,-5.0082,-5.0158,-5.0207,-5.0393,-5.0594,-5.0654,-5.0673,-5.0692,-5.0748,-5.0757,-5.0784,-5.0874,-5.0869,-5.0882,-5.0948,-5.1024,-5.1066,-5.1041,-5.106,-5.1082,-5.1094,-5.0932,-5.0897,-5.0952,-5.0879,-5.0832,-5.0852,-5.0878,-5.0963,-4.5795,-4.5821,-4.5821,-4.5863,-4.5846,-4.5846,-4.5863,-4.5889,-4.6147,-4.6246,-4.6193,-4.5585,-4.5251,-4.5099,-4.3837,-4.316,-4.2895,-4.2383,-4.2094,0.0,-4.2005,-4.2026,-4.2048,-4.2069,-4.2115,-4.2184,-4.2187,-4.229,-4.2452,-4.2492,-4.2609,-4.2822,-4.286,-4.2899,-4.2939,-4.2976,-4.3013,-4.3069,-4.341,-4.3565,-4.3548,-4.3443,-4.3355,-4.3338,-4.3214,-4.3178,-4.3142,-4.3031,-4.2994,-4.2976,-4.2975,-4.2957,-4.2957,-4.2939,-4.2939,-4.2939,-4.2939,-4.2957,-4.2957,-4.2957,-4.2957,-4.2976,-4.2976,-4.3142,-4.3533,-4.4175,-4.4651,-4.4885,-4.6119,-4.7094,-4.7477,-4.8068,-4.8547,-4.8821,-4.8839,-4.8909,-4.9008,-4.9042,-4.9144,-4.9324,-4.9418,-4.9495,-4.9619,-4.9673,-4.975,-4.9821,-4.9857,-4.9917,-5.0044,-5.0274,-5.0446,-5.0502,-5.0542,-5.0563,-5.0614,-5.0614,-5.0654,-5.072,-5.0739,-5.0747,-5.0819,-5.0803,-5.0844,-5.0894,-5.0828,-5.0865,-5.0945,-5.0474,-5.0119,-5.0017,-4.9618,-4.9197,-4.9229,-4.9251,-4.9646,-4.5406,-4.5468,-4.5485,-4.5537,-4.5589,-4.5667,-4.5693,-4.5666,-4.5469,-4.5393,-4.5334,-4.5026,-4.4415,-4.361,-4.294,-4.2403,-4.1966,-4.1678,-4.1604,-4.1666,-4.1754,-4.1819,-4.1902,-4.1945,-4.2026,-4.2034,-4.2034,-4.2097,-4.2181,-4.2225,-4.231,-4.243,-4.249,-4.2532,-4.2571,-4.2571,-4.2589,-4.2591,-4.2957,-4.316,-4.3178,-4.3124,-4.3069,-4.3013,-4.2974,-4.2899,-4.2841,-4.2689,-4.265,-4.2613,-4.2591,-4.2571,-4.2571,-4.2554,-4.2571,-4.2571,-4.2571,-4.2571,-4.2591,-4.2571,-4.2571,-4.2554,-4.2593,-4.289,-4.3498,-4.4125,-4.4876,-4.5773,-4.6615,-4.7277,-4.7756,-4.8161,-4.8438,-4.8606,-4.8624,-4.866,-4.8767,-4.8855,-4.8943,-4.9061,-4.9125,-4.9257,-4.9418,-4.9464,-4.951,-4.957,-4.963,-4.975,-4.9857,-4.9992,-5.0145,-5.0302,-5.0337,-5.0401,-5.0468,-5.0508,-5.0521,-5.0585,-5.0615,-5.0644,-5.0635,-5.046,-5.0175,-5.0096,-4.9856,-4.9568,-4.9613,-4.9325,-4.909,-4.9059,-4.8869,-4.8574,-4.8573,-4.8623,-4.9021,-4.4934,-4.5042,-4.5113,-4.5177,-4.5275,-4.5225,-4.5226,-4.5165,-4.4541,-4.4175,-4.4027,-4.4125,-4.353,-4.2445,-4.2218,-4.1783,-4.1261,-4.1209,-4.1272,-4.1363,-4.1453,-4.1582,-4.167,-4.1758,-4.1815,-4.1815,-4.1837,-4.1837,-4.188,-4.1909,-4.1956,-4.1998,-4.21,-4.2142,-4.2163,-4.2142,-4.2142,-4.2163,-4.2436,-4.2652,-4.2749,-4.2749,-4.2728,-4.2686,-4.2667,-4.2607,-4.2472,-4.2351,-4.231,-4.229,-4.2246,-4.2225,-4.2243,-4.2243,-4.2243,-4.2243,-4.2243,-4.2243,-4.2225,-4.2243,-4.2243,-4.2243,-4.2448,-4.29,-4.3713,-4.4288,-4.5167,-4.643,-4.6852,-4.7292,-4.7902,-4.8088,-4.8148,-4.8323,-4.8343,-4.8382,-4.8495,-4.8624,-4.8715,-4.8786,-4.8873,-4.8974,-4.9146,-4.9211,-4.9241,-4.9305,-4.9418,-4.9559,-4.9678,-4.9688,-4.9797,-4.994,-5.007,-5.0163,-5.0278,-5.0302,-5.0337,-5.0404,-5.0268,-5.0185,-5.0063,-4.9625,-4.9201,-4.9085,-4.8698,-4.8441,-4.8318,-4.8137,-4.8079,-4.8079,-4.7888,-4.7779,-4.7757,-4.7853,-4.829,-4.4558,-4.4586,-4.4759,-4.4913,-4.493,-4.4358,-4.4067,-4.3947,-4.3288,-4.2552,-4.2054,-4.241,-4.2525,-4.2305,-4.1621,-4.1273,-4.1186,-4.1209,-4.1209,-4.1209,-4.1214,-4.1255,-4.1277,-4.1277,-4.1277,-4.1277,-4.1277,-4.1363,-4.1448,-4.1471,-4.1538,-4.1609,-4.1653,-4.167,-4.167,-4.167,-4.1653,-4.167,-4.1714,-4.1913,-4.2328,-4.2331,-4.2348,-4.2348,-4.2225,-4.2166,-4.2145,-4.2094,-4.2048,-4.203,-4.2026,-4.2009,-4.2026,-4.2026,-4.2026,-4.2009,-4.2009,-4.2026,-4.2026,-4.2026,-4.2026,-4.2062,-4.2611,-4.3367,-4.4276,-4.5014,-4.5698,-4.6344,-4.6991,-4.7452,-4.7702,-4.7759,-4.7804,-4.7872,-4.7875,-4.7953,-4.8189,-4.8246,-4.8305,-4.8513,-4.8606,-4.8696,-4.8821,-4.8891,-4.8959,-4.9025,-4.9127,-4.9244,-4.9337,-4.938,-4.9355,-4.948,-4.9689,-4.9882,-4.9955,-5.0025,-4.9949,-5.0047,-4.9587,-4.9251,-4.9051,-4.8616,-4.8064,-4.8068,-4.7982,-4.7827,-4.7794,-4.7653,-4.7053,-4.704,-4.6718,-4.6167,-4.6158,-4.6348,-4.6936,-4.4076,-4.4121,-4.431,-4.417,-4.3787,-4.3565,-4.323,-4.2773,-4.214,-4.1639,-4.1367,-4.1159,-4.1126,-4.1254,-4.0944,-4.0782,-4.0789,-4.0789,-4.0813,-4.0901,-4.0918,-4.0942,-4.1018,-4.1018,-4.1035,-4.1018,-4.1018,-4.1041,-4.1105,-4.1105,-4.1129,-4.1175,-4.1175,-4.1198,-4.1198,-4.1244,-4.1284,-4.1307,-4.1358,-4.1431,-4.1582,-4.178,-4.1888,-4.1888,-4.1845,-4.1823,-4.1784,-4.1692,-4.1644,-4.1644,-4.156,-4.152,-4.152,-4.152,-4.1538,-4.1538,-4.1538,-4.1538,-4.1538,-4.152,-4.152,-4.152,-4.2319,-4.3165,-4.395,-4.4777,-4.5517,-4.6181,-4.6829,-4.7227,-4.729,-4.7338,-4.7425,-4.7496,-4.756,-4.7684,-4.7886,-4.7949,-4.8032,-4.817,-4.8305,-4.8382,-4.8476,-4.8532,-4.8624,-4.8731,-4.8802,-4.8853,-4.9008,-4.9077,-4.8887,-4.8527,-4.854,-4.8754,-4.899,-4.91,-4.8958,-4.8612,-4.8313,-4.8126,-4.8036,-4.7525,-4.7027,-4.7031,-4.6786,-4.6588,-4.6426,-4.6349,-4.6021,-4.6052,-4.6061,-4.5704,-4.5819,-4.5866,-4.6325,-4.3625,-4.3591,-4.3602,-4.3335,-4.2857,-4.2551,-4.2154,-4.1584,-4.0951,-4.0667,-4.06,-4.0086,-3.9952,-4.0171,-4.032,-4.0395,-4.0387,-4.0395,-4.0436,-4.0534,-4.0534,-4.06,-4.068,-4.068,-4.068,-4.068,-4.068,-4.0697,-4.068,-4.068,-4.0662,-4.068,-4.0704,-4.0745,-4.0745,-4.0881,-4.0912,-4.0953,-4.0977,-4.0971,-4.0982,-4.1175,-4.1318,-4.1403,-4.1403,-4.1426,-4.1403,-4.1312,-4.1267,-4.1244,-4.118,-4.1117,-4.1134,-4.1134,-4.1117,-4.1134,-4.1117,-4.1117,-4.1134,-4.1134,-4.1134,-4.1186,-4.1934,-4.2747,-4.3502,-4.4324,-4.5124,-4.5873,-4.6332,-4.6572,-4.6842,-4.6911,-4.7025,-4.7165,-4.7272,-4.7359,-4.7468,-4.756,-4.7666,-4.779,-4.7891,-4.8048,-4.8092,-4.8131,-4.8209,-4.8326,-4.82,-4.8163,-4.8253,-4.8122,-4.7805,-4.7304,-4.7296,-4.7508,-4.7849,-4.8013,-4.7739,-4.7481,-4.7263,-4.7018,-4.6999,-4.6402,-4.597,-4.5936,-4.5467,-4.5369,-4.5642,-4.5484,-4.5429,-4.5457,-4.5512,-4.5563,-4.5657,-4.5719,-4.5761,-4.3127,-4.3059,-4.2585,-4.2385,-4.2398,-4.115,-4.0553,-4.0376,-3.9647,-3.9299,-3.9332,-3.9265,-3.9259,-3.9312,-3.9825,-4.0096,-4.0096,-4.0096,-4.0113,-4.0096,-4.0121,-4.0138,-4.0138,-4.0121,-4.0138,-4.0121,-4.0121,-4.0121,-4.0121,-4.0121,-4.0121,-4.0146,-4.0263,-4.033,-4.0337,-4.0461,-4.0534,-4.0534,-4.0558,-4.0517,-4.0534,-4.0558,-4.0686,-4.0871,-4.0918,-4.0935,-4.0935,-4.0935,-4.0918,-4.0918,-4.0894,-4.0894,-4.0894,-4.0894,-4.0871,-4.0912,-4.0894,-4.0894,-4.0894,-4.0894,-4.0871,-4.0998,-4.1602,-4.2309,-4.2965,-4.3793,-4.4578,-4.5321,-4.5451,-4.576,-4.6259,-4.6405,-4.6542,-4.6737,-4.6824,-4.6911,-4.7002,-4.7138,-4.7249,-4.7341,-4.745,-4.7542,-4.7663,-4.772,-4.762,-4.7543,-4.7224,-4.6922,-4.6908,-4.6507,-4.6195,-4.6084,-4.6135,-4.6376,-4.6682,-4.6855,-4.6948,-4.6609,-4.6073,-4.5889,-4.5674,-4.5451,-4.5174,-4.5009,-4.5019,-4.5052,-4.5103,-4.517,-4.5275,-4.5329,-4.5351,-4.5429,-4.5513,-4.5558,-4.5618,-4.2452,-4.2103,-4.1431,-4.0936,-4.0524,-4.0018,-3.956,-3.9119,-3.8841,-3.8711,-3.8711,-3.8711,-3.8711,-3.8711,-3.9007,-3.9276,-3.9497,-3.9523,-3.954,-3.954,-3.9523,-3.9523,-3.9523,-3.954,-3.9523,-3.954,-3.9523,-3.9523,-3.954,-3.9523,-3.9592,-3.972,-3.9746,-3.9824,-3.991,-4.0037,-4.0113,-4.0138,-4.0188,-4.0196,-4.0113,-4.0113,-4.0138,-4.0163,-4.0387,-4.0485,-4.0395,-4.037,-4.0387,-4.0395,-4.0412,-4.0412,-4.0412,-4.037,-4.0395,-4.037,-4.037,-4.037,-4.037,-4.037,-4.0387,-4.0438,-4.1094,-4.1563,-4.2031,-4.2986,-4.3856,-4.4146,-4.4722,-4.5186,-4.5468,-4.5811,-4.6087,-4.6259,-4.6374,-4.6429,-4.6518,-4.6678,-4.6842,-4.687,-4.703,-4.7026,-4.6585,-4.65,-4.6327,-4.593,-4.5748,-4.5705,-4.5715,-4.5579,-4.5291,-4.4909,-4.4839,-4.4802,-4.4429,-4.5312,-4.5687,-4.5226,-4.4819,-4.4818,-4.4683,-4.4838,-4.4662,-4.467,-4.4699,-4.4757,-4.4833,-4.495,-4.5045,-4.5148,-4.5186,-4.5229,-4.535,-4.5361,-4.5429,-4.1625,-4.1055,-4.0312,-3.9763,-3.9344,-3.9072,-3.8701,-3.825,-3.825,-3.825,-3.8234,-3.825,-3.8237,-3.825,-3.8347,-3.8511,-3.8799,-3.898,-3.9071,-3.9071,-3.9088,-3.9071,-3.9071,-3.9071,-3.9088,-3.9088,-3.9088,-3.9071,-3.9088,-3.9071,-3.9115,-3.9272,-3.9325,-3.9388,-3.9494,-3.9609,-3.9661,-3.9687,-3.9764,-3.9764,-3.9687,-3.9677,-3.9625,-3.953,-3.9738,-3.991,-3.991,-3.9841,-3.9816,-3.9799,-3.9799,-3.9799,-3.9799,-3.9799,-3.9816,-3.9782,-3.9799,-3.9799,-3.9799,-3.9799,-3.9799,-3.9816,-4.0262,-4.0632,-4.0968,-4.1876,-4.2448,-4.2846,-4.3344,-4.3853,-4.4028,-4.4351,-4.4923,-4.5578,-4.5887,-4.5938,-4.5945,-4.5958,-4.5863,-4.5705,-4.5751,-4.5648,-4.5315,-4.5209,-4.5005,-4.4555,-4.4432,-4.4363,-4.445,-4.4302,-4.4169,-4.3646,-4.3582,-4.3499,-4.3377,-4.3979,-4.4528,-4.4167,-4.4165,-4.4073,-4.4057,-4.4199,-4.4292,-4.4321,-4.4393,-4.4477,-4.4573,-4.468,-4.4796,-4.4907,-4.4955,-4.4991,-4.5072,-4.5148,-4.5175,-4.0638,-3.9998,-3.9278,-3.8912,-3.8754,-3.8211,-3.7892,-3.7876,-3.786,-3.7876,-3.7847,-3.7876,-3.7847,-3.7876,-3.7889,-3.7918,-3.8017,-3.8455,-3.8722,-3.875,-3.8777,-3.875,-3.8733,-3.8733,-3.8733,-3.8733,-3.8761,-3.8761,-3.875,-3.8733,-3.8761,-3.8832,-3.8931,-3.8969,-3.9013,-3.9115,-3.9179,-3.9195,-3.9206,-3.9206,-3.9189,-3.9179,-3.9142,-3.9023,-3.904,-3.9131,-3.9448,-3.9292,-3.9232,-3.9206,-3.9189,-3.9189,-3.9206,-3.9206,-3.9206,-3.9222,-3.9206,-3.9189,-3.9206,-3.9206,-3.9206,-3.9222,-3.9255,-3.9587,-4.016,-4.0475,-4.084,-4.1365,-4.1755,-4.1883,-4.2065,-4.2274,-4.3107,-4.4878,-4.5122,-4.5105,-4.5113,-4.4921,-4.4516,-4.4149,-4.4138,-4.395,-4.3915,-4.3898,-4.3792,-4.3569,-4.3238,-4.2962,-4.3054,-4.2772,-4.2323,-4.2356,-4.253,-4.2575,-4.2606,-4.2709,-4.3068,-4.3322,-4.3532,-4.3612,-4.3695,-4.3828,-4.3923,-4.3971,-4.4048,-4.414,-4.4273,-4.4388,-4.4477,-4.4568,-4.464,-4.4706,-4.4764,-4.4839,-4.4907,-3.8842,-3.8574,-3.7914,-3.7631,-3.76,-3.738,-3.7271,-3.7287,-3.7271,-3.7285,-3.7271,-3.7255,-3.7271,-3.7315,-3.7359,-3.7403,-3.7433,-3.774,-3.7943,-3.8132,-3.8177,-3.8189,-3.8205,-3.8205,-3.816,-3.8177,-3.8177,-3.8177,-3.8205,-3.816,-3.8217,-3.8315,-3.8371,-3.8472,-3.8572,-3.8628,-3.8655,-3.8655,-3.8655,-3.8639,-3.8639,-3.8655,-3.8628,-3.8572,-3.8444,-3.8399,-3.8399,-3.865,-3.875,-3.8655,-3.8655,-3.8655,-3.8655,-3.8639,-3.8639,-3.8639,-3.8655,-3.8655,-3.8655,-3.8655,-3.8639,-3.8639,-3.8655,-3.8737,-3.903,-3.9499,-3.9826,-4.0181,-4.0742,-4.1238,-4.1324,-4.1521,-4.2104,-4.3153,-4.3284,-4.3352,-4.3361,-4.3348,-4.3373,-4.3323,-4.3377,-4.3194,-4.2742,-4.2604,-4.2413,-4.202,-4.1743,-4.1678,-4.1745,-4.1735,-4.1675,-4.1784,-4.1849,-4.1895,-4.2005,-4.211,-4.2335,-4.2692,-4.2958,-4.3196,-4.3303,-4.3409,-4.3512,-4.3614,-4.3714,-4.3793,-4.3955,-4.4048,-4.4124,-4.4199,-4.4254,-4.4341,-4.4439,-4.4508,-4.4581,-3.767,-3.7406,-3.6987,-3.6816,-3.6816,-3.6816,-3.6816,-3.6816,-3.6816,-3.6816,-3.6816,-3.6816,-3.6816,-3.6847,-3.6907,-3.6922,-3.6952,-3.7013,-3.7164,-3.7419,-3.7655,-3.7698,-3.7714,-3.7714,-3.7714,-3.7714,-3.7698,-3.7698,-3.7743,-3.7714,-3.7756,-3.7812,-3.7857,-3.7886,-3.8033,-3.8033,-3.8033,-3.8017,-3.8033,-3.8033,-3.8017,-3.8033,-3.8017,-3.8017,-3.7915,-3.7754,-3.7666,-3.7886,-3.8001,-3.8017,-3.8033,-3.8033,-3.8033,-3.8017,-3.8017,-3.8033,-3.8033,-3.8033,-3.8033,-3.8033,-3.8033,-3.8033,-3.8033,-3.8033,-3.8113,-3.8544,-3.8675,-3.8846,-3.9308,-3.9787,-3.9858,-4.0075,-4.0414,-4.08,-4.164,-4.1833,-4.1796,-4.1854,-4.1868,-4.1835,-4.1835,-4.1722,-4.1439,-4.1275,-4.1138,-4.0717,-4.0638,-4.0717,-4.0836,-4.1012,-4.1111,-4.1226,-4.1318,-4.1368,-4.144,-4.1529,-4.1657,-4.2023,-4.2394,-4.2653,-4.2845,-4.2957,-4.3069,-4.3196,-4.332,-4.3355,-4.3475,-4.3612,-4.3695,-4.3793,-4.3873,-4.3952,-4.4026,-4.4136,-4.4214,-3.6999,-3.6476,-3.6429,-3.6429,-3.6414,-3.6429,-3.6398,-3.6414,-3.6414,-3.6398,-3.6414,-3.6398,-3.6398,-3.6429,-3.6383,-3.6414,-3.6445,-3.6399,-3.6445,-3.6585,-3.6906,-3.7163,-3.7314,-3.7314,-3.7298,-3.7314,-3.7328,-3.7312,-3.7314,-3.7298,-3.7358,-3.7328,-3.7328,-3.7358,-3.7358,-3.7358,-3.7358,-3.7358,-3.7358,-3.7358,-3.7358,-3.7358,-3.7358,-3.7342,-3.7358,-3.7268,-3.7118,-3.6966,-3.7027,-3.7282,-3.7373,-3.7358,-3.7358,-3.7358,-3.7342,-3.7373,-3.7358,-3.7373,-3.7358,-3.7358,-3.7373,-3.7358,-3.7358,-3.7358,-3.7389,-3.7452,-3.75,-3.7484,-3.7725,-3.7857,-3.7987,-3.8178,-3.835,-3.8614,-4.0048,-4.0774,-4.0562,-4.0473,-4.0391,-4.0074,-3.9883,-3.9901,-4.0096,-4.0121,-4.0088,-4.0062,-4.0045,-4.0121,-4.0221,-4.0353,-4.0468,-4.059,-4.071,-4.0806,-4.0866,-4.0984,-4.1094,-4.1255,-4.1661,-4.1987,-4.2356,-4.2514,-4.2631,-4.2768,-4.2883,-4.292,-4.2995,-4.3105,-4.3232,-4.3302,-4.3408,-4.3529,-4.3631,-4.3695,-4.3777,-3.5855,-3.5672,-3.5705,-3.5705,-3.5689,-3.5705,-3.5705,-3.5672,-3.5705,-3.5705,-3.5705,-3.5672,-3.5705,-3.5672,-3.572,-3.5705,-3.5705,-3.5705,-3.5705,-3.5705,-3.5817,-3.6274,-3.6662,-3.6723,-3.6723,-3.6723,-3.6693,-3.6754,-3.6754,-3.6723,-3.6708,-3.6723,-3.6754,-3.6723,-3.6723,-3.6739,-3.6723,-3.6754,-3.6723,-3.6754,-3.6754,-3.6723,-3.6723,-3.6723,-3.6754,-3.6646,-3.6445,-3.6149,-3.6258,-3.6693,-3.6723,-3.6739,-3.6723,-3.6739,-3.6739,-3.6754,-3.6708,-3.6723,-3.6754,-3.6754,-3.6723,-3.6754,-3.6723,-3.6723,-3.6739,-3.6754,-3.6723,-3.6754,-3.6877,-3.6968,-3.7043,-3.7268,-3.7476,-3.7759,-3.864,-3.9202,-3.9091,-3.9056,-3.9068,-3.8975,-3.905,-3.9142,-3.9249,-3.9319,-3.9329,-3.9391,-3.9418,-3.9487,-3.9592,-3.967,-3.9782,-3.9995,-4.0138,-4.0196,-4.0296,-4.0419,-4.0493,-4.0566,-4.0866,-4.1265,-4.1687,-4.2068,-4.2169,-4.2292,-4.2394,-4.2436,-4.2498,-4.2578,-4.2693,-4.2808,-4.2902,-4.3014,-4.3124,-4.3214,-4.3284,-3.5169,-3.5103,-3.5103,-3.507,-3.5004,-3.4971,-3.4971,-3.4957,-3.4971,-3.5004,-3.5004,-3.5004,-3.5004,-3.4957,-3.4971,-3.499,-3.4957,-3.4957,-3.4957,-3.5004,-3.5004,-3.5397,-3.5894,-3.6053,-3.6053,-3.6053,-3.6038,-3.6053,-3.6038,-3.6053,-3.6038,-3.6038,-3.6053,-3.6038,-3.6038,-3.6038,-3.6053,-3.6053,-3.6053,-3.6038,-3.6038,-3.6053,-3.6053,-3.6053,-3.6053,-3.5911,-3.5655,-3.5382,-3.5512,-3.5911,-3.6053,-3.6053,-3.6053,-3.6053,-3.6038,-3.6053,-3.6053,-3.6038,-3.6038,-3.6038,-3.6038,-3.6038,-3.6053,-3.6053,-3.6038,-3.6053,-3.6053,-3.6038,-3.6133,-3.6196,-3.629,-3.6492,-3.6662,-3.6799,-3.7193,-3.761,-3.7918,-3.8062,-3.816,-3.8217,-3.8303,-3.8387,-3.8511,-3.8539,-3.8606,-3.8689,-3.8701,-3.8827,-3.8952,-3.9007,-3.9071,-3.9249,-3.9425,-3.9487,-3.9566,-3.967,-3.9825,-3.9901,-4.0129,-4.0514,-4.0972,-4.145,-4.1618,-4.1723,-4.1831,-4.1956,-4.1984,-4.2032,-4.2136,-4.2239,-4.2356,-4.2456,-4.2575,-4.2693,-4.2789,-3.4702,-3.4631,-3.4631,-3.453,-3.438,-3.4346,-3.438,-3.4346,-3.438,-3.438,-3.438,-3.4395,-3.4414,-3.4346,-3.4399,-3.438,-3.438,-3.4332,-3.4298,-3.4298,-3.4317,-3.4606,-3.5041,-3.5252,-3.5285,-3.5317,-3.5317,-3.5317,-3.5317,-3.5317,-3.5317,-3.5317,-3.5317,-3.5302,-3.5317,-3.5317,-3.5302,-3.5317,-3.5332,-3.5317,-3.5285,-3.5332,-3.5317,-3.5285,-3.5237,-3.5088,-3.4791,-3.461,-3.4695,-3.5139,-3.5222,-3.5317,-3.5317,-3.5317,-3.5302,-3.5317,-3.5317,-3.5317,-3.527,-3.5237,-3.5237,-3.5237,-3.5237,-3.527,-3.527,-3.527,-3.5317,-3.5317,-3.5302,-3.5415,-3.5576,-3.5689,-3.577,-3.5881,-3.6023,-3.643,-3.6952,-3.7222,-3.7373,-3.7537,-3.7583,-3.7626,-3.7727,-3.7799,-3.7812,-3.794,-3.7969,-3.8026,-3.8128,-3.8214,-3.8327,-3.8439,-3.8595,-3.875,-3.8805,-3.8914,-3.9061,-3.9222,-3.9461,-3.9808,-4.0269,-4.0666,-4.0913,-4.1094,-4.1214,-4.1283,-4.1351,-4.1445,-4.1539,-4.1687,-4.1774,-4.1899,-4.2044,-4.2133,-4.2239,-3.4088,-3.4068,-3.4054,-3.4068,-3.402,-3.4,-3.3985,-3.3985,-3.3985,-3.3951,-3.4,-3.3985,-3.3985,-3.3985,-3.3951,-3.4,-3.3951,-3.3848,-3.3709,-3.3528,-3.3528,-3.3583,-3.3914,-3.4303,-3.4587,-3.4601,-3.4635,-3.4635,-3.462,-3.462,-3.4601,-3.462,-3.462,-3.4635,-3.462,-3.4606,-3.462,-3.4601,-3.4635,-3.462,-3.4587,-3.4587,-3.4587,-3.4553,-3.4423,-3.4158,-3.3899,-3.3811,-3.3791,-3.3894,-3.4221,-3.4505,-3.4587,-3.462,-3.462,-3.4606,-3.4587,-3.4539,-3.4423,-3.4375,-3.4308,-3.4225,-3.4308,-3.439,-3.4375,-3.4505,-3.4587,-3.4635,-3.4601,-3.4673,-3.481,-3.4861,-3.4927,-3.5041,-3.5139,-3.5237,-3.5529,-3.618,-3.6616,-3.6723,-3.6754,-3.6785,-3.6922,-3.6937,-3.7012,-3.7117,-3.7177,-3.7177,-3.7266,-3.7401,-3.7474,-3.7576,-3.7754,-3.787,-3.8014,-3.8128,-3.8298,-3.8495,-3.8717,-3.8952,-3.9428,-3.9825,-4.0053,-4.0319,-4.0556,-4.0628,-4.0683,-4.0778,-4.0879,-4.1036,-4.1192,-4.1305,-4.1401,-4.1534,-4.1666,-3.3542,-3.3486,-3.3472,-3.3403,-3.3333,-3.3333,-3.3333,-3.3347,-3.3347,-3.3333,-3.3333,-3.3333,-3.3333,-3.3333,-3.3333,-3.3333,-3.3347,-3.3227,-3.3072,-3.2917,-3.2881,-3.2846,-3.2775,-3.3164,-3.3444,-3.3791,-3.3874,-3.3874,-3.3874,-3.3845,-3.3874,-3.3874,-3.3859,-3.3874,-3.3874,-3.3859,-3.3874,-3.3874,-3.3874,-3.3908,-3.3874,-3.377,-3.3667,-3.3583,-3.343,-3.3171,-3.303,-3.2903,-3.2832,-3.2846,-3.3129,-3.3528,-3.3839,-3.3874,-3.3874,-3.3874,-3.377,-3.3722,-3.3604,-3.35,-3.3395,-3.3276,-3.3395,-3.343,-3.3465,-3.3548,-3.3597,-3.3632,-3.3687,-3.3811,-3.3968,-3.3988,-3.407,-3.4138,-3.424,-3.4288,-3.4457,-3.5154,-3.5752,-3.5784,-3.5816,-3.5879,-3.5975,-3.6023,-3.6149,-3.6244,-3.6306,-3.6337,-3.6461,-3.6569,-3.66,-3.6692,-3.686,-3.7028,-3.7163,-3.7342,-3.7533,-3.7709,-3.7911,-3.8116,-3.8411,-3.881,-3.9216,-3.948,-3.9791,-3.9919,-3.9995,-4.007,-4.017,-4.036,-4.0507,-4.0652,-4.0778,-4.0855,-4.0972,-3.3023,-3.2868,-3.2881,-3.2775,-3.2618,-3.2632,-3.2632,-3.2632,-3.2596,-3.2668,-3.2632,-3.2596,-3.2668,-3.2632,-3.2632,-3.2596,-3.2574,-3.2561,-3.2467,-3.2322,-3.2046,-3.1933,-3.1834,-3.1762,-3.1894,-3.2674,-3.2842,-3.2891,-3.2765,-3.2835,-3.2625,-3.2779,-3.2807,-3.2765,-3.2891,-3.2989,-3.3003,-3.3052,-3.3058,-3.3058,-3.3023,-3.2881,-3.269,-3.2475,-3.2354,-3.2223,-3.2151,-3.2055,-3.1946,-3.1946,-3.1909,-3.2309,-3.2775,-3.3094,-3.3094,-3.3058,-3.2917,-3.2775,-3.2654,-3.2547,-3.2475,-3.2453,-3.2439,-3.2489,-3.2475,-3.2497,-3.2583,-3.2583,-3.269,-3.2832,-3.3009,-3.2995,-3.2995,-3.303,-3.3185,-3.3269,-3.3444,-3.4002,-3.4312,-3.4762,-3.4876,-3.4975,-3.5008,-3.5059,-3.5237,-3.5382,-3.5415,-3.5464,-3.5593,-3.5674,-3.5706,-3.577,-3.5944,-3.6117,-3.6259,-3.6415,-3.6646,-3.6829,-3.7027,-3.7222,-3.7387,-3.7679,-3.808,-3.8673,-3.8974,-3.9109,-3.9216,-3.9279,-3.9428,-3.9661,-3.9773,-3.9868,-4.002,-4.0162,-4.0243,-3.2273,-3.2237,-3.2237,-3.2237,-3.22,-3.22,-3.2164,-3.22,-3.2164,-3.22,-3.22,-3.2164,-3.2164,-3.2164,-3.22,-3.2141,-3.1992,-3.1901,-3.1806,-3.1502,-3.1086,-3.0724,-3.0586,-3.0213,-3.0033,-3.0259,-3.0888,-3.1272,-3.1082,-3.089,-3.1109,-3.0959,-3.0986,-3.1178,-3.1547,-3.167,-3.1894,-3.2159,-3.211,-3.2078,-3.2055,-3.1859,-3.1663,-3.1479,-3.1405,-3.1344,-3.1259,-3.1198,-3.1198,-3.1161,-3.1161,-3.1272,-3.1482,-3.1932,-3.2114,-3.2078,-3.1982,-3.1836,-3.1589,-3.1479,-3.1381,-3.1334,-3.1394,-3.1442,-3.1479,-3.1576,-3.1626,-3.1663,-3.17,-3.1759,-3.1809,-3.1869,-3.1846,-3.1833,-3.1869,-3.1955,-3.2101,-3.2376,-3.2834,-3.3478,-3.3768,-3.4036,-3.4056,-3.409,-3.4225,-3.4327,-3.4361,-3.4394,-3.4461,-3.4614,-3.4747,-3.4861,-3.5008,-3.5187,-3.5382,-3.5497,-3.5674,-3.5866,-3.6071,-3.6228,-3.6384,-3.6554,-3.692,-3.7413,-3.7924,-3.8254,-3.8367,-3.8463,-3.8645,-3.881,-3.8963,-3.9038,-3.9027,-3.9044,-3.9291,-3.1519,-3.1519,-3.1519,-3.1519,-3.1519,-3.1556,-3.1519,-3.1519,-3.1519,-3.1519,-3.1519,-3.1519,-3.1519,-3.1519,-3.1519,-3.1349,-3.101,-3.0957,-3.0702,-3.0217,-2.9856,-2.9532,-2.9411,-2.8957,-2.8592,-2.8524,-2.896,-2.9557,-2.9811,-2.9859,-2.9766,-2.9846,-2.9832,-2.9979,-3.0272,-3.0579,-3.077,-3.103,-3.1135,-3.1182,-3.1158,-3.0884,-3.062,-3.0469,-3.0418,-3.0406,-3.0343,-3.0305,-3.0343,-3.0343,-3.033,-3.0266,-3.0343,-3.0482,-3.0833,-3.1033,-3.0972,-3.0822,-3.0582,-3.0507,-3.0393,-3.033,-3.0393,-3.0418,-3.0469,-3.0507,-3.0607,-3.0696,-3.0733,-3.0771,-3.0884,-3.0833,-3.0871,-3.0884,-3.0871,-3.0921,-3.0996,-3.1033,-3.1489,-3.2119,-3.2577,-3.2875,-3.3101,-3.3136,-3.3206,-3.3276,-3.3311,-3.3346,-3.3381,-3.3541,-3.3734,-3.3851,-3.4002,-3.4206,-3.4375,-3.4495,-3.4695,-3.4909,-3.5041,-3.5204,-3.54,-3.5546,-3.5706,-3.6025,-3.6554,-3.7145,-3.7474,-3.756,-3.778,-3.7905,-3.7749,-3.7681,-3.7801,-3.7927,-3.8051,-3.0874,-3.0874,-3.0861,-3.0874,-3.0861,-3.0836,-3.0836,-3.0798,-3.0748,-3.0735,-3.0722,-3.0618,-3.054,-3.0564,-3.0422,-3.0149,-2.9733,-2.9697,-2.9404,-2.9011,-2.8682,-2.839,-2.8198,-2.7866,-2.7517,-2.7085,-2.7107,-2.7566,-2.8381,-2.8551,-2.8655,-2.8564,-2.8655,-2.8811,-2.8941,-2.9214,-2.9528,-2.9908,-2.9981,-3.0138,-3.0101,-2.9871,-2.9613,-2.9484,-2.9433,-2.9484,-2.9445,-2.9445,-2.9445,-2.9445,-2.9406,-2.9328,-2.9184,-2.9067,-2.9328,-2.9807,-2.9793,-2.9767,-2.9651,-2.9561,-2.9484,-2.9484,-2.9471,-2.9471,-2.9471,-2.9523,-2.9561,-2.9651,-2.969,-2.9767,-2.9871,-2.9909,-2.9896,-2.9909,-2.9909,-2.9947,-2.9973,-3.0012,-3.005,-3.067,-3.1294,-3.1663,-3.1819,-3.2015,-3.2074,-3.2245,-3.2282,-3.234,-3.2376,-3.2497,-3.2676,-3.2783,-3.2974,-3.3206,-3.3381,-3.3471,-3.3679,-3.3934,-3.4036,-3.4138,-3.4341,-3.4576,-3.4728,-3.4832,-3.529,-3.5883,-3.6259,-3.6646,-3.6829,-3.6809,-3.6444,-3.6369,-3.6613,-3.6465,-3.6382,-3.0482,-3.0432,-3.0432,-3.0482,-3.0355,-3.019,-3.0165,-3.0126,-2.9897,-2.9871,-2.9732,-2.9454,-2.9276,-2.9163,-2.8783,-2.8543,-2.8417,-2.8379,-2.8266,-2.7954,-2.7532,-2.7214,-2.7055,-2.6443,-2.6267,-2.5931,-2.5882,-2.6136,-2.6744,-2.6848,-2.6842,-2.688,-2.6981,-2.7006,-2.7546,-2.7786,-2.8153,-2.8836,-2.8787,-2.869,-2.877,-2.8736,-2.8657,-2.8645,-2.8605,-2.8657,-2.8645,-2.8633,-2.8645,-2.8605,-2.8486,-2.8367,-2.8287,-2.7926,-2.7794,-2.8063,-2.8422,-2.8843,-2.8685,-2.8645,-2.8605,-2.8633,-2.8645,-2.8618,-2.8645,-2.8645,-2.8645,-2.8657,-2.8657,-2.8685,-2.8764,-2.8736,-2.8736,-2.8724,-2.8791,-2.8831,-2.8897,-2.8964,-2.9003,-2.9069,-2.9705,-3.0177,-3.0481,-3.0707,-3.0908,-3.1121,-3.1283,-3.1344,-3.1405,-3.1479,-3.1589,-3.17,-3.1882,-3.2101,-3.2268,-3.2376,-3.2591,-3.2854,-3.296,-3.303,-3.3262,-3.3471,-3.361,-3.3822,-3.423,-3.4566,-3.4949,-3.5355,-3.577,-3.5718,-3.5339,-3.5339,-3.5549,-3.5248,-3.4706,-2.895,-2.9213,-2.9201,-2.9038,-2.8762,-2.865,-2.8612,-2.8612,-2.8512,-2.8474,-2.8437,-2.8251,-2.8114,-2.7928,-2.7656,-2.7336,-2.7054,-2.7029,-2.6844,-2.6672,-2.6235,-2.5982,-2.5814,-2.5538,-2.5288,-2.5159,-2.5052,-2.5052,-2.5359,-2.5629,-2.5756,-2.5756,-2.5804,-2.5914,-2.6257,-2.6478,-2.7029,-2.7603,-2.792,-2.7985,-2.7907,-2.7846,-2.7765,-2.7765,-2.7765,-2.7765,-2.7765,-2.7765,-2.7765,-2.7725,-2.7574,-2.736,-2.7226,-2.694,-2.6734,-2.6622,-2.6899,-2.7319,-2.7684,-2.7725,-2.7765,-2.7765,-2.7765,-2.7765,-2.7777,-2.7765,-2.7765,-2.7765,-2.7765,-2.7765,-2.7765,-2.7765,-2.7765,-2.7753,-2.7713,-2.7753,-2.7834,-2.7874,-2.7914,-2.7983,-2.8091,-2.8557,-2.9018,-2.933,-2.9601,-2.9922,-3.0088,-3.0165,-3.0279,-3.0444,-3.0558,-3.062,-3.0809,-3.0996,-3.1108,-3.1206,-3.1429,-3.1649,-3.1846,-3.1955,-3.216,-3.234,-3.247,-3.2555,-3.2791,-3.3164,-3.3581,-3.4129,-3.4681,-3.4496,-3.4228,-3.4152,-3.4072,-3.3348,-3.3144,-2.7344,-2.7624,-2.791,-2.7802,-2.7385,-2.7323,-2.731,-2.731,-2.7248,-2.7198,-2.7138,-2.7065,-2.6881,-2.6698,-2.6454,-2.6152,-2.5732,-2.5695,-2.5433,-2.5135,-2.4993,-2.4981,-2.4897,-2.4778,-2.4718,-2.4574,-2.4454,-2.4334,-2.4358,-2.4563,-2.4814,-2.4993,-2.5028,-2.5052,-2.5135,-2.542,-2.5908,-2.6531,-2.6999,-2.7146,-2.711,-2.6981,-2.691,-2.6869,-2.6899,-2.691,-2.6857,-2.6857,-2.6857,-2.6828,-2.658,-2.6373,-2.6196,-2.5935,-2.5695,-2.5622,-2.5695,-2.5863,-2.6362,-2.6652,-2.6828,-2.6857,-2.6857,-2.6869,-2.6869,-2.691,-2.6869,-2.6869,-2.691,-2.6869,-2.691,-2.6869,-2.6816,-2.6775,-2.6723,-2.6764,-2.6764,-2.6764,-2.6857,-2.6981,-2.7021,-2.7021,-2.7447,-2.7879,-2.8279,-2.8676,-2.8885,-2.9015,-2.9172,-2.9367,-2.9484,-2.9561,-2.9755,-2.9896,-2.9973,-3.0126,-3.0279,-3.0431,-3.062,-3.0809,-3.097,-3.1132,-3.1244,-3.1368,-3.1455,-3.1649,-3.2046,-3.2847,-3.3596,-3.3468,-3.3264,-3.28,-3.2373,-3.1734,-3.1886,-2.616,-2.5855,-2.6928,-2.7185,-2.6975,-2.6824,-2.6725,-2.6605,-2.6451,-2.6352,-2.6233,-2.5936,-2.5476,-2.5156,-2.5108,-2.494,-2.4644,-2.4609,-2.4489,-2.4368,-2.4273,-2.425,-2.4213,-2.4177,-2.4141,-2.397,-2.3861,-2.3677,-2.3482,-2.3471,-2.3849,-2.4189,-2.4213,-2.425,-2.4319,-2.448,-2.4892,-2.5417,-2.5859,-2.6091,-2.6154,-2.6091,-2.5968,-2.5968,-2.5968,-2.5968,-2.5968,-2.5968,-2.5968,-2.5968,-2.5622,-2.5359,-2.5232,-2.4935,-2.4722,-2.4627,-2.4594,-2.4712,-2.4956,-2.5569,-2.5926,-2.5968,-2.5968,-2.5968,-2.5957,-2.5968,-2.5979,-2.5968,-2.5957,-2.5968,-2.5968,-2.5979,-2.5832,-2.5684,-2.5631,-2.5631,-2.5642,-2.5642,-2.5737,-2.5926,-2.5968,-2.5946,-2.603,-2.6453,-2.7121,-2.7528,-2.7799,-2.7931,-2.8103,-2.8303,-2.8395,-2.8514,-2.8712,-2.887,-2.891,-2.9055,-2.9199,-2.9316,-2.9459,-2.9614,-2.9768,-2.9935,-2.9961,-3.0203,-3.0317,-3.0393,-3.057,-3.1365,-3.2055,-3.2417,-3.234,-3.1782,-3.1537,-3.1215,-3.1547,-2.4966,-2.462,-2.5026,-2.5366,-2.5634,-2.5561,-2.5524,-2.5487,-2.5304,-2.5108,-2.4997,-2.4678,-2.4457,-2.4271,-2.4091,-2.4055,-2.3934,-2.3934,-2.3824,-2.3714,-2.3641,-2.3567,-2.353,-2.3446,-2.3409,-2.3335,-2.3224,-2.3113,-2.2964,-2.274,-2.2665,-2.2927,-2.3224,-2.3409,-2.349,-2.3717,-2.4102,-2.4387,-2.4774,-2.5087,-2.5105,-2.5115,-2.502,-2.502,-2.502,-2.502,-2.5009,-2.502,-2.5031,-2.4946,-2.4743,-2.4519,-2.4348,-2.4046,-2.382,-2.3681,-2.3691,-2.3637,-2.381,-2.4456,-2.502,-2.502,-2.502,-2.5031,-2.502,-2.5073,-2.502,-2.502,-2.502,-2.5031,-2.485,-2.4861,-2.4765,-2.4584,-2.4445,-2.4456,-2.4456,-2.4445,-2.4627,-2.4807,-2.4893,-2.4893,-2.4978,-2.5105,-2.5779,-2.6404,-2.664,-2.6887,-2.7051,-2.7174,-2.7267,-2.7348,-2.7551,-2.7632,-2.7672,-2.7874,-2.8115,-2.8183,-2.8251,-2.8438,-2.8597,-2.8518,-2.8636,-2.8885,-2.9121,-2.9186,-2.9447,-3.0024,-3.0593,-3.1225,-3.1132,-3.072,-3.0609,-3.0634,-3.1116,-2.408,-2.3824,-2.3824,-2.4043,-2.4418,-2.4454,-2.4465,-2.4429,-2.4344,-2.4116,-2.3934,-2.3703,-2.3641,-2.3604,-2.353,-2.3372,-2.3335,-2.3298,-2.3187,-2.3075,-2.2964,-2.2852,-2.2729,-2.2654,-2.2628,-2.259,-2.2515,-2.2402,-2.2289,-2.2063,-2.1911,-2.1949,-2.2128,-2.2354,-2.273,-2.2956,-2.3252,-2.3459,-2.3665,-2.4011,-2.4054,-2.4091,-2.4069,-2.4069,-2.4069,-2.4079,-2.4069,-2.4079,-2.4079,-2.4003,-2.3874,-2.3667,-2.3493,-2.3276,-2.3057,-2.2882,-2.2794,-2.274,-2.2916,-2.3474,-2.4026,-2.4079,-2.4069,-2.4069,-2.4069,-2.4079,-2.4069,-2.4069,-2.4069,-2.3983,-2.382,-2.3777,-2.3647,-2.341,-2.3323,-2.328,-2.328,-2.3313,-2.3551,-2.3734,-2.3777,-2.3864,-2.3993,-2.4122,-2.4627,-2.5221,-2.5558,-2.5799,-2.5977,-2.606,-2.6102,-2.6196,-2.6321,-2.6373,-2.6426,-2.6652,-2.6835,-2.6928,-2.704,-2.7244,-2.7354,-2.7313,-2.7406,-2.7689,-2.7851,-2.7971,-2.8171,-2.8505,-2.9252,-3.0152,-2.9955,-2.9772,-2.9954,-3.0042,-3.043,-2.3604,-2.3593,-2.3556,-2.3593,-2.3629,-2.3629,-2.3677,-2.3677,-2.3629,-2.3519,-2.3309,-2.3113,-2.3001,-2.3001,-2.2964,-2.2841,-2.274,-2.2703,-2.258,-2.244,-2.2289,-2.2176,-2.2063,-2.1959,-2.1873,-2.1845,-2.1769,-2.1693,-2.154,-2.1464,-2.1262,-2.1031,-2.1098,-2.1328,-2.1759,-2.1845,-2.2084,-2.2449,-2.2524,-2.2797,-2.3034,-2.3104,-2.3128,-2.3125,-2.3125,-2.3135,-2.3135,-2.3135,-2.3125,-2.3091,-2.2969,-2.2847,-2.2759,-2.2539,-2.2309,-2.2132,-2.2097,-2.1954,-2.183,-2.2608,-2.295,-2.3091,-2.3125,-2.3135,-2.3135,-2.3135,-2.3135,-2.3125,-2.3125,-2.3003,-2.2925,-2.2794,-2.2511,-2.228,-2.2148,-2.2104,-2.2094,-2.2138,-2.2325,-2.2589,-2.2784,-2.2891,-2.3057,-2.3222,-2.3637,-2.4069,-2.4413,-2.468,-2.485,-2.4893,-2.4925,-2.502,-2.5105,-2.52,-2.5285,-2.5401,-2.5558,-2.5653,-2.5768,-2.5955,-2.6121,-2.6216,-2.6299,-2.6475,-2.6599,-2.6712,-2.6775,-2.6828,-2.7678,-2.8497,-2.8983,-2.9001,-2.9199,-2.9495,-2.988,-2.2927,-2.2804,-2.2815,-2.2815,-2.2852,-2.3224,-2.3335,-2.3187,-2.3038,-2.2889,-2.2703,-2.2478,-2.2402,-2.2365,-2.2262,-2.2176,-2.2101,-2.2101,-2.1987,-2.1807,-2.1693,-2.1617,-2.1502,-2.13,-2.1213,-2.1185,-2.1108,-2.0992,-2.0915,-2.0799,-2.0654,-2.0498,-2.0255,-2.0411,-2.0828,-2.0992,-2.1141,-2.1251,-2.1361,-2.158,-2.1791,-2.1959,-2.207,-2.2173,-2.2148,-2.2167,-2.2176,-2.2176,-2.2176,-2.2167,-2.2043,-2.2008,-2.1928,-2.1741,-2.1597,-2.1365,-2.1275,-2.106,-2.088,-2.1186,-2.1544,-2.1865,-2.2176,-2.2176,-2.2176,-2.2167,-2.2176,-2.2176,-2.2167,-2.1989,-2.1722,-2.1624,-2.1401,-2.1042,-2.0907,-2.0907,-2.0907,-2.0907,-2.1042,-2.1392,-2.1624,-2.1865,-2.2078,-2.2167,-2.2501,-2.2765,-2.3062,-2.3474,-2.3691,-2.3691,-2.3734,-2.3777,-2.3874,-2.4013,-2.4143,-2.4241,-2.436,-2.4445,-2.4488,-2.4563,-2.4776,-2.4956,-2.5137,-2.5295,-2.5401,-2.5496,-2.5622,-2.5779,-2.6196,-2.6774,-2.7402,-2.8144,-2.8572,-2.8879,-2.9222,-2.2402,-2.2187,-2.2187,-2.2138,-2.2187,-2.274,-2.2879,-2.2665,-2.2402,-2.2214,-2.2073,-2.1883,-2.1769,-2.1731,-2.1617,-2.1502,-2.1454,-2.1377,-2.1349,-2.1195,-2.1118,-2.1002,-2.0848,-2.0683,-2.0557,-2.0479,-2.0372,-2.0255,-2.0255,-2.0059,-1.9912,-1.9754,-1.9478,-1.9518,-1.9784,-1.9942,-2.0137,-2.0251,-2.0356,-2.0454,-2.0611,-2.0744,-2.1027,-2.1068,-2.1123,-2.1186,-2.1239,-2.1239,-2.1239,-2.1239,-2.1195,-2.1159,-2.1024,-2.0979,-2.088,-2.0645,-2.032,-2.0147,-1.9965,-1.9828,-2.0192,-2.051,-2.0916,-2.1195,-2.1195,-2.123,-2.123,-2.1239,-2.1239,-2.1006,-2.0727,-2.0591,-2.0365,-2.0011,-1.9874,-1.9874,-1.9828,-1.9874,-2.0056,-2.0357,-2.0583,-2.0871,-2.1105,-2.115,-2.132,-2.149,-2.1713,-2.2122,-2.252,-2.2608,-2.2599,-2.2696,-2.274,-2.2828,-2.296,-2.3071,-2.3149,-2.3183,-2.327,-2.3357,-2.3444,-2.3661,-2.3844,-2.4036,-2.4079,-2.4209,-2.4519,-2.4818,-2.5094,-2.5505,-2.6119,-2.6878,-2.7753,-2.8155,-2.8383,-2.1959,-2.1807,-2.1759,-2.1655,-2.1617,-2.2063,-2.2176,-2.2025,-2.1693,-2.1502,-2.1464,-2.1272,-2.1156,-2.1128,-2.0954,-2.0867,-2.0828,-2.0683,-2.0605,-2.0537,-2.042,-2.0342,-2.0177,-2.002,-1.9893,-1.9824,-1.9706,-1.9557,-1.9518,-1.9311,-1.9112,-1.8953,-1.8763,-1.8683,-1.8754,-1.8865,-1.9143,-1.9252,-1.9375,-1.9475,-1.9546,-1.9772,-1.9931,-1.9997,-2.0078,-2.0204,-2.0246,-2.0246,-2.0238,-2.0238,-2.0246,-2.0246,-2.0246,-2.0246,-2.0056,-1.9828,-1.9417,-1.9279,-1.9142,-1.8958,-1.8874,-1.9188,-1.9646,-2.0019,-2.0246,-2.0238,-2.0238,-2.0238,-2.0238,-2.0056,-1.9874,-1.9691,-1.95,-1.9234,-1.8966,-1.892,-1.8874,-1.8966,-1.9188,-1.9417,-1.9592,-1.9874,-2.0147,-2.0246,-2.0238,-2.0329,-2.0501,-2.0682,-2.1132,-2.1588,-2.1633,-2.1633,-2.1687,-2.1687,-2.1811,-2.1926,-2.1971,-2.2006,-2.2138,-2.2227,-2.2315,-2.2359,-2.2536,-2.2677,-2.274,-2.2969,-2.3309,-2.3604,-2.3864,-2.4327,-2.4744,-2.5642,-2.6517,-2.6969,-2.7255,-2.1425,-2.1359,-2.1213,-2.1146,-2.1059,-2.0954,-2.1118,-2.1387,-2.1185,-2.1059,-2.1031,-2.0693,-2.0576,-2.0537,-2.0294,-2.0216,-2.0177,-2.0098,-1.9981,-1.9902,-1.9794,-1.9715,-1.9548,-1.939,-1.928,-1.9201,-1.9091,-1.8891,-1.8714,-1.8514,-1.8264,-1.8063,-1.8031,-1.787,-1.7789,-1.774,-1.8023,-1.8259,-1.8389,-1.8463,-1.8581,-1.8794,-1.8879,-1.8993,-1.9121,-1.9239,-1.9242,-1.9242,-1.9234,-1.9242,-1.9234,-1.9234,-1.9234,-1.9234,-1.9096,-1.8912,-1.8727,-1.8635,-1.8411,-1.8187,-1.8001,-1.7947,-1.821,-1.8589,-1.8958,-1.9188,-1.9196,-1.9234,-1.9225,-1.9096,-1.9004,-1.8812,-1.8627,-1.8458,-1.8272,-1.8172,-1.8179,-1.8226,-1.8404,-1.8589,-1.8819,-1.8958,-1.9234,-1.9234,-1.9225,-1.9234,-1.9279,-1.9463,-1.9783,-2.0329,-2.0645,-2.069,-2.069,-2.0699,-2.0699,-2.0772,-2.0772,-2.0817,-2.0943,-2.1033,-2.1069,-2.1159,-2.1257,-2.1445,-2.1624,-2.1856,-2.2132,-2.2422,-2.2721,-2.2916,-2.3343,-2.4294,-2.5147,-2.5642,-2.6102,-2.077,-2.0693,-2.0566,-2.0518,-2.0489,-2.0255,-2.0342,-2.0537,-2.0518,-2.0518,-2.044,-2.0147,-1.999,-1.9951,-1.9706,-1.9548,-1.9548,-1.9439,-1.932,-1.928,-1.925,-1.9121,-1.8962,-1.8834,-1.8723,-1.8603,-1.8442,-1.8241,-1.8031,-1.7789,-1.7538,-1.7497,-1.7383,-1.7172,-1.7049,-1.6968,-1.6927,-1.7131,-1.7302,-1.7442,-1.7638,-1.78,-1.7989,-1.8003,-1.817,-1.8303,-1.8226,-1.8218,-1.8218,-1.8218,-1.8218,-1.8218,-1.8218,-1.8218,-1.8218,-1.8032,-1.79,-1.7807,-1.7628,-1.7434,-1.7293,-1.72,-1.7005,-1.7232,-1.7606,-1.7932,-1.8071,-1.821,-1.8218,-1.8172,-1.8079,-1.7939,-1.7807,-1.7675,-1.7574,-1.752,-1.7481,-1.7481,-1.7667,-1.7846,-1.7986,-1.8125,-1.8218,-1.8218,-1.821,-1.821,-1.821,-1.8257,-1.8673,-1.9234,-1.9554,-1.9691,-1.97,-1.97,-1.97,-1.9691,-1.9737,-1.9729,-1.9737,-1.982,-1.9866,-1.9957,-2.0085,-2.0357,-2.0628,-2.0862,-2.1132,-2.1356,-2.1615,-2.1811,-2.2078,-2.2809,-2.3671,-2.437,-2.4829,-2.0108,-1.9902,-1.9824,-1.9824,-1.9784,-1.9794,-1.9676,-1.9557,-1.9715,-1.9824,-1.9784,-1.9627,-1.9527,-1.9439,-1.9161,-1.9002,-1.8922,-1.8812,-1.8683,-1.866,-1.8612,-1.8482,-1.8362,-1.8313,-1.8121,-1.7951,-1.7781,-1.7659,-1.7497,-1.7212,-1.6976,-1.6976,-1.6771,-1.6517,-1.6345,-1.6237,-1.6154,-1.6031,-1.6229,-1.6366,-1.6555,-1.685,-1.7115,-1.6899,-1.7175,-1.7475,-1.7365,-1.7279,-1.7232,-1.7279,-1.7232,-1.7232,-1.7185,-1.7192,-1.7192,-1.7145,-1.7012,-1.6965,-1.6824,-1.6636,-1.6534,-1.644,-1.6292,-1.6244,-1.648,-1.6904,-1.7138,-1.7185,-1.7192,-1.7185,-1.7091,-1.7044,-1.6918,-1.6871,-1.6824,-1.677,-1.6723,-1.6723,-1.6817,-1.7005,-1.7052,-1.7192,-1.7192,-1.7185,-1.7185,-1.7185,-1.7185,-1.7185,-1.7419,-1.7978,-1.8303,-1.8589,-1.8681,-1.8681,-1.8681,-1.8681,-1.8681,-1.8681,-1.8681,-1.8681,-1.8765,-1.8812,-1.8866,-1.9225,-1.9583,-1.9866,-2.0093,-2.032,-2.0538,-2.0862,-2.1132,-2.1436,-2.2104,-2.2896,-2.3604,-1.9863,-1.9636,-1.9359,-1.9121,-1.9011,-1.8971,-1.8971,-1.8931,-1.8971,-1.9082,-1.9161,-1.9011,-1.89,-1.8851,-1.8643,-1.8523,-1.8442,-1.8241,-1.8072,-1.7991,-1.7951,-1.7838,-1.7676,-1.7627,-1.7514,-1.7383,-1.7212,-1.7,-1.6714,-1.6484,-1.6245,-1.6072,-1.594,-1.5809,-1.5643,-1.5526,-1.5333,-1.5166,-1.511,-1.536,-1.5607,-1.581,-1.6031,-1.613,-1.6442,-1.6686,-1.6631,-1.6723,-1.6723,-1.6763,-1.6527,-1.6386,-1.6204,-1.6157,-1.6157,-1.6157,-1.6116,-1.6069,-1.5974,-1.5825,-1.5724,-1.5629,-1.5493,-1.5404,-1.5553,-1.5927,-1.6163,-1.6157,-1.6157,-1.6157,-1.6157,-1.6109,-1.6069,-1.6021,-1.6021,-1.5967,-1.5967,-1.5967,-1.5967,-1.6062,-1.6109,-1.6157,-1.6157,-1.6157,-1.6157,-1.6157,-1.6157,-1.6157,-1.6157,-1.6527,-1.6943,-1.7225,-1.7606,-1.7652,-1.766,-1.766,-1.766,-1.7652,-1.7652,-1.7652,-1.766,-1.7699,-1.7792,-1.8172,-1.8535,-1.8812,-1.8996,-1.9142,-1.9409,-1.9774,-2.0048,-2.0266,-2.0673,-2.1382,-2.2192,-1.9289,-1.917,-1.8971,-1.8812,-1.87,-1.8612,-1.8491,-1.8371,-1.8282,-1.8282,-1.8322,-1.8322,-1.8322,-1.8241,-1.804,-1.7959,-1.791,-1.7708,-1.7578,-1.7456,-1.7294,-1.7139,-1.7017,-1.6976,-1.682,-1.6689,-1.6517,-1.627,-1.5974,-1.5741,-1.5541,-1.5416,-1.5284,-1.5061,-1.4936,-1.4776,-1.4622,-1.4454,-1.4195,-1.4279,-1.467,-1.4974,-1.5228,-1.5473,-1.5645,-1.5852,-1.5833,-1.5927,-1.5927,-1.5927,-1.5778,-1.5689,-1.5547,-1.5404,-1.5356,-1.5309,-1.5213,-1.5112,-1.5064,-1.5016,-1.4914,-1.4819,-1.4675,-1.4586,-1.4538,-1.4867,-1.507,-1.5112,-1.5309,-1.5356,-1.5207,-1.5112,-1.5112,-1.5064,-1.5064,-1.5064,-1.5064,-1.5064,-1.5064,-1.5112,-1.5159,-1.5159,-1.5159,-1.5105,-1.5153,-1.5159,-1.5112,-1.5112,-1.5112,-1.5112,-1.5534,-1.5859,-1.619,-1.6527,-1.6629,-1.6629,-1.6629,-1.6629,-1.6622,-1.6622,-1.6622,-1.6622,-1.6763,-1.7185,-1.7512,-1.7699,-1.7885,-1.8079,-1.8404,-1.8812,-1.895,-1.9096,-1.95,-1.9957,-2.0583,-1.87,-1.862,-1.854,-1.8531,-1.8491,-1.8362,-1.8152,-1.7919,-1.77,-1.7505,-1.7392,-1.7668,-1.77,-1.7587,-1.7392,-1.731,-1.7188,-1.7017,-1.6976,-1.6894,-1.6689,-1.6525,-1.6394,-1.627,-1.6154,-1.5948,-1.5741,-1.5526,-1.5269,-1.5117,-1.4999,-1.488,-1.4615,-1.4314,-1.4223,-1.4097,-1.3977,-1.3773,-1.3568,-1.3466,-1.3806,-1.4215,-1.4543,-1.478,-1.4921,-1.5143,-1.5057,-1.5035,-1.5035,-1.4981,-1.4975,-1.4879,-1.479,-1.4592,-1.4592,-1.4496,-1.4298,-1.4202,-1.4154,-1.4106,-1.4106,-1.4052,-1.3859,-1.3763,-1.3721,-1.3769,-1.3968,-1.4112,-1.4304,-1.4448,-1.4304,-1.4202,-1.4202,-1.4154,-1.4154,-1.4106,-1.4106,-1.4106,-1.4106,-1.4106,-1.4106,-1.4106,-1.4106,-1.4106,-1.4106,-1.4106,-1.4106,-1.4106,-1.41,-1.41,-1.4292,-1.4526,-1.4717,-1.5057,-1.5493,-1.5635,-1.5635,-1.5629,-1.5629,-1.5629,-1.5635,-1.5629,-1.5818,-1.6197,-1.6527,-1.6669,-1.6857,-1.7044,-1.7419,-1.7792,-1.7885,-1.8025,-1.8442,-1.8858,-1.9134,-1.8491,-1.8121,-1.7797,-1.7644,-1.7635,-1.7595,-1.7554,-1.7473,-1.7302,-1.7098,-1.6853,-1.6722,-1.6845,-1.718,-1.6943,-1.6779,-1.6607,-1.6402,-1.6294,-1.6252,-1.6038,-1.5906,-1.5775,-1.565,-1.545,-1.5249,-1.4992,-1.4776,-1.4608,-1.4524,-1.4321,-1.4033,-1.3948,-1.3773,-1.3603,-1.3476,-1.3362,-1.3217,-1.3047,-1.2954,-1.3106,-1.3566,-1.4053,-1.4256,-1.4358,-1.4546,-1.4613,-1.4532,-1.449,-1.4394,-1.4244,-1.4112,-1.3919,-1.3823,-1.3781,-1.3678,-1.348,-1.3383,-1.3335,-1.319,-1.3141,-1.3141,-1.2996,-1.2948,-1.2905,-1.2953,-1.3001,-1.2905,-1.3195,-1.3582,-1.3528,-1.3582,-1.3534,-1.334,-1.3292,-1.3195,-1.3147,-1.3098,-1.3098,-1.3098,-1.3098,-1.3098,-1.305,-1.3044,-1.3093,-1.3093,-1.3093,-1.3093,-1.3044,-1.3044,-1.3044,-1.319,-1.3377,-1.3859,-1.4388,-1.4538,-1.4586,-1.4586,-1.458,-1.4586,-1.4586,-1.458,-1.4819,-1.5242,-1.548,-1.5622,-1.5812,-1.6055,-1.6386,-1.6716,-1.681,-1.6998,-1.7419,-1.7746,-1.8025]},{"header":{"parameterUnit":"m.s-1","parameterCategory":1,"la1":31.0,"la2":29.5877,"lo1":-88.7671,"lo2":-86.6584,"dy":0.0162,"dx":0.0185,"nx":115,"ny":88,"refTime":"2023-08-19T06:00:00:Z","depth":0,"parameterNumber":3,"parameterNumberName":"V-component_of_WINDS"},"data":[0.0,0.0,0.0,0.0,0.0,0.0,0.0,0.0,0.0,0.0,0.0,0.0,0.0,0.0,0.0,0.0,0.0,0.0,0.0,0.0,0.0,0.0,0.0,0.0,0.0,0.0,0.0,0.0,0.0,0.0,0.0,0.0,0.0,0.0,0.0,0.0,0.0,0.0,0.0,0.0,0.0,0.0,0.0,0.0,0.0,0.0,0.0,0.0,0.0,0.0,0.0,0.0,0.0,0.0,0.0,0.0,0.0,0.0,0.0,0.0,0.0,0.0,0.0,0.0,0.0,0.0,0.0,0.0,0.0,0.0,0.0,0.0,0.0,0.0,0.0,0.0,0.0,0.0,0.0,0.0,0.0,0.0,0.0,0.0,0.0,0.0,0.0,0.0,0.0,0.0,0.0,0.0,0.0,0.0,0.0,0.0,0.0,0.0,0.0,0.0,0.0,0.0,0.0,0.0,0.0,0.0,0.0,0.0,0.0,0.0,0.0,0.0,0.0,0.0,0.0,0.0,0.0,0.0,0.0,0.0,0.0,0.0,0.0,0.0,0.0,0.0,0.0,0.0,0.0,0.0,0.0,0.0,0.0,0.0,0.0,0.0,0.0,0.0,0.0,0.0,0.0,0.0,0.0,0.0,0.0,0.0,0.0,0.0,0.0,0.0,0.0,0.0,0.0,0.0,0.0,0.0,0.0,0.0,0.0,0.0,0.0,0.0,0.0,0.0,0.0,0.0,0.0,0.0,0.0,0.0,0.0,0.0,0.0,0.0,0.0,0.0,0.0,0.0,0.0,0.0,0.0,0.0,0.0,0.0,0.0,0.0,0.0,0.0,0.0,0.0,0.0,0.0,0.0,0.0,0.0,0.0,0.0,0.0,0.0,0.0,0.0,0.0,0.0,0.0,0.0,0.0,0.0,0.0,0.0,0.0,0.0,0.0,0.0,0.0,0.0,0.0,0.0,0.0,0.0,0.0,0.0,0.0,0.0,0.0,0.0,0.0,0.0,0.0,0.0,0.0,0.0,0.0,0.0,0.0,0.0,0.0,0.0,0.0,0.0,0.0,0.0,0.0,0.0,0.0,0.0,0.0,0.0,0.0,0.0,0.0,0.0,0.0,0.0,0.0,0.0,0.0,0.0,0.0,0.0,0.0,0.0,0.0,0.0,0.0,0.0,0.0,0.0,0.0,0.0,0.0,0.0,0.0,0.0,0.0,0.0,0.0,0.0,0.0,0.0,0.0,0.0,0.0,0.0,0.0,0.0,0.0,0.0,0.0,0.0,0.0,0.0,0.0,0.0,0.0,0.0,0.0,0.0,0.0,0.0,0.0,0.0,0.0,0.0,0.0,0.0,0.0,0.0,0.0,0.0,0.0,0.0,0.0,0.0,0.0,0.0,0.0,0.0,0.0,0.0,0.0,0.0,0.0,0.0,0.0,0.0,0.0,0.0,0.0,0.0,0.0,0.0,0.0,0.0,0.0,0.0,0.0,0.0,0.0,0.0,0.0,0.0,0.0,0.0,0.0,0.0,0.0,0.0,0.0,0.0,0.0,0.0,0.0,0.0,0.0,0.0,0.0,0.0,0.0,0.0,0.0,0.0,0.0,0.0,0.0,0.0,0.0,0.0,0.0,0.0,0.0,0.0,0.0,0.0,0.0,0.0,0.0,0.0,0.0,0.0,0.0,0.0,0.0,0.0,0.0,0.0,0.0,0.0,0.0,0.0,0.0,0.0,0.0,0.0,0.0,0.0,0.0,0.0,0.0,0.0,0.0,0.0,0.0,0.0,0.0,0.0,0.0,0.0,0.0,0.0,0.0,0.0,0.0,0.0,0.0,0.0,0.0,0.0,0.0,0.0,0.0,0.0,0.0,0.0,0.0,0.0,0.0,0.0,0.0,0.0,0.0,0.0,0.0,0.0,0.0,0.0,0.0,0.0,0.0,0.0,0.0,0.0,0.0,0.0,0.0,0.0,0.0,0.0,0.0,0.0,0.0,0.0,0.0,0.0,0.0,0.0,0.0,0.0,0.0,0.0,0.0,0.0,0.0,0.0,0.0,0.0,0.0,0.0,0.0,0.0,0.0,0.0,0.0,0.0,0.0,0.0,0.0,0.0,0.0,0.0,0.0,0.0,0.0,0.0,0.0,0.0,0.0,0.0,0.0,0.0,0.0,0.0,0.0,0.0,0.0,0.0,0.0,0.0,0.0,0.0,0.0,0.0,0.0,0.0,0.0,0.0,0.0,0.0,0.0,0.0,0.0,0.0,0.0,0.0,0.0,0.0,0.0,0.0,0.0,0.0,0.0,0.0,0.0,0.0,0.0,0.0,0.0,0.0,0.0,0.0,0.0,0.0,0.0,0.0,0.0,0.0,0.0,0.0,0.0,0.0,0.0,0.0,0.0,0.0,0.0,0.0,0.0,0.0,0.0,0.0,0.0,0.0,0.0,0.0,0.0,0.0,0.0,0.0,0.0,0.0,0.0,0.0,0.0,0.0,0.0,0.0,0.0,0.0,0.0,0.0,0.0,0.0,0.0,0.0,0.0,0.0,0.0,0.0,0.0,0.0,0.0,0.0,0.0,0.0,0.0,0.0,0.0,0.0,0.0,0.0,0.0,0.0,0.0,0.0,0.0,0.0,0.0,0.0,0.0,0.0,0.0,0.0,0.0,0.0,0.0,0.0,0.0,0.0,0.0,0.0,0.0,0.0,0.0,0.0,0.0,0.0,0.0,0.0,0.0,0.0,0.0,0.0,0.0,0.0,0.0,0.0,0.0,0.0,0.0,0.0,0.0,0.0,0.0,0.0,0.0,0.0,0.0,0.0,0.0,0.0,0.0,0.0,0.0,0.0,0.0,0.0,0.0,0.0,0.0,0.0,0.0,0.0,0.0,0.0,0.0,0.0,0.0,0.0,0.0,0.0,0.0,0.0,0.0,0.0,0.0,0.0,0.0,0.0,0.0,0.0,0.0,0.0,0.0,0.0,0.0,0.0,0.0,0.0,0.0,0.0,0.0,0.0,0.0,0.0,0.0,0.0,0.0,0.0,0.0,0.0,0.0,0.0,0.0,0.0,0.0,0.0,0.0,0.0,0.0,0.0,0.0,0.0,0.0,0.0,0.0,0.0,0.0,0.0,0.0,0.0,0.0,0.0,0.0,0.0,0.0,0.0,0.0,0.0,0.0,0.0,0.0,0.0,0.0,0.0,0.0,0.0,0.0,0.0,0.0,0.0,0.0,0.0,0.0,0.0,0.0,0.0,0.0,0.0,0.0,0.0,0.0,0.0,0.0,0.0,0.0,0.0,0.0,0.0,0.0,0.0,0.0,0.0,0.0,0.0,0.0,0.0,0.0,0.0,0.0,0.0,0.0,0.0,0.0,0.0,0.0,0.0,0.0,0.0,0.0,0.0,0.0,0.0,0.0,0.0,0.0,0.0,0.0,0.0,0.0,0.0,0.0,0.0,0.0,0.0,0.0,0.0,0.0,0.0,0.0,0.0,0.0,0.0,0.0,0.0,0.0,0.0,0.0,0.0,0.0,0.0,0.0,0.0,0.0,0.0,0.0,0.0,0.0,0.0,0.0,0.0,0.0,0.0,0.0,0.0,0.0,0.0,0.0,0.0,0.0,0.0,0.0,0.0,0.0,0.0,0.0,0.0,0.0,0.0,0.0,0.0,0.0,0.0,0.0,0.0,0.0,0.0,0.0,0.0,0.0,0.0,0.0,0.0,0.0,0.0,0.0,0.0,0.0,0.0,0.0,0.0,0.0,0.0,0.0,0.0,0.0,0.0,0.0,0.0,0.0,0.0,0.0,0.0,0.0,0.0,0.0,0.0,0.0,0.0,0.0,0.0,0.0,0.0,0.0,0.0,0.0,0.0,0.0,0.0,0.0,0.0,0.0,0.0,0.0,0.0,0.0,0.0,0.0,0.0,0.0,0.0,0.0,0.0,0.0,0.0,0.0,0.0,0.0,0.0,0.0,0.0,0.0,0.0,0.0,0.0,0.0,0.0,0.0,0.0,0.0,0.0,0.0,0.0,0.0,0.0,0.0,0.0,0.0,0.0,0.0,0.0,0.0,0.0,0.0,0.0,0.0,0.0,0.0,0.0,0.0,0.0,0.0,0.0,0.0,0.0,0.0,0.0,0.0,0.0,0.0,0.0,0.0,0.0,0.0,0.0,0.0,0.0,0.0,0.0,0.0,0.0,0.0,0.0,0.0,0.0,0.0,0.0,0.0,0.0,0.0,0.0,0.0,0.0,0.0,0.0,0.0,0.0,0.0,2.4977,0.0,0.0,0.0,0.0,0.0,0.0,0.0,0.0,0.0,0.0,0.0,0.0,0.0,0.0,0.0,0.0,0.0,0.0,0.0,0.0,0.0,0.0,0.0,0.0,0.0,0.0,0.0,0.0,0.0,0.0,0.0,0.0,0.0,0.0,0.0,0.0,0.0,0.0,0.0,0.0,0.0,0.0,0.0,0.0,0.0,0.0,0.0,0.0,0.0,0.0,0.0,0.0,0.0,0.0,0.0,0.0,0.0,0.0,0.0,0.0,0.0,0.0,0.0,0.0,0.0,0.0,0.0,0.0,0.0,0.0,0.0,0.0,0.0,0.0,0.0,0.0,0.0,0.0,0.0,0.0,0.0,0.0,0.0,0.0,0.0,0.0,0.0,0.0,0.0,0.0,0.0,0.0,0.0,0.0,0.0,0.0,0.0,0.0,0.0,0.0,0.0,0.0,0.0,0.0,0.0,0.0,0.0,0.0,0.0,0.0,2.4723,2.4723,2.4119,2.372,2.3584,0.0,0.0,0.0,0.0,0.0,0.0,0.0,0.0,0.0,0.0,0.0,0.0,0.0,0.0,0.0,0.0,0.0,0.0,0.0,0.0,0.0,0.0,0.0,0.0,0.0,0.0,0.0,0.0,0.0,0.0,0.0,0.0,0.0,0.0,0.0,0.0,0.0,0.0,0.0,0.0,0.0,0.0,0.0,0.0,0.0,0.0,0.0,0.0,0.0,0.0,0.0,0.0,0.0,0.0,0.0,0.0,0.0,0.0,0.0,0.0,0.0,0.0,0.0,0.0,0.0,0.0,0.0,0.0,0.0,0.0,0.0,0.0,0.0,0.0,0.0,0.0,0.0,0.0,0.0,0.0,0.0,0.0,0.0,0.0,0.0,0.0,0.0,0.0,0.0,0.0,0.0,0.0,0.0,0.0,0.0,0.0,0.0,0.0,0.0,0.0,0.0,0.0,0.0,0.0,0.0,0.0,0.0,0.0,0.0,0.0,0.0,0.0,2.2837,2.232,2.2006,0.0,0.0,0.0,0.0,0.0,0.0,0.0,0.0,0.0,0.0,0.0,0.0,0.0,0.0,0.0,0.0,0.0,0.0,0.0,0.0,0.0,0.0,0.0,0.0,0.0,0.0,0.0,0.0,0.0,0.0,0.0,0.0,0.0,0.0,0.0,0.0,0.0,0.0,0.0,0.0,0.0,0.0,0.0,0.0,0.0,0.0,0.0,0.0,0.0,0.0,0.0,0.0,0.0,0.0,0.0,0.0,0.0,0.0,0.0,0.0,0.0,0.0,0.0,0.0,0.0,0.0,0.0,0.0,0.0,0.0,0.0,0.0,0.0,0.0,0.0,0.0,0.0,0.0,0.0,0.0,0.0,0.0,0.0,0.0,0.0,0.0,0.0,0.0,0.0,0.0,0.0,0.0,0.0,0.0,0.0,0.0,0.0,0.0,0.0,0.0,0.0,0.0,0.0,0.0,0.0,0.0,0.0,0.0,0.0,0.0,2.2279,2.2222,2.141,0.0,2.0479,0.0,0.0,0.0,0.0,0.0,0.0,0.0,0.0,0.0,0.0,0.0,0.0,0.0,0.0,0.0,0.0,0.0,0.0,0.0,0.0,0.0,0.0,0.0,0.0,0.0,0.0,0.0,0.0,0.0,0.0,0.0,0.0,0.0,0.0,0.0,0.0,0.0,0.0,0.0,0.0,0.0,0.0,0.0,0.0,0.0,0.0,0.0,0.0,0.0,0.0,0.0,0.0,0.0,0.0,0.0,0.0,0.0,0.0,0.0,0.0,0.0,0.0,0.0,0.0,0.0,0.0,0.0,0.0,0.0,0.0,0.0,0.0,0.0,0.0,0.0,0.0,0.0,0.0,0.0,0.0,0.0,0.0,0.0,0.0,0.0,0.0,0.0,0.0,0.0,0.0,0.0,0.0,0.0,0.0,0.0,0.0,0.0,0.0,0.0,0.0,0.0,0.0,0.0,0.0,0.0,0.0,0.0,0.0,0.0,0.0,2.1017,2.1024,1.9917,1.9223,0.0,0.0,0.0,0.0,0.0,0.0,0.0,0.0,0.0,0.0,0.0,0.0,0.0,0.0,0.0,0.0,0.0,0.0,0.0,0.0,0.0,0.0,0.0,0.0,0.0,0.0,0.0,0.0,0.0,0.0,0.0,0.0,0.0,0.0,0.0,0.0,0.0,0.0,0.0,0.0,0.0,0.0,0.0,0.0,0.0,0.0,0.0,0.0,0.0,0.0,0.0,0.0,0.0,0.0,0.0,0.0,0.0,0.0,0.0,0.0,0.0,0.0,0.0,0.0,0.0,0.0,0.0,0.0,0.0,0.0,0.0,0.0,0.0,0.0,0.0,0.0,0.0,0.0,0.0,0.0,0.0,0.0,0.0,0.0,0.0,0.0,0.0,0.0,0.0,0.0,0.0,0.0,0.0,0.0,0.0,0.0,0.0,0.0,0.0,0.0,0.0,0.0,0.0,0.0,0.0,0.0,0.0,0.0,0.0,0.0,2.0385,1.9635,1.9216,1.835,1.7707,1.7291,0.0,0.0,0.0,0.0,0.0,0.0,0.0,0.0,0.0,0.0,0.0,0.0,0.0,0.0,0.0,0.0,0.0,0.0,0.0,0.0,0.0,0.0,0.0,0.0,0.0,0.0,0.0,0.0,0.0,0.0,0.0,0.0,0.0,0.0,0.0,0.0,0.0,0.0,0.0,0.0,0.0,0.0,0.0,0.0,0.0,0.0,0.0,0.0,0.0,0.0,0.0,0.0,0.0,0.0,0.0,0.0,0.0,0.0,0.0,0.0,0.0,0.0,0.0,0.0,0.0,0.0,0.0,0.0,0.0,0.0,0.0,0.0,0.0,0.0,0.0,0.0,0.0,0.0,0.0,0.0,0.0,0.0,0.0,0.0,0.0,0.0,0.0,0.0,0.0,0.0,0.0,0.0,0.0,0.0,0.0,0.0,0.0,0.0,0.0,0.0,0.0,0.0,0.0,0.0,0.0,0.0,0.0,0.0,2.0328,1.9113,1.7889,1.6767,1.6591,1.6307,0.0,0.0,0.0,0.0,0.0,0.0,0.0,0.0,0.0,0.0,0.0,0.0,0.0,0.0,0.0,0.0,0.0,0.0,0.0,0.0,0.0,0.0,0.0,0.0,0.0,0.0,0.0,0.0,0.0,0.0,0.0,0.0,0.0,0.0,0.0,0.0,0.0,0.0,0.0,0.0,0.0,0.0,0.0,0.0,0.0,0.0,0.0,0.0,0.0,0.0,0.0,0.0,0.0,0.0,0.0,0.0,0.0,0.0,0.0,0.0,0.0,0.0,0.0,0.0,0.0,0.0,0.0,0.0,0.0,0.0,0.0,0.0,0.0,0.0,0.0,0.0,0.0,0.0,0.0,0.0,0.0,0.0,0.0,0.0,0.0,0.0,0.0,0.0,0.0,0.0,0.0,0.0,0.0,0.0,0.0,0.0,0.0,0.0,0.0,0.0,0.0,0.0,0.0,0.0,0.0,0.0,0.0,0.0,0.0,1.9049,1.7824,1.6591,1.5343,1.5283,1.4992,0.0,0.0,0.0,0.0,0.0,0.0,0.0,0.0,0.0,0.0,0.0,0.0,0.0,0.0,0.0,0.0,0.0,0.0,0.0,0.0,0.0,0.0,0.0,0.0,0.0,0.0,0.0,0.0,0.0,0.0,0.0,0.0,0.0,0.0,0.0,0.0,0.0,0.0,0.0,0.0,0.0,0.0,0.0,0.0,0.0,0.0,0.0,0.0,0.0,0.0,0.0,0.0,0.0,0.0,0.0,0.0,0.0,0.0,0.0,0.0,0.0,0.0,0.0,0.0,0.0,0.0,0.0,0.0,0.0,0.0,0.0,0.0,0.0,0.0,0.0,0.0,0.0,0.0,0.0,0.0,0.0,0.0,0.0,0.0,0.0,0.0,0.0,0.0,0.0,0.0,0.0,0.0,0.0,0.0,0.0,0.0,0.0,0.0,0.0,0.0,0.0,0.0,0.0,0.0,0.0,0.0,0.0,0.0,0.0,1.7355,0.0,1.5283,1.4033,1.3968,1.3674,0.0,0.0,0.0,0.0,0.0,0.0,0.0,0.0,0.0,0.0,0.0,0.0,0.0,0.0,0.0,0.0,0.0,0.0,0.0,0.0,0.0,0.0,0.0,0.0,0.0,0.0,0.0,0.0,0.0,0.0,0.0,0.0,0.0,0.0,0.0,0.0,0.0,0.0,0.0,0.0,0.0,0.0,0.0,0.0,0.0,0.0,0.0,0.0,0.0,0.0,0.0,0.0,0.0,0.0,0.0,0.0,0.0,0.0,0.0,0.0,0.0,0.0,0.0,0.0,0.0,0.0,0.0,0.0,0.0,0.0,0.0,0.0,0.0,0.0,0.0,0.0,0.0,0.0,0.0,0.0,0.0,0.0,0.0,0.0,0.0,0.0,0.0,0.0,0.0,0.0,0.0,0.0,0.0,0.0,0.0,0.0,0.0,0.0,0.0,0.0,0.0,0.0,0.0,0.0,0.0,0.0,0.0,0.0,1.6714,1.517,1.4813,1.3968,1.2779,1.2719,1.2419,0.0,0.0,0.0,0.0,0.0,0.0,0.0,0.0,0.0,0.0,0.0,0.0,0.0,0.0,0.0,0.0,0.0,0.0,0.0,0.0,0.0,0.0,0.0,0.0,0.0,0.0,0.0,0.0,0.0,0.0,0.0,0.0,0.0,0.0,0.0,0.0,0.0,0.0,0.0,0.0,0.0,0.0,0.0,0.0,0.0,0.0,0.0,0.0,0.0,0.0,0.0,0.0,0.0,0.0,0.0,0.0,0.0,0.0,0.0,0.0,0.0,0.0,0.0,0.0,0.0,0.0,0.0,0.0,0.0,0.0,0.0,0.0,0.0,0.0,0.0,0.0,0.0,0.0,0.0,0.0,0.0,0.0,0.0,0.0,0.0,0.0,0.0,0.0,0.0,0.0,0.0,0.0,0.0,0.0,0.0,0.0,0.0,0.0,0.0,0.0,0.0,0.0,0.0,0.0,0.0,0.0,0.0,0.0,0.0,1.4162,1.3559,1.29,1.2118,1.1635,1.1212,0.0,0.0,0.0,0.0,0.0,0.0,0.0,0.0,0.0,0.0,0.0,0.0,0.0,0.0,0.0,0.0,0.0,0.0,0.0,0.0,0.0,0.0,0.0,0.0,0.0,0.0,0.0,0.0,0.0,0.0,0.0,0.0,0.0,0.0,0.0,0.0,0.0,0.0,0.0,0.0,0.0,0.0,0.0,0.0,0.0,0.0,0.0,0.0,0.0,0.0,0.0,0.0,0.0,0.0,0.0,0.0,0.0,0.0,0.0,0.0,0.0,0.0,0.0,0.0,0.0,0.0,0.0,0.0,0.0,0.0,0.0,0.0,0.0,0.0,0.0,0.0,0.0,0.0,0.0,0.0,0.0,0.0,0.0,0.0,0.0,0.0,0.0,0.0,0.0,0.0,0.0,0.0,0.0,0.0,0.0,0.0,0.0,0.0,0.0,0.0,0.0,0.0,0.0,0.0,0.0,0.0,0.0,0.0,0.0,1.2678,1.2504,1.1937,1.1091,1.0668,1.0243,0.9822,0.0,0.0,0.0,0.0,0.0,0.0,0.0,0.0,0.0,0.0,0.0,0.0,0.0,0.0,0.0,0.0,0.0,0.0,0.0,0.0,0.0,0.0,0.0,0.0,0.0,0.0,0.0,0.0,0.0,0.0,0.0,0.0,0.0,0.0,0.0,0.0,0.0,0.0,0.0,0.0,0.0,0.0,0.0,0.0,0.0,0.0,0.0,0.0,0.0,0.0,0.0,0.0,0.0,0.0,0.0,0.0,0.0,0.0,0.0,0.0,0.0,0.0,0.0,0.0,0.0,0.0,0.0,0.0,0.0,0.0,0.0,0.0,0.0,0.0,0.0,0.0,0.0,0.0,0.0,0.0,0.0,0.0,0.0,0.0,0.0,0.0,0.0,0.0,0.0,0.0,0.0,0.0,0.0,0.0,0.0,0.0,0.0,0.0,0.0,0.0,0.0,0.0,0.0,0.0,0.0,0.0,0.0,0.0,1.0894,1.1403,1.1068,0.9819,0.97,0.9396,0.0,0.0,0.0,0.0,0.0,0.0,0.0,0.0,0.0,0.0,0.0,0.0,0.0,0.0,0.0,0.0,0.0,0.0,0.0,0.0,0.0,0.0,0.0,0.0,0.0,0.0,0.0,0.0,0.0,0.0,0.0,0.0,0.0,0.0,0.0,0.0,0.0,0.0,0.0,0.0,0.0,0.0,0.0,0.0,0.0,0.0,0.0,0.0,0.0,0.0,0.0,0.0,0.0,0.0,0.0,0.0,0.0,0.0,0.0,0.0,0.0,0.0,0.0,0.0,0.0,0.0,0.0,0.0,0.0,0.0,0.0,0.0,0.0,0.0,0.0,0.0,0.0,0.0,0.0,0.0,0.0,0.0,0.0,0.0,0.0,0.0,0.0,0.0,0.0,0.0,0.0,0.0,0.0,0.0,0.0,0.0,0.0,0.0,0.0,0.0,0.0,0.0,0.0,0.0,0.0,0.0,0.0,0.0,0.0,0.9847,0.9762,0.9651,0.9447,0.8787,0.8297,0.0,0.0,0.0,0.0,0.0,0.0,0.0,0.0,0.0,0.0,0.0,0.0,0.0,0.0,0.0,0.0,0.0,0.0,0.0,0.0,0.0,0.0,0.0,0.0,0.0,0.0,0.0,0.0,0.0,0.0,0.0,0.0,0.0,0.0,0.0,0.0,0.0,0.0,0.0,0.0,0.0,0.0,0.0,0.0,0.0,0.0,0.0,0.0,0.0,0.0,0.0,0.0,0.0,0.0,0.0,0.0,0.0,0.0,0.0,0.0,0.0,0.0,0.0,0.0,0.0,0.0,0.0,0.0,0.0,0.0,0.0,0.0,0.0,0.0,0.0,0.0,0.0,0.0,0.0,0.0,0.0,0.0,0.0,0.0,0.0,0.0,0.0,0.0,0.0,0.0,0.0,0.0,0.0,0.0,0.0,0.0,0.0,0.0,0.0,0.0,0.0,0.0,0.0,0.0,0.0,0.0,0.0,0.0,0.9799,0.9114,0.8649,0.8401,0.8375,0.7962,0.7603,0.0,0.0,0.0,0.0,0.0,0.0,0.0,0.0,0.0,0.0,0.0,0.0,0.0,0.0,0.0,0.0,0.0,0.0,0.0,0.0,0.0,0.0,0.0,0.0,0.0,0.0,0.0,0.0,0.0,0.0,0.0,0.0,0.0,0.0,0.0,0.0,0.0,0.0,0.0,0.0,0.0,0.0,0.0,0.0,0.0,0.0,0.0,0.0,0.0,0.0,0.0,0.0,0.0,0.0,0.0,0.0,0.0,0.0,0.0,0.0,0.0,0.0,0.0,0.0,0.0,0.0,0.0,0.0,0.0,0.0,0.0,0.0,0.0,0.0,0.0,0.0,0.0,0.0,0.0,0.0,0.0,0.0,0.0,0.0,0.0,0.0,0.0,0.0,0.0,0.0,0.0,0.0,0.0,0.0,0.0,0.0,0.0,0.0,0.0,0.0,0.0,0.0,0.0,0.0,0.0,0.0,0.0,0.0,0.8961,0.8568,0.7887,0.7306,0.7013,0.7272,0.7168,0.0,0.0,0.0,0.0,0.0,0.0,0.0,0.0,0.0,0.0,0.0,0.0,0.0,0.0,0.0,0.0,0.0,0.0,0.0,0.0,0.0,0.0,0.0,0.0,0.0,0.0,0.0,0.0,0.0,0.0,0.0,0.0,0.0,0.0,0.0,0.0,0.0,0.0,0.0,0.0,0.0,0.0,0.0,0.0,0.0,0.0,0.0,0.0,0.0,0.0,0.0,0.0,0.0,0.0,0.0,0.0,0.0,0.0,0.0,0.0,0.0,0.0,0.0,0.0,0.0,0.0,0.0,0.0,0.0,0.0,0.0,0.0,0.0,0.0,0.0,0.0,0.0,0.0,0.0,0.0,0.0,0.0,0.0,0.0,0.0,0.0,0.0,0.0,0.0,0.0,0.0,0.0,0.0,0.0,0.0,0.0,0.0,0.0,0.0,0.0,0.0,0.0,0.0,0.0,0.0,0.0,0.0,0.0,0.8307,0.753,0.7107,0.6618,0.6109,0.6325,0.6352,0.0,0.0,0.0,0.0,0.0,0.0,0.0,0.0,0.0,0.0,0.0,0.0,0.0,0.0,0.0,0.0,0.0,0.0,0.0,0.0,0.0,0.0,0.0,0.0,0.0,0.0,0.0,0.0,0.0,0.0,0.0,0.0,0.0,0.0,0.0,0.0,0.0,0.0,0.0,0.0,0.0,0.0,0.0,0.0,0.0,0.0,0.0,0.0,0.7706,0.0,0.0,0.0,0.0,0.0,0.0,0.0,0.0,0.0,0.0,0.0,0.0,0.0,0.0,0.0,0.0,0.0,0.0,0.0,0.0,0.0,0.0,0.0,0.0,0.0,0.0,0.0,0.0,0.0,0.0,0.0,0.0,0.0,0.0,0.0,0.0,0.0,0.0,0.0,0.0,0.0,0.0,0.0,0.0,0.0,0.0,0.0,0.0,0.0,0.0,0.0,0.0,0.0,0.0,0.0,0.0,0.0,0.0,0.0,0.7654,0.721,0.6601,0.61,0.5826,0.5812,0.5754,0.0,0.0,0.0,0.0,0.0,0.0,0.0,0.0,0.0,0.0,0.0,0.0,0.0,0.0,0.0,0.0,0.0,0.0,0.0,0.0,0.0,0.0,0.0,0.0,0.0,0.0,0.0,0.0,0.0,0.0,0.0,0.0,0.0,0.0,0.0,0.0,0.0,0.0,0.0,0.0,0.0,0.0,0.0,0.0,0.0,0.0,0.0,0.0,0.0,0.0,0.0,0.0,0.0,0.0,0.0,0.0,0.0,0.0,0.0,0.0,0.0,0.0,0.0,0.0,0.0,0.0,0.0,0.0,0.0,0.0,0.0,0.0,0.0,0.0,0.0,0.0,0.0,0.0,0.0,0.0,0.0,0.0,0.0,0.0,0.0,0.0,0.0,0.0,0.0,0.0,0.0,0.0,0.0,0.0,0.0,0.0,0.0,0.0,0.0,0.0,0.0,0.0,0.0,0.0,0.0,0.0,0.0,0.7762,0.7154,0.7046,0.6267,0.5768,0.5768,0.5491,0.5382,0.5382,0.0,0.0,0.0,0.0,0.0,0.0,0.0,0.0,0.0,0.0,0.0,0.0,0.0,0.0,0.0,0.0,0.0,0.0,0.0,0.0,0.0,0.0,0.0,0.0,0.0,0.0,0.0,0.0,0.0,0.0,0.0,0.0,0.0,0.0,0.0,0.0,0.0,0.0,1.2985,1.1841,0.0,0.0,0.0,0.0,0.0,0.0,0.0,0.0,0.6548,0.0,0.0,0.0,0.0,0.0,0.0,0.0,0.0,0.0,0.0,0.0,0.0,0.0,0.0,0.0,0.0,0.0,0.0,0.0,0.0,0.0,0.0,0.0,0.0,0.0,0.0,0.0,0.0,0.0,0.0,0.0,0.0,0.0,0.0,0.0,0.0,0.0,0.0,0.0,0.0,0.0,0.0,0.0,0.0,0.0,0.0,0.0,0.0,0.0,0.0,0.0,0.0,0.0,0.0,0.0,0.0,0.8152,0.7543,0.6935,0.6442,0.6047,0.5712,0.5491,0.5437,0.5382,0.5382,0.0,0.0,0.0,0.0,0.0,0.0,0.0,0.0,0.0,0.0,0.0,0.0,0.0,0.0,0.0,0.0,0.0,0.0,0.0,0.0,0.0,0.0,0.0,0.0,0.0,0.0,0.0,0.0,0.0,0.0,0.0,0.0,0.0,0.0,0.0,0.0,0.0,0.0,0.0,1.0907,1.0414,0.0,0.0,0.0,0.0,0.0,0.0,0.0,0.0,0.5824,0.0,0.0,0.0,0.0,0.0,0.0,0.0,0.0,0.0,0.0,0.0,0.0,0.0,0.0,0.0,0.0,0.0,0.0,0.0,0.0,0.0,0.0,0.0,0.0,0.0,0.0,0.0,0.0,0.0,0.0,0.0,0.0,0.0,0.0,0.0,0.0,0.0,0.0,0.0,0.0,0.0,0.0,0.0,0.0,0.0,0.0,0.0,0.0,0.0,0.0,0.0,0.0,0.0,0.0,0.0,0.7989,0.716,0.6604,0.6272,0.5826,0.5547,0.5382,0.5382,0.5382,0.0,0.0,0.0,0.0,0.0,0.0,0.0,0.0,0.0,0.0,0.0,0.0,0.0,0.0,0.0,0.0,0.0,0.0,0.0,0.0,0.0,0.0,0.0,0.0,0.0,0.0,0.0,0.0,0.0,0.0,0.0,0.0,0.0,0.0,0.0,0.0,0.0,0.0,0.0,0.0,1.0139,0.953,0.8978,0.0,0.0,0.0,0.0,0.0,0.0,0.5654,0.5491,0.0,0.0,0.0,0.0,0.0,0.0,0.0,0.0,0.0,0.0,0.0,0.0,0.0,0.0,0.0,0.0,0.0,0.0,0.0,0.0,0.0,0.0,0.0,0.0,0.0,0.0,0.0,0.0,0.0,0.0,0.0,0.0,0.0,0.0,0.0,0.0,0.0,0.0,0.0,0.0,0.0,0.0,0.0,0.0,0.0,0.0,0.0,0.0,0.0,0.0,0.0,0.0,0.0,0.0,0.0,0.7878,0.6826,0.6272,0.6274,0.5717,0.5382,0.5382,0.5382,0.5382,0.0,0.0,0.0,0.0,0.0,0.0,0.0,0.0,0.0,0.0,0.0,0.0,0.0,0.0,0.0,0.0,0.0,0.0,0.0,0.0,0.0,0.0,0.0,0.0,0.0,0.0,0.0,0.0,0.0,0.0,0.0,0.0,0.0,0.0,0.0,0.0,0.0,0.0,0.0,0.0,0.0,0.8813,0.8589,0.7762,0.0,0.0,0.0,0.0,0.5712,0.5491,0.0,0.0,0.0,0.0,0.0,0.0,0.0,0.0,0.0,0.0,0.0,0.0,0.0,0.0,0.0,0.0,0.0,0.0,0.0,0.0,0.0,0.0,0.0,0.0,0.0,0.0,0.0,0.0,0.0,0.0,0.0,0.0,0.0,0.0,0.0,0.0,0.0,0.0,0.0,0.0,0.0,0.0,0.0,0.0,0.0,0.0,0.0,0.0,0.0,0.0,0.0,0.0,0.0,0.0,0.0,0.0,0.7607,0.6773,0.6272,0.6274,0.5717,0.5382,0.5382,0.5382,0.5382,0.0,0.0,0.0,0.0,0.0,0.0,0.0,0.0,0.0,0.0,0.0,0.0,0.0,0.0,0.0,0.0,0.0,0.0,0.0,0.0,0.0,0.0,0.0,0.0,0.0,0.0,0.0,0.0,0.0,0.0,0.0,0.0,0.0,0.0,0.0,0.0,0.0,0.0,0.0,0.0,0.0,0.8537,0.754,0.7263,0.6932,0.0,0.0,0.5712,0.5491,0.5154,0.0,0.0,0.0,0.0,0.0,0.0,0.0,0.0,0.0,0.0,0.0,0.0,0.0,0.0,0.0,0.0,0.0,0.0,0.0,0.0,0.0,0.0,0.0,0.0,0.0,0.0,0.0,0.0,0.0,0.0,0.0,0.0,0.0,0.0,0.0,0.0,0.0,0.0,0.0,0.0,0.0,0.0,0.0,0.0,0.0,0.0,0.0,0.0,0.0,0.0,0.0,0.0,0.0,0.0,0.0,0.7881,0.7607,0.6882,0.6439,0.633,0.5882,0.5545,0.5382,0.5382,0.5382,0.0,0.0,0.0,0.0,0.0,0.0,0.0,0.0,0.0,0.0,0.0,0.0,0.0,0.0,0.0,0.0,0.0,0.0,0.0,0.0,0.0,0.0,0.0,0.0,0.0,0.0,0.0,0.0,0.0,0.0,0.0,0.0,0.0,0.0,0.0,0.0,0.0,0.0,0.0,0.0,0.0,0.0,0.7265,0.6879,0.0,0.0,0.0,0.5435,0.5156,0.0,0.0,0.0,0.0,0.0,0.0,0.0,0.0,0.0,0.0,0.0,0.0,0.0,0.0,0.0,0.0,0.0,0.0,0.0,0.0,0.0,0.0,0.0,0.0,0.0,0.0,0.0,0.0,0.0,0.0,0.0,0.0,0.0,0.0,0.0,0.0,0.0,0.0,0.0,0.0,0.0,0.0,0.0,0.0,0.0,0.0,0.0,0.0,0.0,0.0,0.0,0.0,0.0,0.0,0.0,0.0,0.0,0.7607,0.6993,0.6604,0.6383,0.6102,0.5824,0.5605,0.5605,0.0,0.0,0.0,0.0,0.0,0.0,0.0,0.0,0.0,0.0,0.0,0.0,0.0,0.0,0.0,0.0,0.0,0.0,0.0,0.0,0.0,0.0,0.0,0.0,0.0,0.0,0.0,1.2382,0.0,0.0,0.0,0.0,0.0,0.0,0.0,0.0,0.0,0.0,0.0,0.0,0.0,0.0,0.7382,0.7046,0.6492,0.6051,0.0,0.0,0.527,0.4931,0.4819,0.465,0.0,0.0,0.0,0.0,0.0,0.0,0.0,0.0,0.0,0.0,0.0,0.0,0.0,0.0,0.0,0.0,0.0,0.0,0.0,0.0,0.0,0.0,0.0,0.0,0.0,0.0,0.0,0.0,0.0,0.0,0.0,0.0,0.0,0.0,0.0,0.0,0.0,0.0,0.0,0.0,0.0,0.0,0.0,0.0,0.0,0.0,0.0,0.0,0.0,0.0,0.0,0.0,0.0,0.0,0.0,0.7607,0.6993,0.6712,0.6659,0.6383,0.6274,0.6221,0.6221,0.6219,0.0,0.0,0.0,0.0,0.0,0.0,0.0,0.0,0.0,0.0,0.0,0.0,0.0,0.0,0.0,0.0,0.0,0.0,0.0,0.0,0.0,0.0,0.0,0.0,0.0,0.0,0.0,0.0,0.0,0.0,0.0,0.0,0.0,0.0,0.0,0.0,0.0,0.0,0.0,0.0,0.0,0.7046,0.6442,0.6047,0.5712,0.0,0.0,0.527,0.4931,0.4706,0.4424,0.4036,0.0,0.0,0.0,0.0,0.0,0.0,0.0,0.0,0.0,0.0,0.0,0.0,0.0,0.0,0.0,0.0,0.0,0.0,0.0,0.0,0.0,0.0,0.0,0.0,0.0,0.0,0.0,0.0,0.0,0.0,0.0,0.0,0.0,0.0,0.0,0.0,0.0,0.0,0.0,0.0,0.0,0.0,0.0,0.0,0.0,0.0,0.0,0.0,0.0,0.0,0.0,0.0,0.0,0.7878,0.7607,0.7215,0.6879,0.6712,0.6604,0.6495,0.6274,0.6272,0.6272,0.0,0.0,0.0,0.0,0.0,0.0,0.0,0.0,0.0,0.0,0.0,0.0,0.0,0.0,0.0,0.0,0.0,0.0,0.0,0.0,0.0,0.0,0.0,0.0,0.0,0.0,0.0,0.0,1.2278,1.206,1.1623,0.0,0.0,0.0,0.0,0.0,0.0,0.0,0.0,0.0,0.0,0.6771,0.6386,0.5991,0.0,0.0,0.5214,0.4987,0.4706,0.437,0.4091,0.3813,0.3643,0.0,0.0,0.0,0.0,0.0,0.0,0.0,0.0,0.0,0.0,0.0,0.0,0.0,0.0,0.0,0.0,0.0,0.0,0.0,0.0,0.0,0.0,0.0,0.0,0.0,0.0,0.0,0.0,0.0,0.0,0.0,0.0,0.0,0.0,0.0,0.0,0.0,0.0,0.0,0.0,0.0,0.0,0.0,0.0,0.0,0.0,0.0,0.0,0.0,0.0,0.0,0.0,0.8045,0.7881,0.749,0.7215,0.6993,0.6879,0.6771,0.6604,0.6662,0.6664,0.0,0.0,0.0,0.0,0.0,0.0,0.0,0.0,0.0,0.0,0.0,0.0,0.0,0.0,0.0,0.0,0.0,0.0,0.0,0.0,0.0,0.0,0.0,0.0,0.0,0.0,0.0,0.0,1.2273,1.2001,1.1509,0.0,0.0,0.0,0.0,0.0,0.0,0.0,0.0,0.0,0.0,0.6495,0.633,0.5938,0.5603,0.5437,0.51,0.4819,0.4536,0.4204,0.3924,0.3643,0.0,0.0,0.0,0.0,0.0,0.0,0.0,0.0,0.0,0.0,0.0,0.0,0.0,0.0,0.0,0.0,0.0,0.0,0.0,0.0,0.0,0.0,0.0,0.0,0.0,0.0,0.0,0.0,0.0,0.0,0.0,0.0,0.0,0.0,0.0,0.0,0.0,0.0,0.0,0.0,0.0,0.0,0.0,0.0,0.0,0.0,0.0,0.0,0.0,0.0,0.0,0.0,0.0,0.0,0.8488,0.7881,0.7607,0.7551,0.7324,0.7213,0.7213,0.7438,0.7551,0.7551,0.0,0.0,0.0,0.0,0.0,0.0,0.0,0.0,0.0,0.0,0.0,0.0,0.0,0.0,0.0,0.0,0.0,0.0,0.0,0.0,0.0,0.0,0.0,0.0,0.0,0.0,1.2377,1.1946,1.1514,0.0,0.0,0.0,0.0,0.0,0.0,0.0,0.0,0.0,0.0,0.6993,0.633,0.633,0.5772,0.5437,0.5382,0.51,0.4817,0.4536,0.4203,0.3924,0.0,0.0,0.0,0.0,0.0,0.0,0.0,0.0,0.0,0.0,0.0,0.0,0.0,0.0,0.0,0.0,0.0,0.0,0.0,0.0,0.0,0.0,0.0,0.0,0.0,0.0,0.0,1.6099,1.6099,0.0,0.0,0.0,0.0,0.0,0.0,0.0,0.0,0.0,0.0,0.0,1.4874,1.4606,0.0,0.0,0.0,0.0,0.0,0.0,0.0,0.0,0.0,0.0,0.0,0.0,0.8706,0.8484,0.81,0.7881,0.7881,0.7768,0.7709,0.7712,0.7826,0.7881,0.7881,0.0,0.0,0.0,0.0,0.0,0.0,0.0,0.0,0.0,0.0,0.0,0.0,0.0,0.0,0.0,0.0,0.0,0.0,0.0,0.0,0.0,0.0,0.0,0.0,0.0,1.2082,0.0,0.0,0.0,0.0,0.0,0.0,0.0,0.0,0.0,0.0,0.0,0.7992,0.7992,0.6993,0.6272,0.6272,0.5772,0.5382,0.0,0.0,0.0,0.0,0.0,0.0,0.0,0.0,0.0,0.0,0.0,0.0,0.0,0.0,0.2581,0.2244,0.1963,0.1683,0.1346,0.0,0.0,0.0,0.0,0.0,0.0,0.0,0.0,0.0,0.0,0.0,0.0,0.0,0.0,0.0,0.0,1.6743,0.0,0.0,0.0,0.0,0.0,0.0,0.0,0.0,1.541,1.5303,1.5303,1.4928,1.4713,0.0,1.4067,1.364,0.0,0.0,0.0,0.0,0.0,0.0,0.0,0.0,0.9147,0.8927,0.854,0.8318,0.8318,0.8208,0.8156,0.8156,0.8377,0.8546,0.8598,0.8549,0.863,0.0,0.0,0.0,0.0,0.0,0.0,0.0,0.0,0.0,0.0,0.0,0.0,0.0,0.0,0.0,0.0,0.0,0.0,0.0,0.0,0.0,0.0,0.0,1.193,0.0,0.0,0.0,0.0,0.0,0.0,0.0,0.0,0.0,0.9816,0.8764,0.7992,0.7992,0.7049,0.6272,0.6272,0.0,0.0,0.0,0.0,0.0,0.0,0.0,0.3924,0.3757,0.3643,0.3587,0.3587,0.3587,0.3475,0.3138,0.0,0.0,0.2244,0.1963,0.1683,0.1234,0.1009,0.0673,0.0,-0.0336,-0.0841,0.0,0.0,0.0,0.0,0.0,0.0,0.0,0.0,1.7635,1.7635,0.0,1.7331,0.0,0.0,0.0,0.0,0.0,0.0,0.0,0.0,1.6158,1.5945,1.5891,1.5303,1.4874,1.4606,1.4331,1.4067,1.3694,1.2871,0.0,0.0,0.0,0.0,0.0,0.0,0.9816,0.9761,0.9203,0.8923,0.8923,0.865,0.8537,0.853,0.9082,0.9519,0.9739,0.9583,0.9498,0.9552,0.9414,0.0,0.0,0.0,0.0,0.0,0.0,0.0,0.0,0.0,0.0,0.0,0.0,0.0,0.0,0.0,0.0,0.0,0.0,0.0,0.0,1.1997,0.0,0.0,0.0,0.0,0.0,0.0,0.0,0.0,0.0,0.0,0.9816,0.8764,0.7989,0.7992,0.0,0.0,0.0,0.0,0.5382,0.5382,0.5156,0.4931,0.4931,0.4428,0.4038,0.4038,0.0,0.0,0.3587,0.3587,0.3475,0.3194,0.2915,0.2581,0.23,0.2019,0.1627,0.1009,0.0897,0.0617,-0.0224,-0.0673,-0.1065,1.95,0.0,0.0,0.0,0.0,1.8202,1.816,1.816,1.8153,1.816,1.816,1.8115,0.0,0.0,0.0,0.0,0.0,0.0,1.7067,1.7008,1.663,1.6365,1.6164,1.5838,1.5523,1.5208,1.4719,1.4331,1.4067,1.3581,1.2985,1.2278,0.0,0.0,0.0,0.0,1.0253,0.9816,0.9647,0.9537,0.9537,0.9485,0.9369,0.9201,0.9468,0.9625,0.9731,0.9836,1.0019,1.0229,1.018,0.0,0.0,0.0,0.0,0.0,0.0,0.0,0.0,0.0,0.0,0.0,0.0,0.0,0.0,0.0,0.0,0.0,0.0,0.0,1.1671,1.1802,1.186,0.0,0.0,0.0,0.0,0.0,0.0,0.0,0.0,0.0,0.9812,0.8985,0.8266,0.0,0.0,0.6771,0.6386,0.5938,0.5603,0.5435,0.0,0.0,0.0,0.4761,0.4596,0.437,0.4091,0.3813,0.3643,0.3587,0.3587,0.3475,0.3194,0.2915,0.2581,0.2132,0.1627,0.1065,0.0897,0.0504,-0.0504,-0.0841,-0.1177,1.9896,1.937,1.9181,1.9101,1.9101,1.9101,1.9101,1.9094,1.9094,1.9049,1.9049,1.8945,1.8952,1.8893,1.8475,0.0,0.0,0.0,1.7641,1.7648,1.7265,1.689,1.6577,1.6203,1.5785,1.5334,1.4954,1.4581,1.4201,1.3789,1.3318,1.2786,0.0,0.0,1.1233,1.0945,1.0584,1.0266,1.0154,1.0104,1.0104,1.0104,1.0049,1.005,1.0108,1.0208,1.0312,1.0449,1.0621,1.0874,1.0799,1.0859,0.0,0.0,0.0,0.0,0.0,0.0,0.0,0.0,0.0,0.0,0.0,1.1878,0.0,0.0,0.0,0.0,1.2073,1.1927,1.1785,1.187,0.0,0.0,0.0,0.0,0.0,0.0,0.0,1.1131,1.0747,1.0363,1.0036,0.9316,0.8654,0.81,0.7543,0.7046,0.6495,0.0,0.5768,0.5601,0.5491,0.5326,0.5156,0.4987,0.4817,0.4536,0.4314,0.4092,0.3813,0.3757,0.3701,0.3587,0.3306,0.3026,0.2859,0.2356,0.1739,0.1065,0.0897,0.0504,-0.0673,-0.0897,-0.1234,2.0403,2.0189,2.0138,2.013,2.0138,2.0138,2.0086,2.0138,2.0086,2.0138,2.0078,1.9828,1.9732,1.968,1.9146,0.0,0.0,1.8506,1.8433,1.8387,1.7896,1.7427,1.7056,1.6536,1.5953,1.5214,1.5157,1.4847,1.4282,1.3782,1.347,1.3424,1.2626,1.2202,1.2048,1.1338,1.0984,1.0984,1.0733,1.0625,1.0573,1.056,1.0703,1.091,1.0944,1.1091,1.1292,1.1231,1.134,1.1537,1.1396,1.1438,1.1683,0.0,0.0,0.0,0.0,0.0,0.0,0.0,0.0,0.0,0.0,0.0,0.0,0.0,0.0,0.0,1.2175,0.0,1.2055,1.2188,0.0,0.0,0.0,1.2332,1.206,1.2001,1.1787,1.1236,0.0,0.0,1.0366,0.0,0.9099,0.8211,0.7598,0.7157,0.6771,0.627,0.5877,0.5824,0.5659,0.5491,0.5437,0.5156,0.4875,0.4594,0.4536,0.4424,0.4147,0.4036,0.3924,0.3699,0.3418,0.3138,0.3138,0.2635,0.2019,0.1177,0.0953,0.0561,-0.0504,-0.0841,-0.1234,2.0968,2.0712,2.0712,2.0498,2.0138,2.0138,2.0138,2.0138,2.0138,2.0138,2.0078,2.0034,2.0034,1.9983,1.9872,1.9768,1.9657,1.9206,1.8891,1.868,1.8037,1.7479,1.7015,1.6713,1.6377,1.591,1.5493,1.519,1.4847,1.4485,1.4225,1.3964,1.3436,1.2807,1.22,1.1996,1.1761,1.1502,1.145,1.1399,1.1399,1.1308,1.1281,1.1383,1.1425,1.1489,1.1538,1.189,1.211,1.2209,1.2353,1.2467,1.2521,1.2516,0.0,0.0,0.0,0.0,0.0,0.0,0.0,0.0,0.0,1.2419,1.2662,0.0,1.2716,0.0,1.2467,1.234,1.2506,1.2527,0.0,0.0,1.2671,1.2659,1.2327,1.211,1.1951,1.1782,1.135,1.0911,1.0637,1.0312,0.9757,0.8813,0.8149,0.7657,0.7157,0.671,0.6437,0.6216,0.6105,0.5993,0.5712,0.5435,0.5156,0.4875,0.4817,0.4706,0.4424,0.4369,0.4258,0.398,0.3868,0.3643,0.3194,0.297,0.2578,0.1794,0.1234,0.0673,-0.0056,-0.0561,-0.1121,2.1377,2.1275,2.1275,2.1062,2.0806,2.055,2.0447,2.0447,2.0447,2.0447,2.0454,2.0439,2.0403,2.03,2.03,2.012,1.9857,1.953,1.9212,1.892,1.8386,1.788,1.7345,1.7106,1.6742,1.6166,1.5767,1.5472,1.5233,1.4838,1.459,1.4436,1.39,1.3451,1.2986,1.2545,1.2194,1.1992,1.1892,1.1887,1.1987,1.1929,1.1969,1.2068,1.21,1.2175,1.2268,1.2565,1.2759,1.2856,1.3141,1.3286,1.3286,1.3383,1.3528,0.0,0.0,0.0,0.0,0.0,0.0,0.0,0.0,0.0,0.0,0.0,1.3055,0.0,1.2807,1.2753,1.2883,1.2817,1.2837,1.2966,1.3022,1.2989,1.2663,1.25,1.2278,1.206,1.1728,1.1345,1.0962,1.0641,1.0253,0.9585,0.8868,0.8208,0.7657,0.7213,0.6882,0.6715,0.6497,0.6216,0.6047,0.5884,0.5661,0.5375,0.532,0.5152,0.4761,0.4706,0.4592,0.4314,0.4203,0.4091,0.3587,0.3362,0.3082,0.2522,0.1794,0.1009,0.0168,-0.028,-0.0729,2.1717,2.1674,2.1674,2.1674,2.1683,2.1173,2.1019,2.0968,2.1019,2.1019,2.1019,2.1027,2.0873,2.0668,2.057,2.0237,1.9756,1.9614,1.9422,1.9089,1.8743,1.8327,1.7853,1.7572,1.7039,1.6339,1.6062,1.5778,1.5486,1.5064,1.4879,1.4783,1.434,1.41,1.4052,1.3141,1.2662,1.2565,1.2316,1.2316,1.2521,1.2565,1.271,1.2953,1.2953,1.305,1.3244,1.3292,1.3443,1.363,1.3913,1.4052,1.4052,1.4298,1.4394,0.0,1.4394,0.0,0.0,0.0,0.0,0.0,0.0,0.0,0.0,1.3497,1.3389,1.3147,1.3175,1.3242,1.3275,1.322,1.3299,1.3467,1.3462,1.3315,1.2989,1.2935,1.2713,1.2164,1.2114,1.1841,1.1291,1.0966,1.0692,1.0308,0.9695,0.8978,0.8318,0.7712,0.7321,0.7265,0.6826,0.655,0.6439,0.6386,0.6219,0.5933,0.5822,0.5654,0.521,0.5043,0.4929,0.4702,0.4592,0.4424,0.4148,0.3867,0.3587,0.3194,0.2522,0.1738,0.0617,0.0112,-0.0336,2.1878,2.1725,2.1674,2.1674,2.1674,2.1573,2.1573,2.1573,2.1522,2.1522,2.1522,2.1522,2.1522,2.1454,2.0968,2.0706,2.056,1.9764,1.9287,1.901,1.8706,1.8356,1.8045,1.7764,1.7446,1.7099,1.6871,1.6541,1.6048,1.5954,1.5676,1.5296,1.5153,1.5064,1.4885,0.0,0.0,0.0,1.3249,1.3249,1.3298,1.3528,1.3619,1.3715,1.3908,0.0,1.4106,1.425,1.44,1.4496,1.4742,0.0,0.0,0.0,0.0,0.0,0.0,0.0,0.0,0.0,0.0,0.0,1.4796,1.4406,1.3588,1.3497,1.3491,1.3448,1.3624,1.384,1.4033,1.4293,1.4278,1.4073,1.4035,1.3797,1.331,1.3261,1.3098,1.2772,1.2495,1.2219,1.1837,1.1623,1.124,1.0743,1.0468,1.0139,0.9537,0.8543,0.7875,0.7823,0.7549,0.7271,0.7046,0.6826,0.6606,0.6272,0.6216,0.6161,0.5993,0.5768,0.5543,0.5262,0.5039,0.4761,0.4482,0.4369,0.4145,0.3643,0.3363,0.2915,0.1683,0.0673,-0.0056,2.2594,0.0,2.2333,2.2283,0.0,2.2139,2.2131,2.2139,2.1827,2.1674,2.1674,2.1674,2.1584,2.1469,2.113,2.0794,2.0434,1.994,1.9594,1.9276,1.8961,1.8697,1.8458,1.8195,1.7962,1.7707,1.7434,1.72,1.6958,1.6723,1.644,1.6163,1.5913,1.5771,1.5642,1.5356,1.4783,1.3919,1.3871,1.3968,1.4118,1.425,1.4388,1.4621,0.0,0.0,0.0,0.0,0.0,0.0,0.0,0.0,0.0,0.0,0.0,1.5838,1.5832,1.5784,1.5635,1.5642,1.5588,1.5452,1.5452,1.5124,1.4358,1.431,1.4268,1.4296,1.4427,1.456,1.4682,1.485,1.4814,1.4626,1.4606,1.4439,1.4013,1.3851,1.3635,1.3315,1.3039,1.2713,1.2278,1.2114,1.1787,1.124,1.1021,1.0802,1.0417,0.9427,0.8602,0.8318,0.8156,0.7931,0.7657,0.749,0.7271,0.6996,0.6829,0.6662,0.655,0.6272,0.5991,0.5877,0.5714,0.5433,0.5039,0.4927,0.476,0.4201,0.3811,0.3475,0.2747,0.1738,0.0729,2.3256,2.3046,2.3097,2.2946,2.2745,2.2754,2.2745,2.2695,0.0,0.0,0.0,2.176,2.157,2.1304,2.1172,2.0725,2.0154,2.0088,1.986,1.9587,1.9387,1.915,1.8928,1.8759,1.8574,1.8272,1.8087,1.7908,1.7815,1.7441,1.7207,1.712,1.6676,1.6426,1.6379,1.6197,1.5676,1.4867,1.4627,1.4688,1.4879,1.4921,1.5159,1.5527,1.5629,1.5771,1.6015,1.6062,1.6062,1.6062,1.6244,1.6379,1.6386,1.6574,1.6723,1.673,1.673,1.6629,1.6433,1.6379,1.6292,1.6062,1.6069,1.5832,1.5267,1.5271,1.529,1.5268,1.5326,1.5375,1.5341,1.5379,1.5334,1.5232,1.5256,1.5089,1.4761,1.4546,1.4331,1.3905,1.364,1.3256,1.2713,1.2604,1.2387,1.1951,1.1678,1.135,1.1131,1.0253,0.932,0.8875,0.8764,0.8654,0.8322,0.8266,0.81,0.7773,0.7546,0.7321,0.699,0.6717,0.6553,0.6437,0.6439,0.6102,0.5652,0.5522,0.5293,0.4738,0.4228,0.3833,0.3556,0.2833,0.1835,2.3397,2.3347,2.3347,2.3306,2.3297,2.3297,2.3306,2.3256,2.2695,2.2493,2.2467,2.211,2.1948,2.1814,2.0968,2.0528,2.0402,1.9932,1.9629,0.0,1.9587,1.9541,1.9496,1.945,1.9304,1.9058,1.9004,1.8773,1.8404,1.8311,1.8087,1.7628,1.7535,1.7387,1.7185,1.7091,1.6998,1.6857,1.6015,1.5588,1.5635,1.5866,1.6048,1.6096,1.6534,1.6791,1.6831,1.7005,1.7099,1.7091,1.7145,1.7138,1.7138,1.7185,1.7185,1.7185,1.7185,1.7192,1.7138,1.7138,1.7138,1.7091,1.7091,1.6723,1.5791,1.5969,1.6031,1.5839,1.6275,1.6446,1.6174,1.6317,1.6362,1.6158,1.6105,1.5891,1.5452,1.5345,1.5083,1.4552,1.4229,1.3959,1.3586,1.331,1.3098,1.2827,1.2604,1.2446,1.1841,1.0916,1.0091,0.9702,0.9596,0.9485,0.921,0.921,0.8989,0.8488,0.8377,0.8208,0.7878,0.7593,0.7315,0.7096,0.6861,0.6584,0.6255,0.6086,0.5766,0.5257,0.4942,0.4629,0.4037,0.3498,0.2819,2.4143,2.3985,2.3994,2.3895,2.3795,2.3646,2.3596,2.352,2.2918,2.2632,2.2664,2.2449,2.2144,2.1743,2.1292,2.0969,2.0752,2.0497,2.0292,2.0209,2.0027,1.9891,1.9762,1.9671,1.9541,1.9433,1.9433,1.9296,1.9112,1.8966,1.8727,1.8504,1.8365,1.8218,1.8125,1.8125,1.8133,1.8079,1.7138,1.6622,1.6629,1.6716,1.6857,1.6998,1.7254,1.7441,1.7581,1.7846,1.7939,1.7978,1.8079,1.8125,1.8125,1.8118,1.8125,1.8125,1.8125,1.8125,1.8079,1.8125,1.8125,1.8118,1.8025,1.7821,1.7574,1.7159,1.6946,1.7057,1.7313,1.7383,1.7264,1.7351,1.7272,1.6855,1.6802,1.6636,1.6258,1.5992,1.5785,1.5351,1.5078,1.4708,1.4229,1.4067,1.3905,1.3689,1.3472,1.3098,1.2604,1.206,1.1404,1.0692,1.0527,1.0312,0.9981,0.9875,0.9706,0.9261,0.9096,0.893,0.8758,0.8388,0.7947,0.7822,0.7451,0.7132,0.6807,0.6603,0.6299,0.5915,0.5514,0.5159,0.4784,0.4254,0.3428,2.4971,2.4775,2.4686,2.4529,2.4264,2.3984,2.3857,2.3763,2.3187,2.2874,2.2736,2.2544,2.212,2.1627,2.1511,2.129,2.1024,2.0997,2.0916,2.0736,2.0555,2.0337,2.0155,1.9973,1.9945,1.9945,1.9899,1.9899,1.9808,1.9654,1.9509,1.9417,1.9242,1.915,1.9104,1.915,1.915,1.9104,1.8342,1.7885,1.7652,1.7652,1.7753,1.7955,1.8001,1.8141,1.8357,1.8635,1.8727,1.8773,1.892,1.8966,1.8974,1.8974,1.8974,1.8974,1.8974,1.8974,1.8966,1.8974,1.8974,1.8974,1.8899,1.8988,1.9177,1.8629,1.8134,1.8289,1.8337,1.8391,1.8328,1.8279,1.8122,1.7648,1.7536,1.743,1.7054,1.6802,1.6537,1.6264,1.5939,1.5559,1.5143,1.4928,1.4761,1.4546,1.4229,1.3802,1.3369,1.3256,1.2762,1.2105,1.1559,1.1236,1.0802,1.0692,1.0527,1.0198,0.9885,0.9698,0.9505,0.8974,0.8565,0.8434,0.8149,0.7781,0.7437,0.7194,0.6918,0.649,0.6145,0.5761,0.5441,0.4924,0.4013,2.5596,2.5548,2.5323,2.5088,2.4777,2.4398,2.4238,2.4172,2.3749,2.3345,2.2953,2.2077,2.1726,2.1556,2.1264,2.1086,2.1042,2.0997,2.0997,2.0997,2.0943,2.0907,2.0862,2.0862,2.0862,2.0862,2.0862,2.0736,2.0609,2.0564,2.0428,2.0238,2.0147,2.0155,2.0155,2.0155,2.0147,2.0155,2.0065,1.96,1.8735,1.8681,1.8689,1.8689,1.8966,1.905,1.9096,1.935,1.9496,1.9487,1.9541,1.9533,1.9541,1.9541,1.9541,1.9533,1.9533,1.9541,1.9541,1.9541,1.9541,1.9558,1.9813,1.9993,2.0119,2.0336,2.0048,1.9434,1.9404,1.9413,1.9212,1.9175,1.9011,1.8677,1.8617,1.8468,1.7957,1.7859,1.7641,1.712,1.6796,1.6471,1.6158,1.5945,1.5672,1.5399,1.5137,1.4821,1.4439,1.4218,1.4094,1.3722,1.3024,1.2264,1.1878,1.1837,1.1474,1.1038,1.0766,1.0469,1.0091,0.9781,0.9452,0.9017,0.8731,0.8487,0.8105,0.7761,0.7558,0.7135,0.6774,0.6488,0.5821,0.5383,0.4674,2.6418,2.638,2.61,2.5759,2.5408,2.5089,2.4771,2.4509,2.3963,2.3618,2.3345,2.2756,2.2329,2.2051,2.1885,2.1856,2.1802,2.1802,2.1758,2.1633,2.1642,2.1597,2.141,2.141,2.1419,2.141,2.141,2.1365,2.1284,2.1284,2.1239,2.115,2.115,2.1105,2.1105,2.1015,2.0979,2.0934,2.0789,2.06,2.0337,1.9928,1.97,1.97,1.9791,1.9837,1.9874,2.011,2.0255,2.0255,2.0382,2.0419,2.0419,2.0419,2.0428,2.0428,2.0428,2.0428,2.0428,2.0419,2.0419,2.0419,2.0698,2.0878,2.114,2.1357,2.1346,2.1167,2.0727,2.0351,2.0256,2.0094,1.9887,1.9613,1.9457,1.9205,1.8803,1.8586,1.8318,1.795,1.7641,1.7371,1.7107,1.6948,1.6683,1.6305,1.6092,1.5873,1.5452,1.5298,1.5121,1.4894,1.4378,1.3635,1.2841,1.2413,1.2093,1.1615,1.1265,1.0945,1.0814,1.0319,0.9942,0.9729,0.9466,0.9161,0.8762,0.8538,0.827,0.7862,0.745,0.7086,0.6439,0.6242,0.5739,2.7194,2.7173,2.6785,2.6361,2.5943,2.5504,2.5141,2.4801,2.4182,2.3895,2.3856,2.3612,2.3299,2.296,2.2696,2.2564,2.2618,2.2564,2.253,2.2353,2.2353,2.2274,2.2087,2.2087,2.2087,2.2087,2.2087,2.2097,2.2087,2.2087,2.2078,2.2087,2.2043,2.2008,2.2008,2.1794,2.1696,2.166,2.1445,2.1499,2.1562,2.115,2.0826,2.0699,2.0699,2.0654,2.0699,2.088,2.097,2.1015,2.1096,2.1177,2.1186,2.1186,2.1177,2.1186,2.1177,2.1177,2.1186,2.1186,2.1186,2.1212,2.1424,2.1722,2.2046,2.2281,2.256,2.2809,2.2224,2.1717,2.1224,2.107,2.0814,2.0447,2.0248,2.0042,1.9783,1.9457,1.9198,1.8885,1.8684,1.8384,1.816,1.8055,1.7845,1.7411,1.7128,1.6878,1.6438,1.6218,1.5995,1.577,1.5482,1.4752,1.3607,1.309,1.268,1.2279,1.1948,1.1723,1.1555,1.1033,1.056,1.0447,1.0132,0.985,0.9598,0.9305,0.8985,0.863,0.823,0.7829,0.7385,0.7241,0.6839,2.794,2.7829,2.7195,2.6743,2.6429,2.5589,2.5217,2.5168,2.4714,2.4497,2.4518,2.4476,2.4413,2.4327,2.3517,2.3091,2.3091,2.3091,2.3101,2.3091,2.3047,2.3057,2.3057,2.3047,2.3057,2.3047,2.3047,2.3047,2.3047,2.3047,2.3047,2.3003,2.2838,2.2759,2.2706,2.2485,2.2353,2.2353,2.2309,2.2344,2.2353,2.2309,2.2033,2.1731,2.1642,2.1651,2.1651,2.1651,2.1642,2.1642,2.1687,2.1687,2.1687,2.1687,2.1731,2.1696,2.1687,2.1687,2.1687,2.1687,2.1731,2.1742,2.2062,2.2437,2.2785,2.3224,2.3578,2.3971,2.385,2.3379,2.2375,2.2072,2.1827,2.1361,2.1216,2.107,2.0865,2.0557,2.03,2.0034,1.9776,1.945,1.9257,1.922,1.8998,1.8608,1.8187,1.7719,1.7422,1.6927,1.6643,1.6489,1.6111,1.5405,1.4384,1.3879,1.3629,1.3255,1.2777,1.2565,1.2238,1.186,1.1525,1.1222,1.1016,1.0712,1.0413,1.0117,0.9727,0.9377,0.9072,0.8676,0.8333,0.8084,0.7736,2.8432,2.7934,2.7358,2.6902,2.6569,2.6237,2.5937,2.5648,2.5466,2.538,2.538,2.538,2.538,2.538,2.485,2.4423,2.4026,2.3983,2.3993,2.3993,2.3983,2.3983,2.3983,2.3993,2.3983,2.3993,2.3983,2.3983,2.3993,2.3983,2.3907,2.3807,2.3764,2.3634,2.345,2.3232,2.3101,2.3057,2.2969,2.2916,2.3101,2.3101,2.3057,2.3013,2.2618,2.2441,2.2564,2.2608,2.2618,2.2564,2.2574,2.2574,2.2574,2.2608,2.2564,2.2608,2.2608,2.2608,2.2608,2.2608,2.2618,2.2646,2.2955,2.3276,2.3479,2.4012,2.4498,2.466,2.479,2.447,2.3985,2.3279,2.2728,2.2375,2.2182,2.2021,2.1878,2.1581,2.1224,2.1113,2.0755,2.0326,2.0015,1.9918,1.9724,1.926,1.8833,1.8524,1.8238,1.7839,1.7556,1.7351,1.7044,1.6584,1.5897,1.4887,1.4295,1.3935,1.3596,1.3329,1.3024,1.2698,1.2386,1.2283,1.2029,1.1731,1.1438,1.1051,1.0659,1.0216,0.9862,0.9665,0.9278,0.9126,0.8779,2.8608,2.7953,2.7448,2.7074,2.6788,2.6666,2.6413,2.6104,2.6104,2.6104,2.6093,2.6104,2.6157,2.6104,2.5926,2.5611,2.5137,2.4893,2.4712,2.4712,2.4722,2.4712,2.4712,2.4712,2.4722,2.4722,2.4722,2.4712,2.4722,2.4712,2.468,2.454,2.4454,2.4315,2.4143,2.3917,2.3831,2.3787,2.3657,2.3657,2.3787,2.3841,2.3927,2.4046,2.3701,2.345,2.345,2.3527,2.357,2.356,2.356,2.356,2.356,2.356,2.357,2.3551,2.356,2.356,2.356,2.356,2.356,2.357,2.3775,2.3994,2.4192,2.4729,2.5066,2.5238,2.5277,2.5255,2.491,2.4206,2.3635,2.3349,2.3129,2.3029,2.297,2.2415,2.1937,2.1495,2.1213,2.0923,2.0711,2.0662,2.0451,2.0071,1.9724,1.9347,1.9097,1.8748,1.8408,1.819,1.7885,1.752,1.7087,1.6334,1.5441,1.5047,1.4563,1.4214,1.3944,1.3619,1.3383,1.3286,1.3044,1.2754,1.2414,1.2024,1.1585,1.1145,1.0949,1.0801,1.0458,1.0216,0.9912,2.8455,2.8007,2.7502,2.731,2.7262,2.688,2.6655,2.6644,2.6633,2.6644,2.6685,2.6644,2.6685,2.6644,2.6592,2.655,2.6373,2.5695,2.5327,2.5285,2.5242,2.5285,2.5274,2.5274,2.5274,2.5274,2.5232,2.5232,2.5285,2.5274,2.5232,2.5158,2.5041,2.4946,2.4914,2.468,2.4541,2.4551,2.4498,2.4498,2.4488,2.4541,2.4637,2.4861,2.4871,2.469,2.4292,2.4433,2.4456,2.4498,2.4488,2.4488,2.4498,2.4498,2.4498,2.4509,2.4498,2.4488,2.4498,2.4498,2.4498,2.4509,2.4529,2.4736,2.5034,2.523,2.5458,2.5723,2.565,2.5478,2.5213,2.4901,2.4513,2.4177,2.3929,2.3919,2.3861,2.326,2.2377,2.1712,2.1468,2.1318,2.13,2.1292,2.1241,2.1074,2.0681,2.0262,2.0019,1.9605,1.9176,1.8913,1.8714,1.8512,1.8195,1.78,1.6965,1.6251,1.5737,1.5337,1.5099,1.4771,1.4484,1.434,1.41,1.3811,1.3377,1.299,1.2754,1.236,1.217,1.1927,1.1629,1.1336,1.1145,2.8545,2.8349,2.7927,2.7719,2.7696,2.7534,2.7516,2.7528,2.7516,2.7464,2.7516,2.7505,2.7516,2.7423,2.733,2.7237,2.7196,2.6734,2.6445,2.6207,2.6177,2.6124,2.6135,2.6135,2.6166,2.6177,2.6177,2.6177,2.6135,2.6166,2.6082,2.5904,2.5821,2.5706,2.5591,2.5506,2.5464,2.5464,2.5464,2.5454,2.5454,2.5464,2.5506,2.5591,2.5748,2.5779,2.5779,2.5401,2.5285,2.5464,2.5464,2.5464,2.5464,2.5454,2.5454,2.5454,2.5464,2.5464,2.5464,2.5464,2.5454,2.5454,2.5464,2.5518,2.5711,2.5958,2.6173,2.6344,2.6269,2.6145,2.601,2.5694,2.5111,2.4353,2.424,2.4278,2.4221,2.372,2.3183,2.2733,2.2461,2.2306,2.2073,2.2001,2.1903,2.1642,2.1326,2.1065,2.0757,2.0468,2.0102,1.9874,1.9737,1.9592,1.9309,1.908,1.8573,1.7738,1.7084,1.6473,1.619,1.5961,1.5676,1.5391,1.5105,1.4813,1.4388,1.41,1.3859,1.3619,1.3372,1.3082,1.2743,1.25,1.2311,2.871,2.8508,2.8253,2.8122,2.8122,2.8122,2.8122,2.8122,2.8122,2.8122,2.8122,2.8122,2.8122,2.8082,2.7938,2.7886,2.7846,2.7765,2.7563,2.7249,2.6921,2.6828,2.6839,2.6839,2.6839,2.6839,2.6828,2.6828,2.6798,2.6839,2.6745,2.6599,2.6569,2.6528,2.6385,2.6385,2.6385,2.6373,2.6385,2.6385,2.6373,2.6385,2.6373,2.6373,2.6487,2.6682,2.6805,2.6528,2.6362,2.6373,2.6385,2.6385,2.6385,2.6373,2.6373,2.6385,2.6385,2.6385,2.6385,2.6385,2.6385,2.6385,2.6385,2.6385,2.644,2.6677,2.683,2.6823,2.6701,2.6585,2.6444,2.6149,2.5622,2.5002,2.4897,2.4764,2.4558,2.4225,2.3808,2.3429,2.3189,2.2949,2.2734,2.2586,2.2511,2.2223,2.2122,2.1935,2.1713,2.1463,2.123,2.1006,2.0826,2.0682,2.0492,2.0311,2.0093,1.9317,1.8488,1.7831,1.7365,1.7138,1.6857,1.6473,1.6143,1.6048,1.5663,1.5337,1.5099,1.4813,1.4573,1.4334,1.404,1.3757,1.357,2.8972,2.8562,2.859,2.859,2.8578,2.859,2.863,2.8578,2.8578,2.863,2.8578,2.863,2.863,2.859,2.8618,2.8578,2.8538,2.8566,2.8538,2.8327,2.7874,2.7499,2.736,2.736,2.7348,2.736,2.7307,2.7296,2.736,2.7348,2.7267,2.7307,2.7307,2.7267,2.7267,2.7267,2.7267,2.7267,2.7267,2.7267,2.7267,2.7267,2.7267,2.7255,2.7267,2.7389,2.7592,2.773,2.7649,2.7336,2.7278,2.7267,2.7267,2.7267,2.7255,2.7278,2.7267,2.7278,2.7267,2.7267,2.7278,2.7267,2.7267,2.7267,2.729,2.7336,2.737,2.7359,2.7158,2.6941,2.6723,2.6485,2.6234,2.5984,2.576,2.5416,2.4979,2.4863,2.451,2.3901,2.361,2.3503,2.3325,2.3281,2.3261,2.3188,2.3178,2.3047,2.2872,2.2599,2.2432,2.2211,2.1989,2.1811,2.1615,2.1392,2.1221,2.0907,2.0039,1.9301,1.8527,1.821,1.7986,1.7606,1.7271,1.7178,1.6936,1.6655,1.6379,1.6136,1.5906,1.5629,1.5343,1.5099,1.486,2.9491,2.9406,2.9367,2.9367,2.9355,2.9367,2.9367,2.9406,2.9367,2.9367,2.9367,2.9406,2.9367,2.9406,2.938,2.9367,2.9367,2.9367,2.9367,2.9367,2.9199,2.8661,2.8259,2.8179,2.8179,2.8179,2.8155,2.8139,2.8139,2.8179,2.8167,2.8179,2.8139,2.8179,2.8179,2.8127,2.8179,2.8139,2.8179,2.8139,2.8139,2.8179,2.8179,2.8179,2.8139,2.8247,2.8474,2.8819,2.8712,2.8219,2.8179,2.8127,2.8179,2.8127,2.8127,2.8139,2.8167,2.8179,2.8139,2.8139,2.8179,2.8139,2.8179,2.8179,2.8127,2.8139,2.8179,2.8139,2.7978,2.7857,2.7725,2.7389,2.7103,2.6809,2.6433,2.5947,2.569,2.5424,2.5189,2.5009,2.4818,2.4637,2.4466,2.4391,2.4337,2.4198,2.4155,2.4079,2.3907,2.3777,2.3551,2.3266,2.3057,2.2916,2.274,2.252,2.2388,2.2255,2.1615,2.0799,1.994,1.9171,1.8996,1.8719,1.8488,1.8342,1.8149,1.7909,1.7684,1.7404,1.7225,1.6943,1.6662,1.6426,1.6183,3.0037,3.0114,3.0114,3.0152,3.0228,3.0266,3.0266,3.0254,3.0266,3.0228,3.0228,3.0228,3.0228,3.0254,3.0266,3.0216,3.0254,3.0254,3.0254,3.0228,3.0228,2.9767,2.9197,2.9,2.9,2.9,2.8988,2.9,2.8988,2.9,2.8988,2.8988,2.9,2.8988,2.8988,2.8988,2.9,2.9,2.9,2.8988,2.8988,2.9,2.9,2.9,2.9,2.9145,2.9457,2.9755,2.96,2.9145,2.9,2.9,2.9,2.9,2.8988,2.9,2.9,2.8988,2.8988,2.8988,2.8988,2.8988,2.9,2.9,2.8988,2.9,2.9,2.8988,2.887,2.8791,2.8673,2.8383,2.8131,2.7983,2.7458,2.6951,2.655,2.6343,2.6166,2.6082,2.5957,2.5832,2.5611,2.5569,2.5432,2.5306,2.5253,2.5094,2.4935,2.485,2.4712,2.4466,2.4219,2.4079,2.395,2.3777,2.3517,2.3387,2.2994,2.2227,2.1329,2.0385,2.013,1.9957,1.9729,1.9509,1.9355,1.9155,1.8926,1.8696,1.8527,1.8295,1.8017,1.7684,1.7451,3.0634,3.0773,3.0773,3.0887,3.1024,3.1061,3.1024,3.1061,3.1024,3.1024,3.1024,3.1037,3.0986,3.1061,3.0973,3.1024,3.1024,3.1048,3.1086,3.1086,3.1035,3.0684,3.0126,2.9909,2.9871,2.9832,2.9832,2.9832,2.9832,2.9832,2.9832,2.9832,2.9832,2.9819,2.9832,2.9832,2.9819,2.9832,2.9845,2.9832,2.9871,2.9845,2.9832,2.9871,2.9896,3.0101,3.0444,3.062,3.0494,3.0012,2.9884,2.9832,2.9832,2.9832,2.9819,2.9832,2.9832,2.9832,2.9858,2.9896,2.9896,2.9896,2.9896,2.9858,2.9858,2.9858,2.9832,2.9832,2.9819,2.9716,2.9523,2.9355,2.9225,2.9121,2.8976,2.8462,2.7782,2.7418,2.7278,2.7085,2.7056,2.6962,2.6787,2.6652,2.6599,2.6381,2.634,2.6257,2.6144,2.6019,2.5852,2.5684,2.5485,2.5285,2.52,2.5031,2.4765,2.4509,2.4122,2.3507,2.2668,2.1908,2.1526,2.1221,2.0943,2.0808,2.0673,2.0439,2.0204,1.994,1.9758,1.9538,1.9271,1.898,1.8696,3.1373,3.1424,3.141,3.1424,3.1447,3.1498,3.1485,3.1485,3.1485,3.1522,3.1498,3.1485,3.1485,3.1485,3.1522,3.1498,3.1522,3.1633,3.178,3.1886,3.1886,3.18,3.1418,3.1022,3.0735,3.0748,3.071,3.071,3.0697,3.0697,3.0748,3.0697,3.0697,3.071,3.0697,3.0684,3.0697,3.0748,3.071,3.0697,3.0735,3.0735,3.0735,3.0772,3.0859,3.1095,3.1405,3.1529,3.1579,3.1468,3.1084,3.0797,3.0735,3.0697,3.0697,3.0684,3.0735,3.0759,3.0859,3.0884,3.0959,3.102,3.0959,3.0897,3.0884,3.0797,3.0735,3.071,3.0748,3.0608,3.0393,3.0304,3.0228,3.0126,3.0012,2.9896,2.9549,2.8779,2.8287,2.8179,2.8139,2.8099,2.7886,2.7834,2.7701,2.7528,2.7447,2.7447,2.7325,2.7174,2.704,2.6864,2.6682,2.6517,2.631,2.6144,2.5893,2.56,2.5263,2.4935,2.4102,2.34,2.3008,2.258,2.2192,2.2059,2.1917,2.1739,2.1507,2.1248,2.0988,2.0763,2.0529,2.0257,1.9985,3.19,3.1986,3.1973,3.2046,3.2119,3.2119,3.2119,3.2132,3.2132,3.2119,3.2119,3.2119,3.2119,3.2119,3.2119,3.2119,3.2132,3.2228,3.2359,3.2489,3.2525,3.2561,3.2632,3.2237,3.1946,3.1579,3.1519,3.1519,3.1519,3.1492,3.1519,3.1519,3.1505,3.1519,3.1519,3.1505,3.1519,3.1519,3.1519,3.1482,3.1519,3.1629,3.174,3.18,3.1932,3.2173,3.2318,3.2475,3.2547,3.2561,3.2273,3.1886,3.1556,3.1519,3.1519,3.1519,3.1629,3.1653,3.175,3.1859,3.1969,3.2064,3.1969,3.1932,3.1896,3.1836,3.1813,3.1776,3.169,3.1529,3.1331,3.1281,3.122,3.1145,3.1033,3.1009,3.0822,3.0024,2.9341,2.9302,2.9263,2.9184,2.9067,2.8976,2.8819,2.8636,2.8557,2.8518,2.8359,2.8251,2.8211,2.8091,2.7903,2.7713,2.7499,2.7255,2.6958,2.6712,2.6423,2.6196,2.5726,2.5084,2.4445,2.4016,2.3497,2.328,2.3149,2.3018,2.2843,2.2545,2.228,2.2015,2.1739,2.1552,2.1329,3.2381,3.2511,3.2525,3.2632,3.2761,3.2775,3.2775,3.2775,3.281,3.2739,3.2775,3.281,3.2739,3.2775,3.2775,3.281,3.286,3.2846,3.2966,3.3108,3.2968,3.2996,3.3037,3.289,3.2598,3.2179,3.2063,3.2041,3.1918,3.1987,3.1782,3.1932,3.1959,3.1918,3.2041,3.2136,3.215,3.2268,3.2345,3.2345,3.2381,3.2525,3.269,3.2903,3.2995,3.315,3.322,3.3339,3.3444,3.3444,3.3479,3.3094,3.2632,3.2309,3.2309,3.2345,3.2489,3.2632,3.2725,3.2832,3.2903,3.2952,3.2938,3.2917,3.2903,3.2854,3.2797,3.2797,3.269,3.2547,3.2367,3.2354,3.2354,3.2318,3.2187,3.2128,3.1946,3.1294,3.0895,3.0418,3.0317,3.0203,3.0165,3.0075,2.9896,2.9755,2.9716,2.9626,2.9471,2.9342,2.9303,2.9225,2.9042,2.8858,2.8648,2.845,2.8119,2.7879,2.7649,2.7418,2.7226,2.6753,2.611,2.5295,2.4829,2.4616,2.4445,2.4307,2.4102,2.3831,2.3604,2.3367,2.3105,2.2896,2.2595,3.3129,3.3164,3.3164,3.3164,3.3199,3.3199,3.3234,3.3199,3.3234,3.3199,3.3199,3.3234,3.3234,3.3234,3.3199,3.3283,3.3346,3.3325,3.3443,3.3488,3.3263,3.3092,3.3087,3.29,3.2561,3.2378,3.2266,3.2032,3.1698,3.1503,3.1726,3.1573,3.1601,3.1796,3.2172,3.2298,3.2598,3.294,3.3178,3.329,3.3339,3.35,3.3659,3.3831,3.3899,3.3982,3.4113,3.4196,3.4196,3.423,3.423,3.4128,3.3908,3.343,3.3255,3.329,3.3409,3.3548,3.3728,3.3831,3.3948,3.4045,3.3962,3.3865,3.3831,3.3713,3.3693,3.3659,3.3624,3.3541,3.352,3.3437,3.3485,3.3471,3.3437,3.3381,3.3241,3.2946,3.2407,3.1769,3.1489,3.1257,3.1206,3.1169,3.102,3.0908,3.0871,3.0833,3.0758,3.0557,3.0405,3.0304,3.0165,2.9986,2.9755,2.9588,2.9342,2.9108,2.8885,2.8688,2.849,2.8303,2.7758,2.7058,2.637,2.5924,2.5757,2.5579,2.5337,2.5084,2.4882,2.4691,2.4268,2.3868,2.3725,3.3874,3.3874,3.3874,3.3874,3.3874,3.3839,3.3874,3.3874,3.3874,3.3874,3.3874,3.3874,3.3874,3.3874,3.3874,3.3765,3.3546,3.3489,3.3432,3.3266,3.3014,3.3016,3.3098,3.2874,3.2674,3.2526,3.2375,3.2256,3.1968,3.195,3.185,3.1936,3.1921,3.2078,3.2392,3.272,3.2997,3.3421,3.383,3.4104,3.4153,3.4375,3.461,3.4743,3.4762,3.4824,3.4905,3.4938,3.4905,3.4905,3.489,3.4971,3.4905,3.4758,3.4394,3.424,3.4322,3.4457,3.4643,3.471,3.481,3.489,3.481,3.4762,3.4743,3.471,3.4595,3.4543,3.4509,3.4476,3.4375,3.4394,3.4361,3.4375,3.4361,3.4341,3.4274,3.424,3.3768,3.3115,3.272,3.2448,3.2245,3.2209,3.2137,3.2064,3.2028,3.1992,3.1955,3.1759,3.1526,3.1429,3.1294,3.1071,3.0884,3.072,3.0494,3.0279,3.0126,2.9935,2.9704,2.9498,2.9303,2.8848,2.8176,2.7424,2.704,2.6853,2.6577,2.6295,2.6005,2.5656,2.5198,2.4866,2.4711,3.4515,3.4515,3.4501,3.4515,3.4501,3.4549,3.4549,3.4582,3.4601,3.4587,3.4572,3.4455,3.4368,3.432,3.4159,3.3853,3.3386,3.3419,3.3235,3.3008,3.2777,3.2876,3.3015,3.2989,3.2721,3.2421,3.2377,3.2347,3.2079,3.2059,3.2176,3.2074,3.2176,3.2351,3.2497,3.2803,3.3229,3.3805,3.4262,3.4669,3.5011,3.5285,3.5527,3.5608,3.5625,3.5608,3.564,3.564,3.564,3.564,3.5672,3.5737,3.5879,3.5975,3.5737,3.5287,3.535,3.5397,3.5494,3.5544,3.5608,3.5608,3.5593,3.5593,3.5593,3.5576,3.5544,3.5494,3.5462,3.5397,3.5285,3.5252,3.5237,3.5252,3.5252,3.5219,3.5172,3.5139,3.5106,3.4514,3.4002,3.3659,3.3457,3.3297,3.3213,3.3101,3.3066,3.2981,3.2946,3.2854,3.2676,3.2569,3.2403,3.2137,3.1955,3.1833,3.1613,3.1368,3.1257,3.1145,3.0921,3.0658,3.0456,3.0279,2.9743,2.8993,2.8585,2.8119,2.7879,2.7549,2.7091,2.6667,2.6297,2.5831,2.5475,3.4835,3.4854,3.4854,3.4835,3.4843,3.496,3.5085,3.5041,3.5083,3.5285,3.5043,3.4639,3.4354,3.4297,3.385,3.3568,3.3419,3.3374,3.3316,3.3094,3.2811,3.2721,3.2675,3.2293,3.2437,3.2381,3.232,3.1989,3.1943,3.1855,3.1707,3.1752,3.1871,3.1901,3.2467,3.275,3.3182,3.4138,3.4689,3.535,3.6088,3.6289,3.6352,3.6336,3.6367,3.6352,3.6336,3.6321,3.6336,3.6367,3.6461,3.6554,3.6616,3.6892,3.6967,3.6738,3.6461,3.6179,3.6305,3.6336,3.6367,3.6321,3.6336,3.6383,3.6336,3.6336,3.6336,3.6352,3.6352,3.6305,3.6242,3.6289,3.6289,3.6274,3.6196,3.6164,3.6086,3.6008,3.5976,3.5897,3.5322,3.4945,3.4681,3.448,3.4327,3.4187,3.4065,3.3982,3.3899,3.3831,3.3728,3.3624,3.3451,3.3241,3.3052,3.2946,3.2733,3.2497,3.239,3.2318,3.2051,3.1833,3.1686,3.1402,3.0957,3.0581,3.0114,2.9666,2.9225,2.8731,2.8236,2.7859,2.7463,2.6925,2.6153,3.4578,3.497,3.4955,3.4683,3.4354,3.4448,3.4479,3.4479,3.4511,3.4542,3.4497,3.4271,3.4181,3.4182,3.4001,3.3757,3.3483,3.3378,3.315,3.2938,3.2688,3.259,3.2599,3.2468,3.2441,3.2566,3.2648,3.2722,3.2385,3.2148,3.202,3.202,3.2007,3.2144,3.257,3.2844,3.3528,3.447,3.5416,3.6306,3.6783,3.6952,3.7013,3.7013,3.7013,3.7013,3.7013,3.7013,3.7013,3.7043,3.718,3.7314,3.7387,3.7594,3.774,3.7844,3.7623,3.7344,3.7074,3.7043,3.7013,3.7013,3.7013,3.7013,3.7029,3.7013,3.7013,3.7013,3.7013,3.7013,3.7013,3.7013,3.7013,3.6997,3.7028,3.6997,3.6937,3.6906,3.6876,3.6799,3.6692,3.6306,3.5914,3.5659,3.5434,3.519,3.5073,3.5008,3.4909,3.4791,3.4691,3.461,3.4442,3.4274,3.4172,3.4056,3.3851,3.3644,3.3485,3.3381,3.3157,3.2981,3.2826,3.2769,3.2506,3.2096,3.1659,3.1068,3.0481,2.9921,2.9363,2.8911,2.8338,2.7065,2.6541,3.4377,3.4728,3.4775,3.4486,3.4044,3.4044,3.4104,3.4104,3.4179,3.4193,3.4117,3.4025,3.3946,3.3867,3.386,3.3624,3.3308,3.3336,3.307,3.2757,3.2645,3.2703,3.2816,3.2807,3.2877,3.3058,3.3123,3.3187,3.3145,3.2969,3.278,3.2645,3.2617,3.2648,3.2757,3.3129,3.3764,3.4812,3.6074,3.6938,3.7399,3.7565,3.7639,3.7669,3.7623,3.7639,3.7653,3.7653,3.7653,3.7698,3.7873,3.8017,3.8116,3.827,3.8455,3.8528,3.8455,3.8343,3.8001,3.7799,3.7698,3.7653,3.7653,3.7669,3.7669,3.7639,3.7669,3.7669,3.7639,3.7669,3.7639,3.7669,3.7682,3.7711,3.7725,3.7695,3.7695,3.7695,3.7653,3.7565,3.7535,3.7535,3.7177,3.6829,3.6523,3.6212,3.6071,3.5991,3.5864,3.5705,3.5608,3.5544,3.5382,3.5237,3.5172,3.5041,3.4909,3.4776,3.461,3.4442,3.4245,3.4124,3.4022,3.3934,3.3879,3.3644,3.3185,3.242,3.1673,3.1209,3.0682,2.9859,2.9021,2.7769,2.7234,3.448,3.4001,3.4158,3.4253,3.4295,3.4488,3.4515,3.4361,3.4627,3.4654,3.4499,3.4185,3.3578,3.3232,3.3244,3.3248,3.3152,3.3105,3.317,3.3234,3.3256,3.3224,3.3251,3.3277,3.3303,3.345,3.3529,3.3658,3.3771,3.3755,3.3513,3.3293,3.3251,3.3224,3.3319,3.354,3.4182,3.5225,3.6421,3.7262,3.7789,3.8141,3.8319,3.8319,3.8319,3.8319,3.8319,3.8319,3.8319,3.8319,3.8528,3.8678,3.8761,3.8952,3.9088,3.9125,3.9169,3.9071,3.8892,3.8539,3.8347,3.8319,3.8319,3.8319,3.8303,3.8319,3.8335,3.8319,3.8303,3.8319,3.8319,3.8335,3.8387,3.8439,3.8451,3.8451,3.8467,3.8467,3.8427,3.8347,3.8319,3.8286,3.823,3.7867,3.7415,3.7117,3.689,3.6814,3.6708,3.6554,3.6507,3.6414,3.6258,3.6133,3.6101,3.5959,3.5817,3.5721,3.5578,3.5449,3.532,3.5204,3.5157,3.4975,3.4876,3.481,3.4629,3.3856,3.3122,3.263,3.1989,3.1164,3.0323,2.93,2.8971,3.374,3.3655,3.3744,3.3661,3.3482,3.3538,3.3566,3.3594,3.3732,3.3854,3.3936,3.3734,3.3508,3.333,3.3388,3.3414,3.3477,3.3477,3.3555,3.3633,3.3684,3.3736,3.3761,3.3797,3.3822,3.3873,3.3949,3.4025,3.4126,3.4275,3.4325,3.4151,3.3949,3.3822,3.3861,3.4108,3.4743,3.5401,3.6556,3.7546,3.7839,3.8581,3.8898,3.8898,3.8898,3.8898,3.8882,3.8898,3.8914,3.8969,3.9121,3.9239,3.9345,3.953,3.9644,3.9705,3.9722,3.9731,3.9627,3.9232,3.8898,3.8898,3.8898,3.8914,3.8898,3.8887,3.8898,3.8898,3.8898,3.8914,3.9007,3.9023,3.9061,3.9152,3.9216,3.9232,3.9232,3.9216,3.9125,3.9034,3.898,3.898,3.8925,3.8843,3.8399,3.7972,3.7783,3.7608,3.749,3.7401,3.7358,3.7298,3.7148,3.7088,3.7058,3.6906,3.6723,3.6646,3.6569,3.6399,3.6275,3.6337,3.6244,3.6071,3.5881,3.5802,3.5563,3.5077,3.4503,3.3853,3.3166,3.2373,3.1559,3.0768,3.0644,3.3372,3.3555,3.3555,3.3398,3.315,3.3123,3.3139,3.3165,3.3277,3.3346,3.3477,3.3617,3.3684,3.371,3.3761,3.3848,3.3873,3.3899,3.3975,3.405,3.4126,3.4201,3.4259,3.4308,3.4349,3.4374,3.4423,3.4497,3.457,3.4715,3.4811,3.4787,3.465,3.4505,3.4423,3.4765,3.5131,3.5696,3.6704,3.7781,3.8031,3.893,3.947,3.947,3.947,3.9487,3.947,3.9487,3.9487,3.9556,3.9635,3.9781,3.9884,4.0011,4.0138,4.0238,4.0288,4.0296,4.0196,3.985,3.9497,3.9487,3.947,3.947,3.947,3.9487,3.947,3.947,3.947,3.9523,3.9644,3.967,3.9747,3.9842,3.9893,3.9919,3.9919,3.9876,3.9782,3.9696,3.967,3.9618,3.954,3.9461,3.9125,3.8745,3.8523,3.8339,3.8242,3.8185,3.8157,3.8116,3.803,3.8017,3.8004,3.7799,3.7621,3.7578,3.7474,3.7326,3.7221,3.7251,3.7207,3.6996,3.6875,3.6784,3.6631,3.6322,3.5723,3.4993,3.4233,3.343,3.2977,3.2287,3.2137,3.371,3.3694,3.372,3.3694,3.3668,3.3668,3.3658,3.3658,3.3668,3.3745,3.3915,3.4025,3.4101,3.4101,3.4126,3.4184,3.4275,3.43,3.4358,3.4472,3.457,3.4643,3.4715,3.4804,3.4835,3.4875,3.4923,3.497,3.5065,3.5111,3.5211,3.535,3.5287,3.5148,3.4906,3.4875,3.5256,3.5926,3.6936,3.7661,3.843,3.932,3.9758,4.0054,4.0054,4.007,4.007,4.007,4.0054,4.0096,4.0188,4.028,4.033,4.0453,4.0558,4.0655,4.0697,4.0752,4.084,4.037,4.0154,4.0096,4.0054,4.007,4.007,4.007,4.007,4.0054,4.0054,4.0146,4.0213,4.0288,4.0402,4.0507,4.058,4.0604,4.0587,4.0563,4.0483,4.0336,4.0271,4.0255,4.0138,4.002,3.9731,3.947,3.9259,3.9115,3.9007,3.898,3.8936,3.8898,3.8843,3.8805,3.875,3.865,3.8523,3.8483,3.8383,3.821,3.8096,3.8055,3.7998,3.7899,3.7812,3.7709,3.7711,3.7698,3.6981,3.6229,3.5237,3.4485,3.4112,3.3856,3.37,3.4151,3.4209,3.4226,3.4226,3.4201,3.3949,3.3873,3.3975,3.4075,3.4176,3.43,3.4448,3.4497,3.4521,3.4611,3.4643,3.4691,3.4691,3.4763,3.4899,3.497,3.5018,3.5088,3.5188,3.5218,3.5258,3.5304,3.5373,3.5418,3.5487,3.5594,3.5684,3.58,3.5711,3.5447,3.5373,3.5534,3.5809,3.6629,3.7472,3.832,3.9211,4.0021,4.0521,4.058,4.0614,4.0631,4.0631,4.0631,4.0614,4.0704,4.0745,4.081,4.0888,4.0942,4.1041,4.1088,4.1221,4.1312,4.1134,4.0948,4.0799,4.0631,4.0631,4.0631,4.0614,4.0631,4.0631,4.0614,4.071,4.0853,4.0884,4.1001,4.1186,4.1255,4.1255,4.1255,4.1255,4.1186,4.0984,4.0884,4.0799,4.0662,4.0614,4.0385,4.0237,4.0045,3.985,3.9722,3.9722,3.9696,3.967,3.9635,3.9573,3.9494,3.9365,3.9269,3.9216,3.9189,3.9119,3.8984,3.8892,3.8799,3.8673,3.865,3.8611,3.8528,3.8399,3.8116,3.7449,3.6529,3.5861,3.5521,3.5347,3.5292,3.4497,3.4659,3.4659,3.4667,3.4659,3.4275,3.4159,3.4325,3.4497,3.4618,3.4732,3.4851,3.4923,3.4947,3.5018,3.5088,3.5095,3.5142,3.5182,3.5274,3.5321,3.5389,3.5481,3.5554,3.5605,3.565,3.5734,3.58,3.58,3.591,3.6014,3.6101,3.6251,3.6229,3.6062,3.5975,3.5866,3.6161,3.6818,3.7477,3.8258,3.9117,4.0072,4.0579,4.0903,4.1134,4.1129,4.1129,4.1129,4.1129,4.1152,4.1192,4.1261,4.1284,4.1312,4.1408,4.1547,4.1653,4.174,4.1805,4.1631,4.1475,4.1272,4.1152,4.1152,4.1111,4.1111,4.1129,4.1129,4.1226,4.1346,4.1413,4.1525,4.1719,4.1784,4.1784,4.1805,4.1784,4.1697,4.1507,4.1396,4.1295,4.1198,4.1175,4.1065,4.0954,4.0836,4.0638,4.0419,4.037,4.0353,4.032,4.0296,4.0246,4.0171,4.0062,3.9995,3.9952,3.9902,3.9851,3.98,3.9671,3.9584,3.9513,3.9487,3.9408,3.9239,3.905,3.8827,3.8535,3.8003,3.7422,3.6997,3.6693,3.6492,3.4804,3.4899,3.4906,3.4994,3.5018,3.4715,3.4643,3.4739,3.497,3.5088,3.5111,3.5228,3.5297,3.5337,3.5396,3.5424,3.5447,3.5554,3.56,3.5661,3.5728,3.5773,3.5844,3.5932,3.598,3.6041,3.6105,3.6208,3.6229,3.6318,3.6423,3.6506,3.6626,3.6667,3.6609,3.653,3.6385,3.6592,3.6924,3.7511,3.8156,3.9334,4.0084,4.0661,4.1165,4.1539,4.1626,4.1626,4.1609,4.1609,4.1626,4.1626,4.1626,4.1626,4.1697,4.1805,4.1998,4.2061,4.2124,4.2207,4.2267,4.2103,4.1892,4.1736,4.1626,4.1609,4.1609,4.1609,4.1609,4.1697,4.1784,4.187,4.1938,4.2082,4.2225,4.2246,4.2267,4.2225,4.2103,4.1998,4.1895,4.1784,4.1653,4.1626,4.1609,4.1565,4.1458,4.1368,4.114,4.0924,4.0901,4.0901,4.0894,4.0894,4.0806,4.07,4.0676,4.0635,4.0563,4.0514,4.0466,4.0441,4.0343,4.0286,4.0296,4.0188,3.9969,3.9773,3.9618,3.9312,3.9028,3.8467,3.787,3.7549,3.7342,3.5135,3.5198,3.5218,3.5281,3.531,3.5396,3.5321,3.5158,3.5258,3.531,3.535,3.5571,3.5639,3.5661,3.5778,3.5822,3.5844,3.5888,3.5954,3.5997,3.6079,3.6122,3.6191,3.6276,3.6356,3.6398,3.6478,3.6582,3.6629,3.6731,3.6834,3.6933,3.697,3.7048,3.7087,3.7089,3.6952,3.6923,3.7186,3.7542,3.8201,3.9291,4.0029,4.0731,4.1597,4.1973,4.21,4.21,4.2082,4.21,4.2082,4.2082,4.2082,4.2082,4.2145,4.2228,4.231,4.2351,4.247,4.2588,4.2667,4.2668,4.2514,4.2371,4.2207,4.2103,4.2121,4.2082,4.2065,4.2145,4.2187,4.2251,4.2333,4.245,4.253,4.2552,4.257,4.255,4.2452,4.2371,4.2269,4.2207,4.2082,4.2082,4.2065,4.2082,4.2061,4.1977,4.1827,4.1565,4.1408,4.1386,4.1386,4.1403,4.1403,4.1323,4.1323,4.13,4.1214,4.1169,4.1128,4.1082,4.1053,4.0977,4.0884,4.0782,4.0655,4.0451,4.0262,4.0196,3.9927,3.9355,3.8816,3.8467,3.8157,3.5526,3.5571,3.5622,3.5627,3.5667,3.58,3.5773,3.5661,3.5627,3.5627,3.5672,3.5883,3.5971,3.5993,3.6105,3.6191,3.6191,3.6272,3.6335,3.6356,3.6395,3.644,3.6523,3.6568,3.6647,3.6708,3.6788,3.6888,3.697,3.7087,3.7185,3.7204,3.7279,3.7355,3.7411,3.7449,3.7467,3.7374,3.7424,3.7618,3.8259,3.9173,4.0052,4.0794,4.1787,4.2346,4.255,4.2532,4.2532,4.2532,4.2532,4.2532,4.2532,4.2532,4.2532,4.2611,4.2688,4.2727,4.2822,4.288,4.2937,4.2975,4.3031,4.292,4.2768,4.2632,4.2573,4.2514,4.2532,4.2552,4.2591,4.265,4.2727,4.2803,4.2823,4.2824,4.2861,4.2861,4.2785,4.2689,4.2631,4.2571,4.2532,4.2532,4.2514,4.2514,4.2514,4.2494,4.2313,4.2082,4.1934,4.187,4.1888,4.1888,4.1888,4.187,4.1849,4.1831,4.1849,4.1788,4.1766,4.1723,4.164,4.1507,4.1373,4.1277,4.114,4.1024,4.0866,4.0806,4.0662,4.0212,3.9688,3.9286,3.8974,3.5905,3.5997,3.6041,3.6041,3.6062,3.6079,3.6144,3.6208,3.6122,3.6041,3.6062,3.6148,3.6247,3.6272,3.6419,3.6502,3.6544,3.6623,3.6667,3.6722,3.6725,3.6768,3.6829,3.6831,3.6948,3.7009,3.7069,3.7127,3.7204,3.7337,3.7466,3.7466,3.7558,3.7649,3.7703,3.7792,3.7828,3.788,3.7774,3.7864,3.8187,3.9102,4.0199,4.0672,4.172,4.2716,4.2845,4.2901,4.292,4.2901,4.292,4.292,4.2939,4.2957,4.2957,4.2975,4.305,4.3068,4.3123,4.3196,4.3214,4.325,4.3286,4.3303,4.3214,4.305,4.2957,4.2939,4.2957,4.2939,4.2976,4.2995,4.3087,4.3105,4.3123,4.3123,4.3142,4.3142,4.3105,4.3031,4.3013,4.2957,4.2957,4.2939,4.2939,4.2939,4.2939,4.2939,4.2844,4.2613,4.2474,4.2371,4.2331,4.2331,4.2331,4.2331,4.2331,4.2331,4.2331,4.2331,4.2272,4.2251,4.2249,4.2065,4.1878,4.1766,4.1657,4.1547,4.1418,4.1277,4.114,4.096,4.0604,4.0162,3.9773,3.6019,3.6165,3.6314,3.644,3.652,3.6541,3.6541,3.6561,3.6541,3.6461,3.6419,3.652,3.6599,3.6602,3.6687,3.6748,3.6788,3.6888,3.695,3.6989,3.7009,3.7085,3.7163,3.7164,3.7239,3.7279,3.7337,3.7412,3.7541,3.7685,3.781,3.7863,3.7897,3.7931,3.8,3.8069,3.8189,3.8256,3.8236,3.8136,3.8268,3.9008,3.9929,4.0689,4.1741,4.2632,4.2905,4.3142,4.3142,4.3105,4.3196,4.325,4.3339,4.3357,4.3357,4.3357,4.3393,4.341,4.3445,4.3479,4.3495,4.3529,4.3599,4.3651,4.3618,4.3463,4.3375,4.3357,4.3357,4.3357,4.3357,4.3375,4.341,4.3428,4.3428,4.3427,4.3427,4.3427,4.3427,4.3392,4.3375,4.3357,4.3357,4.3357,4.3357,4.3357,4.3357,4.3357,4.3357,4.3196,4.3014,4.2902,4.2768,4.2749,4.2767,4.2767,4.2767,4.2749,4.2749,4.2749,4.2767,4.2729,4.2691,4.2552,4.2374,4.2251,4.2169,4.2124,4.198,4.1809,4.1679,4.1552,4.1351,4.0966,4.0556,3.6374,3.6437,3.6541,3.6623,3.6702,3.6725,3.6786,3.6846,3.6869,3.6869,3.6849,3.6849,3.6849,3.6888,3.6987,3.7027,3.7029,3.7126,3.7166,3.7223,3.7299,3.7392,3.7448,3.7466,3.7558,3.7595,3.7649,3.7757,3.7862,3.8002,3.8105,3.8156,3.8188,3.8234,3.8283,3.8366,3.8467,3.853,3.8606,3.8575,3.8595,3.9524,4.0326,4.111,4.1984,4.2824,4.3206,4.3463,4.3463,4.3463,4.3496,4.3549,4.36,4.3651,4.3667,4.3684,4.3718,4.3732,4.3749,4.3765,4.3779,4.3812,4.386,4.391,4.3926,4.3795,4.3767,4.3732,4.3684,4.3667,4.3699,4.3732,4.3732,4.3749,4.3749,4.3749,4.3749,4.3749,4.3749,4.3732,4.3716,4.3716,4.3716,4.3714,4.3697,4.3716,4.3732,4.3732,4.3732,4.3732,4.3563,4.3425,4.3303,4.3196,4.3178,4.3178,4.3178,4.3178,4.316,4.316,4.316,4.316,4.3105,4.2939,4.2806,4.2729,4.2652,4.2591,4.2452,4.2251,4.219,4.2145,4.1938,4.1723,4.1396,3.6702,3.6742,3.6783,3.6766,3.6786,3.6829,3.6911,3.7046,3.7108,3.7222,3.7297,3.7145,3.7108,3.7184,3.7297,3.7334,3.7391,3.7448,3.7466,3.7503,3.7595,3.7667,3.7703,3.7757,3.7828,3.7915,3.8002,3.8069,3.8152,3.8254,3.8322,3.8389,3.8449,3.8541,3.8554,3.86,3.8664,3.8758,3.8851,3.8969,3.9534,4.028,4.0785,4.1593,4.2578,4.3515,4.373,4.382,4.382,4.3818,4.38,4.3832,4.3883,4.3929,4.3929,4.3961,4.4005,4.4036,4.4051,4.4067,4.4067,4.4064,4.4124,4.4155,4.4188,4.4173,4.4131,4.4085,4.4023,4.3976,4.4023,4.4036,4.4036,4.4051,4.4051,4.4067,4.4067,4.4067,4.4067,4.4067,4.4067,4.4067,4.4067,4.4067,4.4067,4.4067,4.4067,4.4067,4.4048,4.4048,4.3986,4.3889,4.3825,4.373,4.3599,4.3548,4.3548,4.3529,4.3529,4.3529,4.3548,4.3529,4.3461,4.3321,4.3196,4.3142,4.3069,4.2995,4.2844,4.2691,4.2652,4.2593,4.2414,4.2231,4.2107,3.6786,3.6948,3.7105,3.72,3.7182,3.7201,3.722,3.7259,3.7317,3.7411,3.7522,3.7559,3.7504,3.7373,3.7503,3.7576,3.7631,3.7721,3.7811,3.7828,3.7898,3.7933,3.7966,3.8018,3.8121,3.8223,3.8303,3.8366,3.843,3.8462,3.8559,3.8686,3.8716,3.8758,3.8818,3.8862,3.8943,3.9075,3.9276,3.943,4.0038,4.0544,4.0668,4.1403,4.2297,4.3161,4.3675,4.3908,4.3942,4.3974,4.4002,4.4085,4.4147,4.4177,4.4211,4.4222,4.4262,4.4292,4.4306,4.435,4.4364,4.4364,4.4407,4.4421,4.4454,4.444,4.4426,4.4454,4.4368,4.4252,4.4248,4.4252,4.4266,4.4325,4.434,4.4368,4.4383,4.4397,4.4397,4.4397,4.4397,4.4397,4.4411,4.4393,4.4378,4.4378,4.4378,4.4378,4.4393,4.4393,4.4393,4.435,4.4273,4.4124,4.3955,4.3926,4.391,4.391,4.3892,4.391,4.391,4.3892,4.3812,4.3646,4.3562,4.3511,4.3442,4.3374,4.325,4.3124,4.3087,4.3013,4.2844,4.271,4.2593]}]]